Wetterdaten: Montag, 04.09.2017
Datum Zeit Temp. A. Pool Temp. Feuchte A. Luftdruck Regen Wind Richtung Richtung Sonnenschein ET UV Solar Taupunkt Windchill Windben Empfang
04.09.2017 00:00 10,6 C 18,3 C 94 % 1015,7 hPa 0,0 l/m 6,1 km/h (2 Bft) SW 232 0 min 0,000 mm 0,0 UV-I 0 W/m 9,7 C 10,6 C 11,3 km/h (2 Bft) 100,00 %
04.09.2017 00:02 10,6 C 18,3 C 94 % 1015,7 hPa 0,0 l/m 4,3 km/h (1 Bft) SW 232 0 min 0,000 mm 0,0 UV-I 0 W/m 9,7 C 10,6 C 6,4 km/h (2 Bft) 100,00 %
04.09.2017 00:04 10,6 C 18,3 C 94 % 1015,7 hPa 0,0 l/m 4,5 km/h (1 Bft) W 259 0 min 0,000 mm 0,0 UV-I 0 W/m 9,7 C 10,6 C 6,4 km/h (2 Bft) 97,87 %
04.09.2017 00:06 10,6 C 18,3 C 94 % 1015,6 hPa 0,0 l/m 4,0 km/h (1 Bft) W-SW 240 0 min 0,000 mm 0,0 UV-I 0 W/m 9,7 C 10,6 C 8,0 km/h (2 Bft) 97,92 %
04.09.2017 00:08 10,6 C 18,3 C 94 % 1015,6 hPa 0,0 l/m 3,8 km/h (1 Bft) W-SW 240 0 min 0,000 mm 0,0 UV-I 0 W/m 9,7 C 10,6 C 4,8 km/h (1 Bft) 100,00 %
04.09.2017 00:10 10,6 C 18,3 C 94 % 1015,6 hPa 0,0 l/m 3,5 km/h (1 Bft) W-SW 250 0 min 0,000 mm 0,0 UV-I 0 W/m 9,7 C 10,6 C 6,4 km/h (2 Bft) 100,00 %
04.09.2017 00:12 10,6 C 18,3 C 94 % 1015,6 hPa 0,0 l/m 3,1 km/h (1 Bft) W-SW 251 0 min 0,000 mm 0,0 UV-I 0 W/m 9,7 C 10,6 C 6,4 km/h (2 Bft) 100,00 %
04.09.2017 00:14 10,6 C 18,3 C 94 % 1015,6 hPa 0,0 l/m 2,0 km/h (1 Bft) W-SW 251 0 min 0,000 mm 0,0 UV-I 0 W/m 9,7 C 10,6 C 3,2 km/h (1 Bft) 100,00 %
04.09.2017 00:16 10,6 C 18,3 C 94 % 1015,6 hPa 0,0 l/m 3,6 km/h (1 Bft) W 263 0 min 0,000 mm 0,0 UV-I 0 W/m 9,7 C 10,6 C 6,4 km/h (2 Bft) 97,87 %
04.09.2017 00:18 10,5 C 18,3 C 94 % 1015,6 hPa 0,0 l/m 3,4 km/h (1 Bft) W 271 0 min 0,000 mm 0,0 UV-I 0 W/m 9,6 C 10,5 C 6,4 km/h (2 Bft) 97,87 %
04.09.2017 00:20 10,5 C 18,3 C 94 % 1015,6 hPa 0,0 l/m 2,2 km/h (1 Bft) W 271 0 min 0,000 mm 0,0 UV-I 0 W/m 9,6 C 10,5 C 4,8 km/h (1 Bft) 100,00 %
04.09.2017 00:22 10,4 C 18,3 C 94 % 1015,7 hPa 0,0 l/m 2,1 km/h (1 Bft) W 271 0 min 0,000 mm 0,0 UV-I 0 W/m 9,5 C 10,4 C 4,8 km/h (1 Bft) 100,00 %
04.09.2017 00:24 10,4 C 18,3 C 94 % 1015,6 hPa 0,0 l/m 1,6 km/h (1 Bft) W 271 0 min 0,000 mm 0,0 UV-I 0 W/m 9,5 C 10,4 C 4,8 km/h (1 Bft) 100,00 %
04.09.2017 00:26 10,4 C 18,3 C 94 % 1015,6 hPa 0,0 l/m 0,7 km/h (0 Bft) W 271 0 min 0,000 mm 0,0 UV-I 0 W/m 9,5 C 10,4 C 3,2 km/h (1 Bft) 100,00 %
04.09.2017 00:28 10,4 C 18,3 C 94 % 1015,6 hPa 0,0 l/m 1,2 km/h (1 Bft) W 271 0 min 0,000 mm 0,0 UV-I 0 W/m 9,5 C 10,4 C 3,2 km/h (1 Bft) 95,74 %
04.09.2017 00:30 10,4 C 18,3 C 94 % 1015,6 hPa 0,0 l/m 0,0 km/h (0 Bft) W 271 0 min 0,000 mm 0,0 UV-I 0 W/m 9,5 C 10,4 C 1,6 km/h (1 Bft) 100,00 %
04.09.2017 00:32 10,4 C 18,3 C 94 % 1015,6 hPa 0,0 l/m 0,0 km/h (0 Bft) W 271 0 min 0,000 mm 0,0 UV-I 0 W/m 9,5 C 10,4 C 0,0 km/h (0 Bft) 100,00 %
04.09.2017 00:34 10,3 C 18,3 C 94 % 1015,6 hPa 0,0 l/m 0,0 km/h (0 Bft) W 271 0 min 0,000 mm 0,0 UV-I 0 W/m 9,4 C 10,3 C 0,0 km/h (0 Bft) 100,00 %
04.09.2017 00:36 10,3 C 18,3 C 94 % 1015,6 hPa 0,0 l/m 0,0 km/h (0 Bft) W 271 0 min 0,000 mm 0,0 UV-I 0 W/m 9,4 C 10,3 C 0,0 km/h (0 Bft) 97,87 %
04.09.2017 00:38 10,3 C 18,3 C 94 % 1015,6 hPa 0,0 l/m 0,0 km/h (0 Bft) W 271 0 min 0,000 mm 0,0 UV-I 0 W/m 9,4 C 10,3 C 0,0 km/h (0 Bft) 97,87 %
04.09.2017 00:40 10,3 C 18,3 C 94 % 1015,6 hPa 0,0 l/m 0,0 km/h (0 Bft) W 271 0 min 0,000 mm 0,0 UV-I 0 W/m 9,4 C 10,3 C 0,0 km/h (0 Bft) 98,00 %
04.09.2017 00:42 10,2 C 18,3 C 94 % 1015,6 hPa 0,0 l/m 0,0 km/h (0 Bft) W 271 0 min 0,000 mm 0,0 UV-I 0 W/m 9,3 C 10,2 C 0,0 km/h (0 Bft) 95,74 %
04.09.2017 00:44 10,2 C 18,3 C 94 % 1015,6 hPa 0,0 l/m 0,3 km/h (0 Bft) W 271 0 min 0,000 mm 0,0 UV-I 0 W/m 9,3 C 10,2 C 1,6 km/h (1 Bft) 95,74 %
04.09.2017 00:46 10,2 C 18,3 C 94 % 1015,6 hPa 0,0 l/m 0,0 km/h (0 Bft) W 271 0 min 0,000 mm 0,0 UV-I 0 W/m 9,3 C 10,2 C 0,0 km/h (0 Bft) 97,87 %
04.09.2017 00:48 10,2 C 18,3 C 94 % 1015,6 hPa 0,0 l/m 0,0 km/h (0 Bft) W 271 0 min 0,000 mm 0,0 UV-I 0 W/m 9,3 C 10,2 C 0,0 km/h (0 Bft) 97,87 %
04.09.2017 00:50 10,1 C 18,3 C 94 % 1015,6 hPa 0,0 l/m 0,3 km/h (0 Bft) W 271 0 min 0,000 mm 0,0 UV-I 0 W/m 9,2 C 10,1 C 1,6 km/h (1 Bft) 97,87 %
04.09.2017 00:52 10,1 C 18,3 C 94 % 1015,5 hPa 0,0 l/m 0,0 km/h (0 Bft) W 271 0 min 0,000 mm 0,0 UV-I 0 W/m 9,2 C 10,1 C 0,0 km/h (0 Bft) 97,87 %
04.09.2017 00:54 10,1 C 18,3 C 94 % 1015,5 hPa 0,0 l/m 0,4 km/h (0 Bft) W 271 0 min 0,000 mm 0,0 UV-I 0 W/m 9,2 C 10,1 C 1,6 km/h (1 Bft) 93,62 %
04.09.2017 00:56 10,0 C 18,3 C 94 % 1015,6 hPa 0,0 l/m 1,2 km/h (1 Bft) W 271 0 min 0,000 mm 0,0 UV-I 0 W/m 9,1 C 10,0 C 3,2 km/h (1 Bft) 97,87 %
04.09.2017 00:58 10,0 C 18,3 C 94 % 1015,6 hPa 0,0 l/m 2,6 km/h (1 Bft) W 271 0 min 0,000 mm 0,0 UV-I 0 W/m 9,1 C 10,0 C 3,2 km/h (1 Bft) 97,87 %
04.09.2017 01:00 10,0 C 18,3 C 94 % 1015,6 hPa 0,0 l/m 3,3 km/h (1 Bft) W 271 0 min 0,000 mm 0,0 UV-I 0 W/m 9,1 C 10,0 C 4,8 km/h (1 Bft) 95,74 %
04.09.2017 01:01 9,9 C 18,3 C 94 % 1015,6 hPa 0,0 l/m 2,0 km/h (1 Bft) W 271 0 min 0,000 mm 0,0 UV-I 0 W/m 9,0 C 9,9 C 4,8 km/h (1 Bft) 91,49 %
04.09.2017 01:04 9,9 C 18,3 C 94 % 1015,7 hPa 0,0 l/m 2,1 km/h (1 Bft) W 271 0 min 0,000 mm 0,0 UV-I 0 W/m 9,0 C 9,9 C 4,8 km/h (1 Bft) 93,62 %
04.09.2017 01:06 9,9 C 18,3 C 94 % 1015,7 hPa 0,0 l/m 2,4 km/h (1 Bft) W 271 0 min 0,000 mm 0,0 UV-I 0 W/m 9,0 C 9,9 C 3,2 km/h (1 Bft) 93,62 %
04.09.2017 01:08 9,9 C 18,3 C 94 % 1015,7 hPa 0,0 l/m 1,8 km/h (1 Bft) W 271 0 min 0,000 mm 0,0 UV-I 0 W/m 9,0 C 9,9 C 4,8 km/h (1 Bft) 95,74 %
04.09.2017 01:10 9,9 C 18,3 C 94 % 1015,7 hPa 0,0 l/m 1,7 km/h (1 Bft) W 271 0 min 0,000 mm 0,0 UV-I 0 W/m 9,0 C 9,9 C 3,2 km/h (1 Bft) 95,83 %
04.09.2017 01:12 9,8 C 18,3 C 94 % 1015,7 hPa 0,0 l/m 1,7 km/h (1 Bft) W 271 0 min 0,000 mm 0,0 UV-I 0 W/m 8,9 C 9,8 C 3,2 km/h (1 Bft) 93,62 %
04.09.2017 01:14 9,8 C 18,3 C 94 % 1015,8 hPa 0,0 l/m 0,5 km/h (0 Bft) W 271 0 min 0,000 mm 0,0 UV-I 0 W/m 8,9 C 9,8 C 3,2 km/h (1 Bft) 95,74 %
04.09.2017 01:16 9,8 C 18,3 C 94 % 1015,7 hPa 0,0 l/m 0,1 km/h (0 Bft) W 271 0 min 0,000 mm 0,0 UV-I 0 W/m 8,9 C 9,8 C 1,6 km/h (1 Bft) 95,74 %
04.09.2017 01:18 9,8 C 18,3 C 94 % 1015,7 hPa 0,0 l/m 0,5 km/h (0 Bft) W 271 0 min 0,000 mm 0,0 UV-I 0 W/m 8,9 C 9,8 C 1,6 km/h (1 Bft) 95,74 %
04.09.2017 01:20 9,8 C 18,3 C 94 % 1015,7 hPa 0,0 l/m 0,3 km/h (0 Bft) W 271 0 min 0,000 mm 0,0 UV-I 0 W/m 8,9 C 9,8 C 1,6 km/h (1 Bft) 91,49 %
04.09.2017 01:22 9,8 C 18,3 C 94 % 1015,8 hPa 0,0 l/m 0,0 km/h (0 Bft) W 271 0 min 0,000 mm 0,0 UV-I 0 W/m 8,9 C 9,8 C 1,6 km/h (1 Bft) 95,74 %
04.09.2017 01:24 9,7 C 18,3 C 94 % 1015,7 hPa 0,0 l/m 0,5 km/h (0 Bft) W 271 0 min 0,000 mm 0,0 UV-I 0 W/m 8,8 C 9,7 C 3,2 km/h (1 Bft) 90,00 %
04.09.2017 01:26 9,7 C 18,3 C 94 % 1015,7 hPa 0,0 l/m 0,2 km/h (0 Bft) W 271 0 min 0,000 mm 0,0 UV-I 0 W/m 8,8 C 9,7 C 1,6 km/h (1 Bft) 95,74 %
04.09.2017 01:28 9,7 C 18,3 C 94 % 1015,7 hPa 0,0 l/m 0,1 km/h (0 Bft) W 271 0 min 0,000 mm 0,0 UV-I 0 W/m 8,8 C 9,7 C 1,6 km/h (1 Bft) 95,74 %
04.09.2017 01:30 9,6 C 18,3 C 94 % 1015,7 hPa 0,0 l/m 0,3 km/h (0 Bft) W 271 0 min 0,000 mm 0,0 UV-I 0 W/m 8,7 C 9,6 C 1,6 km/h (1 Bft) 94,74 %
04.09.2017 01:32 9,6 C 18,3 C 94 % 1015,7 hPa 0,0 l/m 0,2 km/h (0 Bft) W 271 0 min 0,000 mm 0,0 UV-I 0 W/m 8,7 C 9,6 C 1,6 km/h (1 Bft) 97,87 %
04.09.2017 01:34 9,6 C 18,3 C 94 % 1015,7 hPa 0,0 l/m 0,1 km/h (0 Bft) W 271 0 min 0,000 mm 0,0 UV-I 0 W/m 8,7 C 9,6 C 1,6 km/h (1 Bft) 97,87 %
04.09.2017 01:36 9,5 C 18,3 C 94 % 1015,7 hPa 0,0 l/m 0,2 km/h (0 Bft) W 271 0 min 0,000 mm 0,0 UV-I 0 W/m 8,6 C 9,5 C 1,6 km/h (1 Bft) 100,00 %
04.09.2017 01:38 9,5 C 18,3 C 94 % 1015,7 hPa 0,0 l/m 0,4 km/h (0 Bft) W 271 0 min 0,000 mm 0,0 UV-I 0 W/m 8,6 C 9,5 C 1,6 km/h (1 Bft) 97,87 %
04.09.2017 01:40 9,4 C 18,3 C 94 % 1015,7 hPa 0,0 l/m 0,0 km/h (0 Bft) W 271 0 min 0,000 mm 0,0 UV-I 0 W/m 8,5 C 9,4 C 0,0 km/h (0 Bft) 100,00 %
04.09.2017 01:42 9,4 C 18,3 C 94 % 1015,7 hPa 0,0 l/m 0,0 km/h (0 Bft) W 271 0 min 0,000 mm 0,0 UV-I 0 W/m 8,5 C 9,4 C 0,0 km/h (0 Bft) 100,00 %
04.09.2017 01:44 9,4 C 18,3 C 94 % 1015,7 hPa 0,0 l/m 0,0 km/h (0 Bft) W 271 0 min 0,000 mm 0,0 UV-I 0 W/m 8,5 C 9,4 C 0,0 km/h (0 Bft) 100,00 %
04.09.2017 01:46 9,3 C 18,3 C 94 % 1015,6 hPa 0,0 l/m 0,0 km/h (0 Bft) W 271 0 min 0,000 mm 0,0 UV-I 0 W/m 8,4 C 9,3 C 0,0 km/h (0 Bft) 100,00 %
04.09.2017 01:48 9,3 C 18,3 C 94 % 1015,6 hPa 0,0 l/m 0,0 km/h (0 Bft) W 271 0 min 0,000 mm 0,0 UV-I 0 W/m 8,4 C 9,3 C 0,0 km/h (0 Bft) 100,00 %
04.09.2017 01:50 9,3 C 18,3 C 94 % 1015,6 hPa 0,0 l/m 0,1 km/h (0 Bft) W 271 0 min 0,000 mm 0,0 UV-I 0 W/m 8,4 C 9,3 C 1,6 km/h (1 Bft) 100,00 %
04.09.2017 01:52 9,2 C 18,3 C 94 % 1015,6 hPa 0,0 l/m 1,8 km/h (1 Bft) W 271 0 min 0,000 mm 0,0 UV-I 0 W/m 8,3 C 9,2 C 3,2 km/h (1 Bft) 100,00 %
04.09.2017 01:54 9,2 C 18,3 C 94 % 1015,7 hPa 0,0 l/m 3,1 km/h (1 Bft) W 265 0 min 0,000 mm 0,0 UV-I 0 W/m 8,3 C 9,2 C 4,8 km/h (1 Bft) 100,00 %
04.09.2017 01:56 9,2 C 18,3 C 94 % 1015,7 hPa 0,0 l/m 3,1 km/h (1 Bft) W 265 0 min 0,000 mm 0,0 UV-I 0 W/m 8,3 C 9,2 C 4,8 km/h (1 Bft) 100,00 %
04.09.2017 01:58 9,1 C 18,3 C 94 % 1015,7 hPa 0,0 l/m 2,2 km/h (1 Bft) W 265 0 min 0,000 mm 0,0 UV-I 0 W/m 8,2 C 9,1 C 4,8 km/h (1 Bft) 97,87 %
04.09.2017 02:00 9,1 C 18,3 C 94 % 1015,7 hPa 0,0 l/m 3,0 km/h (1 Bft) W 265 0 min 0,000 mm 0,0 UV-I 0 W/m 8,2 C 9,1 C 4,8 km/h (1 Bft) 100,00 %
04.09.2017 02:02 9,1 C 18,3 C 94 % 1015,7 hPa 0,0 l/m 3,3 km/h (1 Bft) W-SW 252 0 min 0,000 mm 0,0 UV-I 0 W/m 8,2 C 9,1 C 6,4 km/h (2 Bft) 100,00 %
04.09.2017 02:04 9,1 C 18,3 C 94 % 1015,7 hPa 0,0 l/m 3,8 km/h (1 Bft) W-SW 252 0 min 0,000 mm 0,0 UV-I 0 W/m 8,2 C 9,1 C 6,4 km/h (2 Bft) 97,14 %
04.09.2017 02:06 9,1 C 18,3 C 94 % 1015,7 hPa 0,0 l/m 3,7 km/h (1 Bft) W-SW 252 0 min 0,000 mm 0,0 UV-I 0 W/m 8,2 C 9,1 C 4,8 km/h (1 Bft) 100,00 %
04.09.2017 02:08 9,0 C 18,3 C 94 % 1015,6 hPa 0,0 l/m 3,3 km/h (1 Bft) W-SW 252 0 min 0,000 mm 0,0 UV-I 0 W/m 8,1 C 9,0 C 6,4 km/h (2 Bft) 95,74 %
04.09.2017 02:10 9,0 C 18,3 C 94 % 1015,6 hPa 0,0 l/m 3,5 km/h (1 Bft) W-SW 252 0 min 0,000 mm 0,0 UV-I 0 W/m 8,1 C 9,0 C 4,8 km/h (1 Bft) 95,74 %
04.09.2017 02:12 9,0 C 18,3 C 95 % 1015,6 hPa 0,0 l/m 3,7 km/h (1 Bft) W 260 0 min 0,000 mm 0,0 UV-I 0 W/m 8,2 C 9,0 C 6,4 km/h (2 Bft) 100,00 %
04.09.2017 02:14 8,9 C 18,3 C 95 % 1015,7 hPa 0,0 l/m 2,5 km/h (1 Bft) W 260 0 min 0,000 mm 0,0 UV-I 0 W/m 8,1 C 8,9 C 4,8 km/h (1 Bft) 100,00 %
04.09.2017 02:16 8,9 C 18,3 C 95 % 1015,7 hPa 0,0 l/m 2,3 km/h (1 Bft) W 276 0 min 0,000 mm 0,0 UV-I 0 W/m 8,1 C 8,9 C 6,4 km/h (2 Bft) 100,00 %
04.09.2017 02:18 8,9 C 18,3 C 95 % 1015,7 hPa 0,0 l/m 3,0 km/h (1 Bft) W 277 0 min 0,000 mm 0,0 UV-I 0 W/m 8,1 C 8,9 C 6,4 km/h (2 Bft) 100,00 %
04.09.2017 02:20 8,9 C 18,3 C 95 % 1015,7 hPa 0,0 l/m 3,3 km/h (1 Bft) W 277 0 min 0,000 mm 0,0 UV-I 0 W/m 8,1 C 8,9 C 4,8 km/h (1 Bft) 100,00 %
04.09.2017 02:22 8,9 C 18,3 C 95 % 1015,7 hPa 0,0 l/m 2,2 km/h (1 Bft) W 277 0 min 0,000 mm 0,0 UV-I 0 W/m 8,1 C 8,9 C 4,8 km/h (1 Bft) 100,00 %
04.09.2017 02:24 8,9 C 18,3 C 95 % 1015,7 hPa 0,0 l/m 0,3 km/h (0 Bft) W 277 0 min 0,000 mm 0,0 UV-I 0 W/m 8,1 C 8,9 C 1,6 km/h (1 Bft) 100,00 %
04.09.2017 02:26 8,9 C 18,3 C 95 % 1015,7 hPa 0,0 l/m 1,2 km/h (1 Bft) W 277 0 min 0,000 mm 0,0 UV-I 0 W/m 8,1 C 8,9 C 3,2 km/h (1 Bft) 100,00 %
04.09.2017 02:28 8,9 C 18,3 C 95 % 1015,7 hPa 0,0 l/m 0,2 km/h (0 Bft) W 277 0 min 0,000 mm 0,0 UV-I 0 W/m 8,1 C 8,9 C 1,6 km/h (1 Bft) 100,00 %
04.09.2017 02:30 8,8 C 18,3 C 95 % 1015,7 hPa 0,0 l/m 0,0 km/h (0 Bft) W 277 0 min 0,000 mm 0,0 UV-I 0 W/m 8,0 C 8,8 C 0,0 km/h (0 Bft) 100,00 %
04.09.2017 02:32 8,8 C 18,3 C 95 % 1015,7 hPa 0,0 l/m 0,0 km/h (0 Bft) W 277 0 min 0,000 mm 0,0 UV-I 0 W/m 8,0 C 8,8 C 1,6 km/h (1 Bft) 100,00 %
04.09.2017 02:34 8,8 C 18,3 C 95 % 1015,8 hPa 0,0 l/m 1,8 km/h (1 Bft) W 277 0 min 0,000 mm 0,0 UV-I 0 W/m 8,0 C 8,8 C 3,2 km/h (1 Bft) 100,00 %
04.09.2017 02:36 8,8 C 18,3 C 95 % 1015,7 hPa 0,0 l/m 2,0 km/h (1 Bft) W 277 0 min 0,000 mm 0,0 UV-I 0 W/m 8,0 C 8,8 C 3,2 km/h (1 Bft) 100,00 %
04.09.2017 02:38 8,8 C 18,3 C 95 % 1015,7 hPa 0,0 l/m 0,3 km/h (0 Bft) W 277 0 min 0,000 mm 0,0 UV-I 0 W/m 8,0 C 8,8 C 1,6 km/h (1 Bft) 97,87 %
04.09.2017 02:40 8,8 C 18,3 C 95 % 1015,7 hPa 0,0 l/m 1,2 km/h (1 Bft) W 277 0 min 0,000 mm 0,0 UV-I 0 W/m 8,0 C 8,8 C 3,2 km/h (1 Bft) 100,00 %
04.09.2017 02:42 8,7 C 18,3 C 95 % 1015,7 hPa 0,0 l/m 2,0 km/h (1 Bft) W 276 0 min 0,000 mm 0,0 UV-I 0 W/m 7,9 C 8,7 C 3,2 km/h (1 Bft) 100,00 %
04.09.2017 02:44 8,7 C 18,3 C 95 % 1015,7 hPa 0,0 l/m 0,9 km/h (0 Bft) W 276 0 min 0,000 mm 0,0 UV-I 0 W/m 7,9 C 8,7 C 3,2 km/h (1 Bft) 100,00 %
04.09.2017 02:46 8,7 C 18,3 C 95 % 1015,7 hPa 0,0 l/m 0,2 km/h (0 Bft) W 277 0 min 0,000 mm 0,0 UV-I 0 W/m 7,9 C 8,7 C 1,6 km/h (1 Bft) 100,00 %
04.09.2017 02:48 8,6 C 18,3 C 95 % 1015,7 hPa 0,0 l/m 0,1 km/h (0 Bft) W 277 0 min 0,000 mm 0,0 UV-I 0 W/m 7,8 C 8,6 C 1,6 km/h (1 Bft) 97,87 %
04.09.2017 02:50 8,6 C 18,3 C 95 % 1015,7 hPa 0,2 l/m 0,0 km/h (0 Bft) W 277 0 min 0,000 mm 0,0 UV-I 0 W/m 7,8 C 8,6 C 0,0 km/h (0 Bft) 100,00 %
04.09.2017 02:52 8,5 C 18,3 C 95 % 1015,7 hPa 0,0 l/m 0,0 km/h (0 Bft) W 276 0 min 0,000 mm 0,0 UV-I 0 W/m 7,7 C 8,5 C 0,0 km/h (0 Bft) 100,00 %
04.09.2017 02:54 8,5 C 18,3 C 95 % 1015,7 hPa 0,0 l/m 0,0 km/h (0 Bft) W 277 0 min 0,000 mm 0,0 UV-I 0 W/m 7,7 C 8,5 C 0,0 km/h (0 Bft) 100,00 %
04.09.2017 02:56 8,5 C 18,3 C 95 % 1015,8 hPa 0,0 l/m 0,0 km/h (0 Bft) W 277 0 min 0,000 mm 0,0 UV-I 0 W/m 7,7 C 8,5 C 0,0 km/h (0 Bft) 100,00 %
04.09.2017 02:58 8,4 C 18,3 C 95 % 1015,8 hPa 0,0 l/m 0,0 km/h (0 Bft) W 276 0 min 0,000 mm 0,0 UV-I 0 W/m 7,6 C 8,4 C 0,0 km/h (0 Bft) 100,00 %
04.09.2017 03:00 8,4 C 18,3 C 95 % 1015,7 hPa 0,0 l/m 0,0 km/h (0 Bft) W 277 0 min 0,000 mm 0,0 UV-I 0 W/m 7,6 C 8,4 C 0,0 km/h (0 Bft) 100,00 %
04.09.2017 03:02 8,4 C 18,3 C 95 % 1015,7 hPa 0,0 l/m 0,0 km/h (0 Bft) W 277 0 min 0,000 mm 0,0 UV-I 0 W/m 7,6 C 8,4 C 0,0 km/h (0 Bft) 100,00 %
04.09.2017 03:04 8,4 C 18,3 C 95 % 1015,7 hPa 0,0 l/m 0,0 km/h (0 Bft) W 277 0 min 0,000 mm 0,0 UV-I 0 W/m 7,6 C 8,4 C 0,0 km/h (0 Bft) 98,00 %
04.09.2017 03:06 8,4 C 18,3 C 95 % 1015,7 hPa 0,0 l/m 0,0 km/h (0 Bft) W 276 0 min 0,000 mm 0,0 UV-I 0 W/m 7,6 C 8,4 C 0,0 km/h (0 Bft) 95,74 %
04.09.2017 03:08 8,4 C 18,3 C 95 % 1015,7 hPa 0,0 l/m 0,0 km/h (0 Bft) W 277 0 min 0,000 mm 0,0 UV-I 0 W/m 7,6 C 8,4 C 0,0 km/h (0 Bft) 95,74 %
04.09.2017 03:10 8,4 C 18,3 C 95 % 1015,7 hPa 0,0 l/m 0,0 km/h (0 Bft) W 277 0 min 0,000 mm 0,0 UV-I 0 W/m 7,6 C 8,4 C 0,0 km/h (0 Bft) 97,87 %
04.09.2017 03:12 8,4 C 18,3 C 95 % 1015,8 hPa 0,0 l/m 0,0 km/h (0 Bft) W 277 0 min 0,000 mm 0,0 UV-I 0 W/m 7,6 C 8,4 C 1,6 km/h (1 Bft) 95,74 %
04.09.2017 03:14 8,4 C 18,3 C 95 % 1015,8 hPa 0,0 l/m 0,1 km/h (0 Bft) W 277 0 min 0,000 mm 0,0 UV-I 0 W/m 7,6 C 8,4 C 1,6 km/h (1 Bft) 97,87 %
04.09.2017 03:16 8,4 C 18,3 C 95 % 1015,8 hPa 0,0 l/m 0,8 km/h (0 Bft) W 277 0 min 0,000 mm 0,0 UV-I 0 W/m 7,6 C 8,4 C 3,2 km/h (1 Bft) 98,00 %
04.09.2017 03:18 8,3 C 18,3 C 95 % 1015,8 hPa 0,0 l/m 0,1 km/h (0 Bft) W 277 0 min 0,000 mm 0,0 UV-I 0 W/m 7,5 C 8,3 C 1,6 km/h (1 Bft) 95,74 %
04.09.2017 03:20 8,3 C 18,3 C 95 % 1015,8 hPa 0,0 l/m 0,0 km/h (0 Bft) W 277 0 min 0,000 mm 0,0 UV-I 0 W/m 7,5 C 8,3 C 0,0 km/h (0 Bft) 96,00 %
04.09.2017 03:22 8,3 C 18,3 C 95 % 1015,8 hPa 0,0 l/m 0,4 km/h (0 Bft) W 277 0 min 0,000 mm 0,0 UV-I 0 W/m 7,5 C 8,3 C 1,6 km/h (1 Bft) 97,87 %
04.09.2017 03:24 8,2 C 18,3 C 95 % 1015,7 hPa 0,0 l/m 0,5 km/h (0 Bft) W 277 0 min 0,000 mm 0,0 UV-I 0 W/m 7,4 C 8,2 C 1,6 km/h (1 Bft) 97,87 %
04.09.2017 03:26 8,2 C 18,3 C 95 % 1015,8 hPa 0,0 l/m 0,7 km/h (0 Bft) W 276 0 min 0,000 mm 0,0 UV-I 0 W/m 7,4 C 8,2 C 3,2 km/h (1 Bft) 97,87 %
04.09.2017 03:28 8,2 C 18,3 C 95 % 1015,7 hPa 0,0 l/m 1,6 km/h (1 Bft) W 277 0 min 0,000 mm 0,0 UV-I 0 W/m 7,4 C 8,2 C 3,2 km/h (1 Bft) 97,87 %
04.09.2017 03:30 8,1 C 18,3 C 95 % 1015,7 hPa 0,0 l/m 1,3 km/h (1 Bft) W 277 0 min 0,000 mm 0,0 UV-I 0 W/m 7,3 C 8,1 C 3,2 km/h (1 Bft) 97,87 %
04.09.2017 03:32 8,1 C 18,3 C 95 % 1015,7 hPa 0,0 l/m 1,4 km/h (1 Bft) W 277 0 min 0,000 mm 0,0 UV-I 0 W/m 7,3 C 8,1 C 3,2 km/h (1 Bft) 97,37 %
04.09.2017 03:34 8,1 C 18,3 C 95 % 1015,7 hPa 0,0 l/m 1,3 km/h (1 Bft) W 275 0 min 0,000 mm 0,0 UV-I 0 W/m 7,3 C 8,1 C 3,2 km/h (1 Bft) 97,87 %
04.09.2017 03:36 8,1 C 18,3 C 95 % 1015,7 hPa 0,0 l/m 3,0 km/h (1 Bft) S-SW 204 0 min 0,000 mm 0,0 UV-I 0 W/m 7,3 C 8,1 C 4,8 km/h (1 Bft) 98,00 %
04.09.2017 03:38 8,1 C 18,3 C 95 % 1015,7 hPa 0,0 l/m 2,1 km/h (1 Bft) S-SW 204 0 min 0,000 mm 0,0 UV-I 0 W/m 7,3 C 8,1 C 3,2 km/h (1 Bft) 98,00 %
04.09.2017 03:40 8,0 C 18,3 C 95 % 1015,6 hPa 0,0 l/m 1,4 km/h (1 Bft) S-SW 204 0 min 0,000 mm 0,0 UV-I 0 W/m 7,2 C 8,0 C 4,8 km/h (1 Bft) 100,00 %
04.09.2017 03:42 8,0 C 18,3 C 95 % 1015,6 hPa 0,0 l/m 2,0 km/h (1 Bft) S-SW 204 0 min 0,000 mm 0,0 UV-I 0 W/m 7,2 C 8,0 C 3,2 km/h (1 Bft) 97,87 %
04.09.2017 03:44 7,9 C 18,3 C 95 % 1015,6 hPa 0,0 l/m 1,5 km/h (1 Bft) S-SW 204 0 min 0,000 mm 0,0 UV-I 0 W/m 7,1 C 7,9 C 3,2 km/h (1 Bft) 97,87 %
04.09.2017 03:46 7,9 C 18,3 C 95 % 1015,7 hPa 0,0 l/m 1,1 km/h (1 Bft) S-SW 204 0 min 0,000 mm 0,0 UV-I 0 W/m 7,1 C 7,9 C 3,2 km/h (1 Bft) 97,87 %
04.09.2017 03:48 7,9 C 18,3 C 95 % 1015,7 hPa 0,0 l/m 0,0 km/h (0 Bft) S-SW 204 0 min 0,000 mm 0,0 UV-I 0 W/m 7,1 C 7,9 C 0,0 km/h (0 Bft) 97,87 %
04.09.2017 03:50 7,9 C 18,3 C 95 % 1015,7 hPa 0,0 l/m 0,1 km/h (0 Bft) S-SW 204 0 min 0,000 mm 0,0 UV-I 0 W/m 7,1 C 7,9 C 1,6 km/h (1 Bft) 95,83 %
04.09.2017 03:52 7,9 C 18,3 C 95 % 1015,7 hPa 0,0 l/m 1,2 km/h (1 Bft) S-SW 204 0 min 0,000 mm 0,0 UV-I 0 W/m 7,1 C 7,9 C 3,2 km/h (1 Bft) 97,87 %
04.09.2017 03:54 7,9 C 18,3 C 95 % 1015,7 hPa 0,0 l/m 0,4 km/h (0 Bft) S-SW 204 0 min 0,000 mm 0,0 UV-I 0 W/m 7,1 C 7,9 C 1,6 km/h (1 Bft) 97,87 %
04.09.2017 03:56 7,9 C 18,3 C 95 % 1015,8 hPa 0,0 l/m 0,0 km/h (0 Bft) S-SW 204 0 min 0,000 mm 0,0 UV-I 0 W/m 7,1 C 7,9 C 0,0 km/h (0 Bft) 97,87 %
04.09.2017 03:58 7,9 C 17,8 C 95 % 1015,7 hPa 0,0 l/m 0,0 km/h (0 Bft) S-SW 204 0 min 0,000 mm 0,0 UV-I 0 W/m 7,1 C 7,9 C 0,0 km/h (0 Bft) 97,87 %
04.09.2017 04:00 7,9 C 17,8 C 95 % 1015,8 hPa 0,0 l/m 0,7 km/h (0 Bft) S-SW 204 0 min 0,000 mm 0,0 UV-I 0 W/m 7,1 C 7,9 C 1,6 km/h (1 Bft) 95,74 %
04.09.2017 04:02 7,9 C 17,8 C 95 % 1015,7 hPa 0,0 l/m 0,0 km/h (0 Bft) S-SW 204 0 min 0,000 mm 0,0 UV-I 0 W/m 7,1 C 7,9 C 0,0 km/h (0 Bft) 97,62 %
04.09.2017 04:04 7,8 C 17,8 C 95 % 1015,8 hPa 0,0 l/m 0,8 km/h (0 Bft) S-SW 204 0 min 0,000 mm 0,0 UV-I 0 W/m 7,0 C 7,8 C 3,2 km/h (1 Bft) 97,87 %
04.09.2017 04:06 7,8 C 17,8 C 95 % 1015,8 hPa 0,0 l/m 0,1 km/h (0 Bft) S-SW 204 0 min 0,000 mm 0,0 UV-I 0 W/m 7,0 C 7,8 C 1,6 km/h (1 Bft) 97,87 %
04.09.2017 04:08 7,8 C 17,8 C 95 % 1015,7 hPa 0,0 l/m 0,5 km/h (0 Bft) S-SW 204 0 min 0,000 mm 0,0 UV-I 0 W/m 7,0 C 7,8 C 1,6 km/h (1 Bft) 97,87 %
04.09.2017 04:10 7,8 C 17,8 C 95 % 1015,8 hPa 0,0 l/m 0,7 km/h (0 Bft) S-SW 204 0 min 0,000 mm 0,0 UV-I 0 W/m 7,0 C 7,8 C 1,6 km/h (1 Bft) 97,14 %
04.09.2017 04:12 7,8 C 17,8 C 95 % 1015,7 hPa 0,0 l/m 1,2 km/h (1 Bft) S-SW 204 0 min 0,000 mm 0,0 UV-I 0 W/m 7,0 C 7,8 C 3,2 km/h (1 Bft) 96,00 %
04.09.2017 04:14 7,7 C 17,8 C 96 % 1015,7 hPa 0,0 l/m 0,6 km/h (0 Bft) S-SW 204 0 min 0,000 mm 0,0 UV-I 0 W/m 7,1 C 7,7 C 1,6 km/h (1 Bft) 93,62 %
04.09.2017 04:16 7,7 C 17,8 C 96 % 1015,7 hPa 0,0 l/m 0,2 km/h (0 Bft) S-SW 204 0 min 0,000 mm 0,0 UV-I 0 W/m 7,1 C 7,7 C 1,6 km/h (1 Bft) 91,49 %
04.09.2017 04:18 7,7 C 17,8 C 95 % 1015,7 hPa 0,0 l/m 0,7 km/h (0 Bft) S-SW 204 0 min 0,000 mm 0,0 UV-I 0 W/m 7,0 C 7,7 C 1,6 km/h (1 Bft) 95,74 %
04.09.2017 04:20 7,7 C 17,8 C 95 % 1015,7 hPa 0,0 l/m 1,0 km/h (0 Bft) S-SW 204 0 min 0,000 mm 0,0 UV-I 0 W/m 7,0 C 7,7 C 3,2 km/h (1 Bft) 95,74 %
04.09.2017 04:22 7,8 C 17,8 C 95 % 1015,7 hPa 0,0 l/m 1,0 km/h (0 Bft) S-SW 204 0 min 0,000 mm 0,0 UV-I 0 W/m 7,0 C 7,8 C 1,6 km/h (1 Bft) 95,74 %
04.09.2017 04:24 7,7 C 17,8 C 95 % 1015,7 hPa 0,0 l/m 2,2 km/h (1 Bft) S-SW 204 0 min 0,000 mm 0,0 UV-I 0 W/m 7,0 C 7,7 C 3,2 km/h (1 Bft) 97,87 %
04.09.2017 04:26 7,7 C 17,8 C 95 % 1015,7 hPa 0,0 l/m 2,1 km/h (1 Bft) S-SW 204 0 min 0,000 mm 0,0 UV-I 0 W/m 7,0 C 7,7 C 4,8 km/h (1 Bft) 95,83 %
04.09.2017 04:28 7,7 C 17,8 C 95 % 1015,7 hPa 0,0 l/m 2,4 km/h (1 Bft) S-SW 204 0 min 0,000 mm 0,0 UV-I 0 W/m 7,0 C 7,7 C 3,2 km/h (1 Bft) 98,00 %
04.09.2017 04:30 7,7 C 17,8 C 95 % 1015,7 hPa 0,0 l/m 2,2 km/h (1 Bft) S-SW 204 0 min 0,000 mm 0,0 UV-I 0 W/m 7,0 C 7,7 C 3,2 km/h (1 Bft) 95,74 %
04.09.2017 04:32 7,7 C 17,8 C 95 % 1015,7 hPa 0,0 l/m 2,2 km/h (1 Bft) S-SW 204 0 min 0,000 mm 0,0 UV-I 0 W/m 7,0 C 7,7 C 3,2 km/h (1 Bft) 98,00 %
04.09.2017 04:34 7,7 C 17,8 C 96 % 1015,7 hPa 0,0 l/m 2,5 km/h (1 Bft) S-SW 204 0 min 0,000 mm 0,0 UV-I 0 W/m 7,1 C 7,7 C 4,8 km/h (1 Bft) 97,87 %
04.09.2017 04:36 7,6 C 17,8 C 96 % 1015,7 hPa 0,0 l/m 3,7 km/h (1 Bft) S-SW 204 0 min 0,000 mm 0,0 UV-I 0 W/m 7,0 C 7,6 C 6,4 km/h (2 Bft) 100,00 %
04.09.2017 04:38 7,6 C 17,8 C 96 % 1015,7 hPa 0,0 l/m 3,4 km/h (1 Bft) S-SW 204 0 min 0,000 mm 0,0 UV-I 0 W/m 7,0 C 7,6 C 4,8 km/h (1 Bft) 100,00 %
04.09.2017 04:40 7,6 C 17,8 C 96 % 1015,7 hPa 0,0 l/m 1,8 km/h (1 Bft) S-SW 204 0 min 0,000 mm 0,0 UV-I 0 W/m 7,0 C 7,6 C 3,2 km/h (1 Bft) 95,74 %
04.09.2017 04:42 7,6 C 17,8 C 96 % 1015,7 hPa 0,0 l/m 2,2 km/h (1 Bft) S-SW 204 0 min 0,000 mm 0,0 UV-I 0 W/m 7,0 C 7,6 C 3,2 km/h (1 Bft) 95,74 %
04.09.2017 04:44 7,6 C 17,8 C 96 % 1015,7 hPa 0,0 l/m 2,2 km/h (1 Bft) S-SW 204 0 min 0,000 mm 0,0 UV-I 0 W/m 7,0 C 7,6 C 3,2 km/h (1 Bft) 96,00 %
04.09.2017 04:46 7,6 C 17,8 C 96 % 1015,7 hPa 0,0 l/m 2,4 km/h (1 Bft) S-SW 204 0 min 0,000 mm 0,0 UV-I 0 W/m 7,0 C 7,6 C 4,8 km/h (1 Bft) 97,87 %
04.09.2017 04:48 7,6 C 17,8 C 96 % 1015,7 hPa 0,0 l/m 1,3 km/h (1 Bft) S-SW 204 0 min 0,000 mm 0,0 UV-I 0 W/m 7,0 C 7,6 C 3,2 km/h (1 Bft) 97,87 %
04.09.2017 04:50 7,6 C 17,8 C 96 % 1015,7 hPa 0,0 l/m 1,1 km/h (1 Bft) S-SW 204 0 min 0,000 mm 0,0 UV-I 0 W/m 7,0 C 7,6 C 3,2 km/h (1 Bft) 100,00 %
04.09.2017 04:52 7,6 C 17,8 C 96 % 1015,7 hPa 0,0 l/m 1,9 km/h (1 Bft) S-SW 204 0 min 0,000 mm 0,0 UV-I 0 W/m 7,0 C 7,6 C 3,2 km/h (1 Bft) 95,74 %
04.09.2017 04:54 7,6 C 17,8 C 96 % 1015,7 hPa 0,0 l/m 0,5 km/h (0 Bft) S-SW 204 0 min 0,000 mm 0,0 UV-I 0 W/m 7,0 C 7,6 C 1,6 km/h (1 Bft) 100,00 %
04.09.2017 04:56 7,6 C 17,8 C 96 % 1015,7 hPa 0,0 l/m 0,9 km/h (0 Bft) S-SW 204 0 min 0,000 mm 0,0 UV-I 0 W/m 7,0 C 7,6 C 3,2 km/h (1 Bft) 100,00 %
04.09.2017 04:58 7,6 C 17,8 C 96 % 1015,7 hPa 0,0 l/m 0,1 km/h (0 Bft) S-SW 204 0 min 0,000 mm 0,0 UV-I 0 W/m 7,0 C 7,6 C 1,6 km/h (1 Bft) 97,87 %
04.09.2017 05:00 7,6 C 17,8 C 96 % 1015,7 hPa 0,0 l/m 1,0 km/h (0 Bft) S-SW 204 0 min 0,000 mm 0,0 UV-I 0 W/m 7,0 C 7,6 C 3,2 km/h (1 Bft) 97,87 %
04.09.2017 05:02 7,5 C 17,8 C 96 % 1015,6 hPa 0,0 l/m 2,6 km/h (1 Bft) S-SW 204 0 min 0,000 mm 0,0 UV-I 0 W/m 6,9 C 7,5 C 4,8 km/h (1 Bft) 100,00 %
04.09.2017 05:04 7,5 C 17,8 C 96 % 1015,7 hPa 0,0 l/m 1,9 km/h (1 Bft) S-SW 204 0 min 0,000 mm 0,0 UV-I 0 W/m 6,9 C 7,5 C 3,2 km/h (1 Bft) 98,00 %
04.09.2017 05:06 7,5 C 17,8 C 96 % 1015,7 hPa 0,0 l/m 2,5 km/h (1 Bft) S-SW 204 0 min 0,000 mm 0,0 UV-I 0 W/m 6,9 C 7,5 C 3,2 km/h (1 Bft) 100,00 %
04.09.2017 05:08 7,5 C 17,8 C 96 % 1015,6 hPa 0,0 l/m 2,6 km/h (1 Bft) S-SW 204 0 min 0,000 mm 0,0 UV-I 0 W/m 6,9 C 7,5 C 3,2 km/h (1 Bft) 97,87 %
04.09.2017 05:10 7,6 C 17,8 C 96 % 1015,6 hPa 0,0 l/m 2,1 km/h (1 Bft) S-SW 204 0 min 0,000 mm 0,0 UV-I 0 W/m 7,0 C 7,6 C 4,8 km/h (1 Bft) 95,83 %
04.09.2017 05:12 7,5 C 17,8 C 96 % 1015,6 hPa 0,0 l/m 1,7 km/h (1 Bft) S-SW 204 0 min 0,000 mm 0,0 UV-I 0 W/m 6,9 C 7,5 C 4,8 km/h (1 Bft) 95,74 %
04.09.2017 05:14 7,5 C 17,8 C 96 % 1015,6 hPa 0,0 l/m 1,6 km/h (1 Bft) S-SW 204 0 min 0,000 mm 0,0 UV-I 0 W/m 6,9 C 7,5 C 3,2 km/h (1 Bft) 93,62 %
04.09.2017 05:16 7,6 C 17,8 C 96 % 1015,6 hPa 0,0 l/m 1,0 km/h (0 Bft) S-SW 204 0 min 0,000 mm 0,0 UV-I 0 W/m 7,0 C 7,6 C 3,2 km/h (1 Bft) 97,87 %
04.09.2017 05:18 7,5 C 17,8 C 96 % 1015,6 hPa 0,0 l/m 1,2 km/h (1 Bft) S-SW 204 0 min 0,000 mm 0,0 UV-I 0 W/m 6,9 C 7,5 C 3,2 km/h (1 Bft) 97,87 %
04.09.2017 05:20 7,5 C 17,8 C 96 % 1015,6 hPa 0,0 l/m 0,0 km/h (0 Bft) S-SW 204 0 min 0,000 mm 0,0 UV-I 0 W/m 6,9 C 7,5 C 0,0 km/h (0 Bft) 95,74 %
04.09.2017 05:22 7,5 C 17,8 C 96 % 1015,6 hPa 0,0 l/m 0,0 km/h (0 Bft) S-SW 204 0 min 0,000 mm 0,0 UV-I 0 W/m 6,9 C 7,5 C 0,0 km/h (0 Bft) 95,65 %
04.09.2017 05:24 7,5 C 17,8 C 96 % 1015,6 hPa 0,0 l/m 0,1 km/h (0 Bft) S-SW 204 0 min 0,000 mm 0,0 UV-I 0 W/m 6,9 C 7,5 C 1,6 km/h (1 Bft) 97,87 %
04.09.2017 05:26 7,4 C 17,8 C 96 % 1015,6 hPa 0,0 l/m 0,8 km/h (0 Bft) S-SW 204 0 min 0,000 mm 0,0 UV-I 0 W/m 6,8 C 7,4 C 3,2 km/h (1 Bft) 97,87 %
04.09.2017 05:28 7,4 C 17,8 C 96 % 1015,7 hPa 0,0 l/m 1,2 km/h (1 Bft) S-SW 204 0 min 0,000 mm 0,0 UV-I 0 W/m 6,8 C 7,4 C 3,2 km/h (1 Bft) 97,37 %
04.09.2017 05:30 7,4 C 17,8 C 96 % 1015,7 hPa 0,0 l/m 1,2 km/h (1 Bft) S-SW 204 0 min 0,000 mm 0,0 UV-I 0 W/m 6,8 C 7,4 C 3,2 km/h (1 Bft) 97,87 %
04.09.2017 05:32 7,4 C 17,8 C 96 % 1015,6 hPa 0,0 l/m 0,1 km/h (0 Bft) S-SW 204 0 min 0,000 mm 0,0 UV-I 0 W/m 6,8 C 7,4 C 1,6 km/h (1 Bft) 95,74 %
04.09.2017 05:34 7,4 C 17,8 C 96 % 1015,6 hPa 0,0 l/m 0,2 km/h (0 Bft) S-SW 204 0 min 0,000 mm 0,0 UV-I 0 W/m 6,8 C 7,4 C 1,6 km/h (1 Bft) 95,74 %
04.09.2017 05:36 7,4 C 17,8 C 96 % 1015,7 hPa 0,0 l/m 0,5 km/h (0 Bft) S-SW 204 0 min 0,000 mm 0,0 UV-I 0 W/m 6,8 C 7,4 C 1,6 km/h (1 Bft) 100,00 %
04.09.2017 05:38 7,4 C 17,8 C 96 % 1015,6 hPa 0,0 l/m 0,4 km/h (0 Bft) S-SW 204 0 min 0,000 mm 0,0 UV-I 0 W/m 6,8 C 7,4 C 1,6 km/h (1 Bft) 95,74 %
04.09.2017 05:40 7,4 C 17,8 C 96 % 1015,6 hPa 0,0 l/m 1,9 km/h (1 Bft) S-SW 204 0 min 0,000 mm 0,0 UV-I 0 W/m 6,8 C 7,4 C 3,2 km/h (1 Bft) 95,83 %
04.09.2017 05:42 7,3 C 17,8 C 96 % 1015,7 hPa 0,0 l/m 0,5 km/h (0 Bft) S-SW 204 0 min 0,000 mm 0,0 UV-I 0 W/m 6,7 C 7,3 C 3,2 km/h (1 Bft) 95,74 %
04.09.2017 05:44 7,3 C 17,8 C 96 % 1015,6 hPa 0,0 l/m 1,0 km/h (0 Bft) S-SW 204 0 min 0,000 mm 0,0 UV-I 0 W/m 6,7 C 7,3 C 3,2 km/h (1 Bft) 97,87 %
04.09.2017 05:46 7,3 C 17,8 C 96 % 1015,6 hPa 0,0 l/m 0,4 km/h (0 Bft) S-SW 204 0 min 0,000 mm 0,0 UV-I 0 W/m 6,7 C 7,3 C 1,6 km/h (1 Bft) 97,87 %
04.09.2017 05:48 7,3 C 17,8 C 96 % 1015,7 hPa 0,0 l/m 0,4 km/h (0 Bft) S-SW 204 0 min 0,000 mm 0,0 UV-I 0 W/m 6,7 C 7,3 C 1,6 km/h (1 Bft) 97,92 %
04.09.2017 05:50 7,3 C 17,8 C 96 % 1015,6 hPa 0,0 l/m 0,5 km/h (0 Bft) S-SW 204 0 min 0,000 mm 0,0 UV-I 0 W/m 6,7 C 7,3 C 1,6 km/h (1 Bft) 100,00 %
04.09.2017 05:52 7,3 C 17,8 C 96 % 1015,7 hPa 0,0 l/m 0,0 km/h (0 Bft) S-SW 204 0 min 0,000 mm 0,0 UV-I 0 W/m 6,7 C 7,3 C 0,0 km/h (0 Bft) 97,37 %
04.09.2017 05:54 7,3 C 17,8 C 96 % 1015,8 hPa 0,0 l/m 0,0 km/h (0 Bft) S-SW 204 0 min 0,000 mm 0,0 UV-I 0 W/m 6,7 C 7,3 C 0,0 km/h (0 Bft) 100,00 %
04.09.2017 05:56 7,3 C 17,8 C 96 % 1015,8 hPa 0,0 l/m 0,0 km/h (0 Bft) S-SW 204 0 min 0,000 mm 0,0 UV-I 0 W/m 6,7 C 7,3 C 0,0 km/h (0 Bft) 97,87 %
04.09.2017 05:58 7,3 C 17,8 C 96 % 1015,7 hPa 0,0 l/m 0,0 km/h (0 Bft) S-SW 204 0 min 0,000 mm 0,0 UV-I 0 W/m 6,7 C 7,3 C 0,0 km/h (0 Bft) 100,00 %
04.09.2017 06:00 7,3 C 17,8 C 96 % 1015,7 hPa 0,0 l/m 0,0 km/h (0 Bft) S-SW 204 0 min 0,000 mm 0,0 UV-I 0 W/m 6,7 C 7,3 C 0,0 km/h (0 Bft) 100,00 %
04.09.2017 06:02 7,3 C 17,8 C 96 % 1015,7 hPa 0,0 l/m 0,0 km/h (0 Bft) S-SW 204 0 min 0,000 mm 0,0 UV-I 0 W/m 6,7 C 7,3 C 0,0 km/h (0 Bft) 100,00 %
04.09.2017 06:04 7,3 C 17,8 C 96 % 1015,8 hPa 0,0 l/m 0,0 km/h (0 Bft) S-SW 204 0 min 0,000 mm 0,0 UV-I 0 W/m 6,7 C 7,3 C 0,0 km/h (0 Bft) 100,00 %
04.09.2017 06:06 7,3 C 17,8 C 96 % 1015,8 hPa 0,0 l/m 0,0 km/h (0 Bft) S-SW 204 0 min 0,000 mm 0,0 UV-I 0 W/m 6,7 C 7,3 C 0,0 km/h (0 Bft) 97,87 %
04.09.2017 06:08 7,2 C 17,8 C 96 % 1015,8 hPa 0,0 l/m 0,0 km/h (0 Bft) S-SW 204 0 min 0,000 mm 0,0 UV-I 0 W/m 6,6 C 7,2 C 0,0 km/h (0 Bft) 100,00 %
04.09.2017 06:10 7,2 C 17,8 C 96 % 1015,8 hPa 0,0 l/m 0,0 km/h (0 Bft) S-SW 204 0 min 0,000 mm 0,0 UV-I 0 W/m 6,6 C 7,2 C 0,0 km/h (0 Bft) 100,00 %
04.09.2017 06:12 7,2 C 17,8 C 96 % 1015,8 hPa 0,0 l/m 0,0 km/h (0 Bft) S-SW 204 0 min 0,000 mm 0,0 UV-I 0 W/m 6,6 C 7,2 C 0,0 km/h (0 Bft) 95,74 %
04.09.2017 06:14 7,2 C 17,8 C 96 % 1015,9 hPa 0,0 l/m 0,0 km/h (0 Bft) S-SW 204 0 min 0,000 mm 0,0 UV-I 4 W/m 6,6 C 7,2 C 0,0 km/h (0 Bft) 97,87 %
04.09.2017 06:16 7,2 C 17,8 C 96 % 1015,9 hPa 0,0 l/m 0,0 km/h (0 Bft) S-SW 204 0 min 0,000 mm 0,0 UV-I 5 W/m 6,6 C 7,2 C 0,0 km/h (0 Bft) 100,00 %
04.09.2017 06:18 7,2 C 17,8 C 96 % 1015,9 hPa 0,0 l/m 1,4 km/h (1 Bft) S-SW 204 0 min 0,000 mm 0,0 UV-I 5 W/m 6,6 C 7,2 C 3,2 km/h (1 Bft) 100,00 %
04.09.2017 06:20 7,2 C 17,8 C 96 % 1015,9 hPa 0,0 l/m 2,5 km/h (1 Bft) S-SW 204 0 min 0,000 mm 0,0 UV-I 5 W/m 6,6 C 7,2 C 4,8 km/h (1 Bft) 100,00 %
04.09.2017 06:22 7,2 C 17,8 C 96 % 1015,9 hPa 0,0 l/m 1,3 km/h (1 Bft) S-SW 204 0 min 0,000 mm 0,0 UV-I 7 W/m 6,6 C 7,2 C 3,2 km/h (1 Bft) 100,00 %
04.09.2017 06:24 7,1 C 17,8 C 96 % 1015,9 hPa 0,0 l/m 0,0 km/h (0 Bft) S-SW 204 0 min 0,000 mm 0,0 UV-I 7 W/m 6,5 C 7,1 C 1,6 km/h (1 Bft) 97,92 %
04.09.2017 06:26 7,1 C 17,8 C 96 % 1015,9 hPa 0,0 l/m 1,0 km/h (0 Bft) S-SW 204 0 min 0,000 mm 0,0 UV-I 8 W/m 6,5 C 7,1 C 1,6 km/h (1 Bft) 100,00 %
04.09.2017 06:28 7,1 C 17,8 C 96 % 1015,9 hPa 0,0 l/m 1,9 km/h (1 Bft) S-SW 204 0 min 0,000 mm 0,0 UV-I 9 W/m 6,5 C 7,1 C 3,2 km/h (1 Bft) 97,92 %
04.09.2017 06:30 7,1 C 17,8 C 96 % 1016,0 hPa 0,0 l/m 0,6 km/h (0 Bft) S-SW 204 0 min 0,000 mm 0,0 UV-I 11 W/m 6,5 C 7,1 C 1,6 km/h (1 Bft) 100,00 %
04.09.2017 06:32 7,0 C 17,8 C 96 % 1015,9 hPa 0,0 l/m 0,0 km/h (0 Bft) S-SW 204 0 min 0,000 mm 0,0 UV-I 11 W/m 6,4 C 7,0 C 0,0 km/h (0 Bft) 100,00 %
04.09.2017 06:34 7,0 C 17,8 C 96 % 1016,0 hPa 0,0 l/m 0,0 km/h (0 Bft) S-SW 204 0 min 0,000 mm 0,0 UV-I 12 W/m 6,4 C 7,0 C 0,0 km/h (0 Bft) 97,87 %
04.09.2017 06:36 7,0 C 17,8 C 96 % 1015,9 hPa 0,0 l/m 0,0 km/h (0 Bft) S-SW 204 2 min 0,000 mm 0,0 UV-I 16 W/m 6,4 C 7,0 C 0,0 km/h (0 Bft) 97,87 %
04.09.2017 06:38 6,9 C 17,8 C 96 % 1015,9 hPa 0,0 l/m 0,0 km/h (0 Bft) S-SW 204 2 min 0,000 mm 0,0 UV-I 17 W/m 6,3 C 6,9 C 0,0 km/h (0 Bft) 100,00 %
04.09.2017 06:40 6,9 C 17,8 C 96 % 1015,9 hPa 0,0 l/m 0,0 km/h (0 Bft) S-SW 204 2 min 0,000 mm 0,0 UV-I 19 W/m 6,3 C 6,9 C 0,0 km/h (0 Bft) 93,62 %
04.09.2017 06:42 6,9 C 17,8 C 96 % 1015,9 hPa 0,0 l/m 0,0 km/h (0 Bft) S-SW 204 2 min 0,000 mm 0,0 UV-I 21 W/m 6,3 C 6,9 C 0,0 km/h (0 Bft) 97,87 %
04.09.2017 06:44 6,9 C 17,8 C 96 % 1015,9 hPa 0,0 l/m 0,0 km/h (0 Bft) S-SW 204 2 min 0,000 mm 0,0 UV-I 22 W/m 6,3 C 6,9 C 0,0 km/h (0 Bft) 95,74 %
04.09.2017 06:46 6,9 C 17,8 C 96 % 1015,9 hPa 0,0 l/m 0,0 km/h (0 Bft) S-SW 204 0 min 0,000 mm 0,0 UV-I 23 W/m 6,3 C 6,9 C 0,0 km/h (0 Bft) 93,62 %
04.09.2017 06:48 6,8 C 17,8 C 96 % 1015,9 hPa 0,0 l/m 0,0 km/h (0 Bft) S-SW 204 0 min 0,000 mm 0,0 UV-I 24 W/m 6,2 C 6,8 C 0,0 km/h (0 Bft) 97,92 %
04.09.2017 06:50 6,8 C 17,8 C 96 % 1015,9 hPa 0,0 l/m 0,0 km/h (0 Bft) S-SW 204 2 min 0,000 mm 0,0 UV-I 33 W/m 6,2 C 6,8 C 0,0 km/h (0 Bft) 97,87 %
04.09.2017 06:52 6,8 C 17,8 C 96 % 1015,9 hPa 0,0 l/m 0,0 km/h (0 Bft) S-SW 204 2 min 0,000 mm 0,0 UV-I 40 W/m 6,2 C 6,8 C 0,0 km/h (0 Bft) 95,74 %
04.09.2017 06:54 6,8 C 17,8 C 96 % 1015,9 hPa 0,0 l/m 0,0 km/h (0 Bft) S-SW 204 2 min 0,000 mm 0,0 UV-I 43 W/m 6,2 C 6,8 C 0,0 km/h (0 Bft) 97,87 %
04.09.2017 06:56 6,8 C 17,8 C 96 % 1015,9 hPa 0,0 l/m 0,0 km/h (0 Bft) S-SW 204 2 min 0,000 mm 0,0 UV-I 47 W/m 6,2 C 6,8 C 0,0 km/h (0 Bft) 97,87 %
04.09.2017 06:58 6,8 C 17,8 C 96 % 1015,9 hPa 0,0 l/m 0,0 km/h (0 Bft) S-SW 204 2 min 0,000 mm 0,0 UV-I 50 W/m 6,2 C 6,8 C 0,0 km/h (0 Bft) 95,74 %
04.09.2017 07:00 6,8 C 17,8 C 96 % 1015,9 hPa 0,0 l/m 0,0 km/h (0 Bft) S-SW 204 2 min 0,000 mm 0,0 UV-I 54 W/m 6,2 C 6,8 C 1,6 km/h (1 Bft) 97,87 %
04.09.2017 07:02 6,8 C 17,8 C 96 % 1015,9 hPa 0,0 l/m 0,1 km/h (0 Bft) S-SW 204 2 min 0,000 mm 0,0 UV-I 59 W/m 6,2 C 6,8 C 1,6 km/h (1 Bft) 97,22 %
04.09.2017 07:04 6,8 C 17,8 C 96 % 1015,9 hPa 0,0 l/m 0,8 km/h (0 Bft) S-SW 204 2 min 0,000 mm 0,0 UV-I 65 W/m 6,2 C 6,8 C 3,2 km/h (1 Bft) 96,72 %
04.09.2017 07:06 6,8 C 17,8 C 96 % 1015,9 hPa 0,0 l/m 2,0 km/h (1 Bft) S-SW 204 2 min 0,000 mm 0,0 UV-I 70 W/m 6,2 C 6,8 C 3,2 km/h (1 Bft) 95,83 %
04.09.2017 07:08 6,8 C 17,8 C 96 % 1015,9 hPa 0,0 l/m 1,6 km/h (1 Bft) S-SW 204 2 min 0,000 mm 0,0 UV-I 75 W/m 6,2 C 6,8 C 3,2 km/h (1 Bft) 94,74 %
04.09.2017 07:10 6,8 C 17,8 C 96 % 1015,9 hPa 0,0 l/m 1,5 km/h (1 Bft) S-SW 204 2 min 0,000 mm 0,0 UV-I 79 W/m 6,2 C 6,8 C 3,2 km/h (1 Bft) 97,87 %
04.09.2017 07:12 6,8 C 17,8 C 96 % 1015,9 hPa 0,0 l/m 2,0 km/h (1 Bft) S-SW 204 2 min 0,000 mm 0,0 UV-I 85 W/m 6,2 C 6,8 C 3,2 km/h (1 Bft) 98,00 %
04.09.2017 07:14 6,8 C 17,8 C 96 % 1015,9 hPa 0,0 l/m 2,0 km/h (1 Bft) S-SW 204 2 min 0,000 mm 0,0 UV-I 89 W/m 6,2 C 6,8 C 3,2 km/h (1 Bft) 96,00 %
04.09.2017 07:16 6,8 C 17,8 C 96 % 1015,9 hPa 0,0 l/m 0,9 km/h (0 Bft) S-SW 204 2 min 0,000 mm 0,0 UV-I 93 W/m 6,2 C 6,8 C 1,6 km/h (1 Bft) 94,00 %
04.09.2017 07:18 6,8 C 17,8 C 96 % 1016,0 hPa 0,0 l/m 0,2 km/h (0 Bft) S-SW 204 2 min 0,000 mm 0,0 UV-I 97 W/m 6,2 C 6,8 C 1,6 km/h (1 Bft) 91,49 %
04.09.2017 07:20 6,9 C 17,8 C 96 % 1016,0 hPa 0,0 l/m 0,9 km/h (0 Bft) S-SW 204 2 min 0,000 mm 0,0 UV-I 101 W/m 6,3 C 6,9 C 1,6 km/h (1 Bft) 95,74 %
04.09.2017 07:22 6,9 C 17,8 C 96 % 1016,0 hPa 0,0 l/m 0,1 km/h (0 Bft) S-SW 204 2 min 0,000 mm 0,0 UV-I 107 W/m 6,3 C 6,9 C 1,6 km/h (1 Bft) 95,74 %
04.09.2017 07:24 6,9 C 17,8 C 97 % 1016,0 hPa 0,0 l/m 0,0 km/h (0 Bft) S-SW 204 2 min 0,000 mm 0,0 UV-I 112 W/m 6,5 C 6,9 C 0,0 km/h (0 Bft) 93,62 %
04.09.2017 07:26 7,2 C 17,8 C 97 % 1016,1 hPa 0,0 l/m 0,0 km/h (0 Bft) S-SW 204 2 min 0,000 mm 0,0 UV-I 115 W/m 6,8 C 7,2 C 0,0 km/h (0 Bft) 95,74 %
04.09.2017 07:28 7,3 C 17,8 C 97 % 1016,1 hPa 0,0 l/m 0,0 km/h (0 Bft) S-SW 204 2 min 0,000 mm 0,0 UV-I 120 W/m 6,9 C 7,3 C 0,0 km/h (0 Bft) 94,74 %
04.09.2017 07:30 7,3 C 17,8 C 97 % 1016,0 hPa 0,0 l/m 0,0 km/h (0 Bft) S-SW 204 2 min 0,000 mm 0,0 UV-I 127 W/m 6,9 C 7,3 C 0,0 km/h (0 Bft) 97,87 %
04.09.2017 07:32 7,4 C 17,8 C 97 % 1016,1 hPa 0,0 l/m 0,0 km/h (0 Bft) S-SW 204 2 min 0,000 mm 0,0 UV-I 134 W/m 7,0 C 7,4 C 0,0 km/h (0 Bft) 95,74 %
04.09.2017 07:34 7,6 C 17,8 C 97 % 1016,1 hPa 0,0 l/m 0,0 km/h (0 Bft) S-SW 204 2 min 0,000 mm 0,0 UV-I 139 W/m 7,2 C 7,6 C 0,0 km/h (0 Bft) 97,87 %
04.09.2017 07:36 7,7 C 17,8 C 97 % 1016,1 hPa 0,0 l/m 0,0 km/h (0 Bft) S-SW 204 2 min 0,000 mm 0,0 UV-I 144 W/m 7,3 C 7,7 C 0,0 km/h (0 Bft) 97,87 %
04.09.2017 07:38 7,8 C 17,8 C 97 % 1016,1 hPa 0,0 l/m 0,0 km/h (0 Bft) S-SW 204 2 min 0,000 mm 0,0 UV-I 150 W/m 7,4 C 7,8 C 1,6 km/h (1 Bft) 95,74 %
04.09.2017 07:40 7,8 C 17,8 C 97 % 1016,1 hPa 0,0 l/m 0,0 km/h (0 Bft) S-SW 204 2 min 0,000 mm 0,0 UV-I 154 W/m 7,4 C 7,8 C 0,0 km/h (0 Bft) 93,62 %
04.09.2017 07:42 7,8 C 17,8 C 97 % 1016,1 hPa 0,0 l/m 0,0 km/h (0 Bft) S-SW 204 2 min 0,000 mm 0,0 UV-I 161 W/m 7,4 C 7,8 C 0,0 km/h (0 Bft) 95,83 %
04.09.2017 07:44 7,9 C 17,8 C 97 % 1016,1 hPa 0,0 l/m 0,0 km/h (0 Bft) S-SW 204 2 min 0,000 mm 0,0 UV-I 164 W/m 7,5 C 7,9 C 0,0 km/h (0 Bft) 93,62 %
04.09.2017 07:46 8,0 C 17,8 C 97 % 1016,1 hPa 0,0 l/m 0,0 km/h (0 Bft) S-SW 204 2 min 0,000 mm 0,0 UV-I 171 W/m 7,6 C 8,0 C 0,0 km/h (0 Bft) 97,87 %
04.09.2017 07:48 8,2 C 17,8 C 97 % 1016,1 hPa 0,0 l/m 0,0 km/h (0 Bft) S-SW 204 2 min 0,000 mm 0,0 UV-I 175 W/m 7,8 C 8,2 C 0,0 km/h (0 Bft) 97,87 %
04.09.2017 07:50 8,2 C 17,8 C 97 % 1016,2 hPa 0,0 l/m 0,0 km/h (0 Bft) S-SW 204 2 min 0,000 mm 0,0 UV-I 181 W/m 7,8 C 8,2 C 0,0 km/h (0 Bft) 97,87 %
04.09.2017 07:52 8,3 C 17,8 C 97 % 1016,2 hPa 0,0 l/m 0,0 km/h (0 Bft) S-SW 204 2 min 0,000 mm 0,0 UV-I 186 W/m 7,9 C 8,3 C 0,0 km/h (0 Bft) 95,74 %
04.09.2017 07:54 8,4 C 17,8 C 97 % 1016,2 hPa 0,0 l/m 0,1 km/h (0 Bft) S-SW 204 2 min 0,000 mm 0,0 UV-I 191 W/m 8,0 C 8,4 C 1,6 km/h (1 Bft) 97,87 %
04.09.2017 07:56 8,4 C 17,8 C 97 % 1016,2 hPa 0,0 l/m 0,5 km/h (0 Bft) S-SW 204 2 min 0,000 mm 0,0 UV-I 195 W/m 8,0 C 8,4 C 3,2 km/h (1 Bft) 97,87 %
04.09.2017 07:58 8,5 C 17,8 C 97 % 1016,2 hPa 0,0 l/m 1,8 km/h (1 Bft) S-SW 204 2 min 0,000 mm 0,0 UV-I 200 W/m 8,1 C 8,5 C 3,2 km/h (1 Bft) 97,87 %
04.09.2017 08:00 8,6 C 17,8 C 97 % 1016,2 hPa 0,0 l/m 1,7 km/h (1 Bft) S-SW 204 2 min 0,051 mm 0,0 UV-I 205 W/m 8,2 C 8,6 C 3,2 km/h (1 Bft) 95,74 %
04.09.2017 08:02 8,6 C 17,8 C 97 % 1016,2 hPa 0,0 l/m 2,0 km/h (1 Bft) S-SW 204 2 min 0,000 mm 0,0 UV-I 210 W/m 8,2 C 8,6 C 3,2 km/h (1 Bft) 95,74 %
04.09.2017 08:04 8,6 C 17,8 C 97 % 1016,2 hPa 0,0 l/m 1,9 km/h (1 Bft) S-SW 204 2 min 0,000 mm 0,0 UV-I 216 W/m 8,2 C 8,6 C 3,2 km/h (1 Bft) 100,00 %
04.09.2017 08:06 8,7 C 17,8 C 97 % 1016,3 hPa 0,0 l/m 0,9 km/h (0 Bft) S-SW 204 2 min 0,000 mm 0,0 UV-I 221 W/m 8,3 C 8,7 C 1,6 km/h (1 Bft) 97,87 %
04.09.2017 08:08 8,8 C 17,8 C 97 % 1016,2 hPa 0,0 l/m 1,3 km/h (1 Bft) S-SW 204 2 min 0,000 mm 0,0 UV-I 227 W/m 8,4 C 8,8 C 3,2 km/h (1 Bft) 100,00 %
04.09.2017 08:10 8,9 C 17,8 C 97 % 1016,2 hPa 0,0 l/m 1,5 km/h (1 Bft) S-SW 204 2 min 0,000 mm 0,0 UV-I 231 W/m 8,4 C 8,9 C 3,2 km/h (1 Bft) 100,00 %
04.09.2017 08:12 9,0 C 17,8 C 97 % 1016,2 hPa 0,0 l/m 1,3 km/h (1 Bft) S-SW 204 2 min 0,000 mm 0,0 UV-I 236 W/m 8,5 C 9,0 C 1,6 km/h (1 Bft) 100,00 %
04.09.2017 08:14 9,1 C 17,8 C 97 % 1016,2 hPa 0,0 l/m 2,1 km/h (1 Bft) S-SW 204 2 min 0,000 mm 0,0 UV-I 241 W/m 8,6 C 9,1 C 3,2 km/h (1 Bft) 100,00 %
04.09.2017 08:16 9,1 C 17,8 C 97 % 1016,2 hPa 0,0 l/m 2,3 km/h (1 Bft) S-SW 204 2 min 0,000 mm 0,0 UV-I 245 W/m 8,6 C 9,1 C 3,2 km/h (1 Bft) 100,00 %
04.09.2017 08:18 9,2 C 17,8 C 97 % 1016,3 hPa 0,0 l/m 2,5 km/h (1 Bft) S-SW 204 2 min 0,000 mm 0,0 UV-I 252 W/m 8,7 C 9,2 C 3,2 km/h (1 Bft) 100,00 %
04.09.2017 08:20 9,3 C 17,8 C 97 % 1016,3 hPa 0,0 l/m 1,2 km/h (1 Bft) S-SW 204 2 min 0,000 mm 0,3 UV-I 258 W/m 8,8 C 9,3 C 3,2 km/h (1 Bft) 97,87 %
04.09.2017 08:22 9,3 C 17,8 C 97 % 1016,3 hPa 0,0 l/m 2,0 km/h (1 Bft) S-SW 204 2 min 0,000 mm 0,5 UV-I 264 W/m 8,8 C 9,3 C 4,8 km/h (1 Bft) 100,00 %
04.09.2017 08:24 9,4 C 17,8 C 97 % 1016,3 hPa 0,0 l/m 3,5 km/h (1 Bft) SW 215 2 min 0,000 mm 0,5 UV-I 270 W/m 8,9 C 9,4 C 6,4 km/h (2 Bft) 100,00 %
04.09.2017 08:26 9,5 C 17,8 C 97 % 1016,3 hPa 0,0 l/m 6,1 km/h (2 Bft) W-SW 240 2 min 0,000 mm 0,5 UV-I 275 W/m 9,0 C 9,5 C 9,7 km/h (2 Bft) 100,00 %
04.09.2017 08:28 9,7 C 17,8 C 97 % 1016,4 hPa 0,0 l/m 4,6 km/h (1 Bft) S-SW 213 2 min 0,000 mm 0,5 UV-I 279 W/m 9,2 C 9,7 C 6,4 km/h (2 Bft) 97,87 %
04.09.2017 08:30 9,7 C 17,8 C 96 % 1016,3 hPa 0,0 l/m 6,0 km/h (2 Bft) SW 228 2 min 0,000 mm 0,5 UV-I 288 W/m 9,1 C 9,7 C 9,7 km/h (2 Bft) 98,00 %
04.09.2017 08:32 9,7 C 17,8 C 96 % 1016,3 hPa 0,0 l/m 5,5 km/h (1 Bft) W-SW 249 2 min 0,000 mm 0,6 UV-I 291 W/m 9,1 C 9,7 C 9,7 km/h (2 Bft) 97,87 %
04.09.2017 08:34 9,8 C 17,8 C 96 % 1016,4 hPa 0,0 l/m 6,3 km/h (2 Bft) SW 232 2 min 0,000 mm 0,6 UV-I 298 W/m 9,2 C 9,8 C 9,7 km/h (2 Bft) 100,00 %
04.09.2017 08:36 9,9 C 17,8 C 96 % 1016,4 hPa 0,0 l/m 4,1 km/h (1 Bft) W-SW 239 2 min 0,000 mm 0,6 UV-I 270 W/m 9,3 C 9,9 C 6,4 km/h (2 Bft) 100,00 %
04.09.2017 08:38 10,0 C 17,8 C 96 % 1016,4 hPa 0,0 l/m 4,0 km/h (1 Bft) W-SW 243 2 min 0,000 mm 0,6 UV-I 307 W/m 9,4 C 10,0 C 8,0 km/h (2 Bft) 100,00 %
04.09.2017 08:40 10,2 C 17,8 C 96 % 1016,4 hPa 0,0 l/m 4,0 km/h (1 Bft) SW 235 2 min 0,000 mm 0,6 UV-I 327 W/m 9,6 C 10,2 C 6,4 km/h (2 Bft) 100,00 %
04.09.2017 08:42 10,2 C 17,8 C 96 % 1016,5 hPa 0,0 l/m 3,6 km/h (1 Bft) W-SW 254 2 min 0,000 mm 0,7 UV-I 334 W/m 9,6 C 10,2 C 4,8 km/h (1 Bft) 97,87 %
04.09.2017 08:44 10,3 C 17,8 C 95 % 1016,5 hPa 0,0 l/m 2,2 km/h (1 Bft) SW 236 2 min 0,000 mm 0,7 UV-I 330 W/m 9,5 C 10,3 C 4,8 km/h (1 Bft) 97,87 %
04.09.2017 08:46 10,3 C 17,8 C 95 % 1016,5 hPa 0,0 l/m 2,2 km/h (1 Bft) SW 236 2 min 0,000 mm 0,7 UV-I 334 W/m 9,5 C 10,3 C 3,2 km/h (1 Bft) 97,87 %
04.09.2017 08:48 10,3 C 17,8 C 95 % 1016,6 hPa 0,0 l/m 4,2 km/h (1 Bft) SW 236 2 min 0,000 mm 0,7 UV-I 338 W/m 9,5 C 10,3 C 6,4 km/h (2 Bft) 100,00 %
04.09.2017 08:50 10,4 C 17,8 C 95 % 1016,5 hPa 0,0 l/m 2,7 km/h (1 Bft) SW 236 2 min 0,000 mm 0,8 UV-I 342 W/m 9,6 C 10,4 C 4,8 km/h (1 Bft) 98,00 %
04.09.2017 08:52 10,5 C 17,8 C 94 % 1016,6 hPa 0,0 l/m 3,6 km/h (1 Bft) SW 225 2 min 0,000 mm 0,8 UV-I 346 W/m 9,6 C 10,5 C 8,0 km/h (2 Bft) 100,00 %
04.09.2017 08:54 10,6 C 17,8 C 94 % 1016,6 hPa 0,0 l/m 4,6 km/h (1 Bft) SW 229 2 min 0,000 mm 0,8 UV-I 351 W/m 9,7 C 10,6 C 6,4 km/h (2 Bft) 100,00 %
04.09.2017 08:56 10,6 C 17,8 C 94 % 1016,6 hPa 0,0 l/m 3,6 km/h (1 Bft) S-SW 201 2 min 0,000 mm 0,8 UV-I 357 W/m 9,7 C 10,6 C 6,4 km/h (2 Bft) 100,00 %
04.09.2017 08:58 10,7 C 17,8 C 93 % 1016,6 hPa 0,0 l/m 2,4 km/h (1 Bft) S-SW 201 2 min 0,000 mm 0,9 UV-I 364 W/m 9,6 C 10,7 C 4,8 km/h (1 Bft) 100,00 %
04.09.2017 09:00 10,7 C 17,8 C 93 % 1016,6 hPa 0,0 l/m 3,9 km/h (1 Bft) SW 233 2 min 0,127 mm 0,9 UV-I 370 W/m 9,6 C 10,7 C 6,4 km/h (2 Bft) 97,87 %
04.09.2017 09:02 10,8 C 17,8 C 93 % 1016,7 hPa 0,0 l/m 2,9 km/h (1 Bft) SW 233 2 min 0,000 mm 0,9 UV-I 384 W/m 9,7 C 10,8 C 4,8 km/h (1 Bft) 100,00 %
04.09.2017 09:04 10,8 C 17,8 C 92 % 1016,7 hPa 0,0 l/m 2,1 km/h (1 Bft) SW 234 2 min 0,000 mm 0,9 UV-I 410 W/m 9,6 C 10,8 C 4,8 km/h (1 Bft) 100,00 %
04.09.2017 09:06 10,9 C 17,8 C 93 % 1016,7 hPa 0,0 l/m 0,0 km/h (0 Bft) SW 234 2 min 0,000 mm 1,0 UV-I 383 W/m 9,8 C 10,9 C 0,0 km/h (0 Bft) 100,00 %
04.09.2017 09:08 11,0 C 17,8 C 93 % 1016,8 hPa 0,0 l/m 2,6 km/h (1 Bft) W 265 2 min 0,000 mm 1,0 UV-I 359 W/m 9,9 C 11,0 C 6,4 km/h (2 Bft) 100,00 %
04.09.2017 09:10 10,9 C 17,8 C 92 % 1016,8 hPa 0,0 l/m 4,2 km/h (1 Bft) W 263 0 min 0,000 mm 0,9 UV-I 215 W/m 9,7 C 10,9 C 6,4 km/h (2 Bft) 94,29 %
04.09.2017 09:12 10,8 C 17,8 C 92 % 1016,8 hPa 0,0 l/m 4,3 km/h (1 Bft) W 263 2 min 0,000 mm 0,9 UV-I 272 W/m 9,6 C 10,8 C 6,4 km/h (2 Bft) 100,00 %
04.09.2017 09:14 10,8 C 17,8 C 93 % 1016,8 hPa 0,0 l/m 2,9 km/h (1 Bft) W 263 2 min 0,000 mm 1,1 UV-I 321 W/m 9,7 C 10,8 C 4,8 km/h (1 Bft) 100,00 %
04.09.2017 09:16 11,1 C 17,8 C 93 % 1016,8 hPa 0,0 l/m 2,7 km/h (1 Bft) W 263 2 min 0,000 mm 1,1 UV-I 418 W/m 10,0 C 11,1 C 4,8 km/h (1 Bft) 100,00 %
04.09.2017 09:18 11,2 C 17,8 C 93 % 1016,8 hPa 0,0 l/m 5,4 km/h (1 Bft) W-NW 290 2 min 0,000 mm 1,1 UV-I 418 W/m 10,1 C 11,2 C 8,0 km/h (2 Bft) 98,00 %
04.09.2017 09:20 11,2 C 17,8 C 92 % 1016,9 hPa 0,0 l/m 2,9 km/h (1 Bft) W-NW 284 2 min 0,000 mm 1,1 UV-I 424 W/m 9,9 C 11,2 C 4,8 km/h (1 Bft) 97,87 %
04.09.2017 09:22 11,1 C 17,8 C 91 % 1016,9 hPa 0,0 l/m 4,2 km/h (1 Bft) W 273 2 min 0,000 mm 1,2 UV-I 439 W/m 9,7 C 11,1 C 6,4 km/h (2 Bft) 97,87 %
04.09.2017 09:24 11,1 C 17,8 C 92 % 1016,9 hPa 0,0 l/m 4,0 km/h (1 Bft) W 274 2 min 0,000 mm 1,2 UV-I 446 W/m 9,8 C 11,1 C 6,4 km/h (2 Bft) 97,87 %
04.09.2017 09:26 11,2 C 17,8 C 92 % 1016,9 hPa 0,0 l/m 3,0 km/h (1 Bft) W 281 2 min 0,000 mm 1,2 UV-I 449 W/m 9,9 C 11,2 C 6,4 km/h (2 Bft) 97,87 %
04.09.2017 09:28 11,1 C 17,8 C 91 % 1016,9 hPa 0,0 l/m 2,8 km/h (1 Bft) W 263 2 min 0,000 mm 1,2 UV-I 455 W/m 9,7 C 11,1 C 6,4 km/h (2 Bft) 91,49 %
04.09.2017 09:30 11,2 C 17,8 C 91 % 1016,9 hPa 0,0 l/m 4,6 km/h (1 Bft) W-SW 255 2 min 0,000 mm 1,3 UV-I 464 W/m 9,8 C 11,2 C 8,0 km/h (2 Bft) 96,00 %
04.09.2017 09:32 11,3 C 17,8 C 91 % 1016,9 hPa 0,0 l/m 5,3 km/h (1 Bft) W-SW 245 2 min 0,000 mm 1,3 UV-I 472 W/m 9,9 C 11,3 C 8,0 km/h (2 Bft) 95,74 %
04.09.2017 09:34 11,4 C 17,8 C 91 % 1016,9 hPa 0,0 l/m 4,6 km/h (1 Bft) W-SW 250 2 min 0,000 mm 1,3 UV-I 481 W/m 10,0 C 11,4 C 6,4 km/h (2 Bft) 95,74 %
04.09.2017 09:36 11,6 C 17,8 C 91 % 1016,9 hPa 0,0 l/m 2,8 km/h (1 Bft) W-SW 251 2 min 0,000 mm 1,4 UV-I 490 W/m 10,2 C 11,6 C 8,0 km/h (2 Bft) 95,74 %
04.09.2017 09:38 11,7 C 17,8 C 91 % 1016,9 hPa 0,0 l/m 3,5 km/h (1 Bft) W-SW 251 2 min 0,000 mm 1,4 UV-I 501 W/m 10,3 C 11,7 C 8,0 km/h (2 Bft) 94,87 %
04.09.2017 09:40 11,8 C 17,8 C 91 % 1016,9 hPa 0,0 l/m 3,2 km/h (1 Bft) W-SW 251 2 min 0,000 mm 1,4 UV-I 502 W/m 10,4 C 11,8 C 4,8 km/h (1 Bft) 89,36 %
04.09.2017 09:42 11,8 C 17,8 C 90 % 1016,9 hPa 0,0 l/m 1,5 km/h (1 Bft) W-SW 251 2 min 0,000 mm 1,5 UV-I 500 W/m 10,2 C 11,8 C 3,2 km/h (1 Bft) 95,74 %
04.09.2017 09:44 11,9 C 17,8 C 91 % 1016,9 hPa 0,0 l/m 1,3 km/h (1 Bft) W-SW 257 2 min 0,000 mm 1,5 UV-I 507 W/m 10,5 C 11,9 C 6,4 km/h (2 Bft) 94,00 %
04.09.2017 09:46 12,1 C 17,8 C 90 % 1017,0 hPa 0,0 l/m 2,9 km/h (1 Bft) W 280 2 min 0,000 mm 1,5 UV-I 512 W/m 10,5 C 12,1 C 4,8 km/h (1 Bft) 91,49 %
04.09.2017 09:48 12,1 C 17,8 C 89 % 1017,0 hPa 0,0 l/m 4,2 km/h (1 Bft) W 273 2 min 0,000 mm 1,6 UV-I 513 W/m 10,3 C 12,1 C 6,4 km/h (2 Bft) 95,74 %
04.09.2017 09:50 12,1 C 17,8 C 89 % 1017,0 hPa 0,0 l/m 4,6 km/h (1 Bft) W 268 2 min 0,000 mm 1,6 UV-I 531 W/m 10,3 C 12,1 C 8,0 km/h (2 Bft) 95,74 %
04.09.2017 09:52 12,1 C 17,8 C 88 % 1017,0 hPa 0,0 l/m 3,2 km/h (1 Bft) SW 234 2 min 0,000 mm 1,6 UV-I 559 W/m 10,2 C 12,1 C 4,8 km/h (1 Bft) 93,62 %
04.09.2017 09:54 12,2 C 17,8 C 90 % 1017,0 hPa 0,0 l/m 2,3 km/h (1 Bft) W-NW 288 2 min 0,000 mm 1,7 UV-I 565 W/m 10,6 C 12,2 C 4,8 km/h (1 Bft) 91,49 %
04.09.2017 09:56 12,3 C 17,8 C 90 % 1017,0 hPa 0,0 l/m 1,6 km/h (1 Bft) W-NW 289 2 min 0,000 mm 1,7 UV-I 541 W/m 10,7 C 12,3 C 3,2 km/h (1 Bft) 93,62 %
04.09.2017 09:58 12,3 C 17,8 C 90 % 1017,1 hPa 0,0 l/m 2,3 km/h (1 Bft) W-NW 290 2 min 0,000 mm 1,7 UV-I 553 W/m 10,7 C 12,3 C 4,8 km/h (1 Bft) 95,74 %
04.09.2017 10:00 12,3 C 17,8 C 90 % 1017,0 hPa 0,0 l/m 0,7 km/h (0 Bft) W-NW 290 2 min 0,228 mm 1,8 UV-I 557 W/m 10,7 C 12,3 C 3,2 km/h (1 Bft) 95,74 %
04.09.2017 10:02 12,2 C 17,8 C 90 % 1017,1 hPa 0,0 l/m 3,7 km/h (1 Bft) NW 309 2 min 0,000 mm 1,8 UV-I 570 W/m 10,6 C 12,2 C 6,4 km/h (2 Bft) 93,62 %
04.09.2017 10:04 12,3 C 17,8 C 91 % 1017,1 hPa 0,0 l/m 2,9 km/h (1 Bft) N-NO 24 2 min 0,000 mm 1,8 UV-I 523 W/m 10,9 C 12,3 C 6,4 km/h (2 Bft) 96,00 %
04.09.2017 10:06 12,3 C 17,8 C 91 % 1017,1 hPa 0,0 l/m 2,2 km/h (1 Bft) N-NW 344 2 min 0,000 mm 1,8 UV-I 538 W/m 10,9 C 12,3 C 6,4 km/h (2 Bft) 97,87 %
04.09.2017 10:08 12,4 C 17,8 C 92 % 1017,1 hPa 0,0 l/m 2,6 km/h (1 Bft) NW 324 2 min 0,000 mm 1,9 UV-I 567 W/m 11,1 C 12,4 C 4,8 km/h (1 Bft) 97,87 %
04.09.2017 10:10 12,4 C 17,8 C 91 % 1017,1 hPa 0,0 l/m 1,6 km/h (1 Bft) N-NW 331 2 min 0,000 mm 1,9 UV-I 566 W/m 11,0 C 12,4 C 3,2 km/h (1 Bft) 97,87 %
04.09.2017 10:12 12,4 C 17,8 C 92 % 1017,2 hPa 0,0 l/m 3,6 km/h (1 Bft) N-NW 337 2 min 0,000 mm 2,0 UV-I 596 W/m 11,1 C 12,4 C 6,4 km/h (2 Bft) 93,62 %
04.09.2017 10:14 12,5 C 17,8 C 92 % 1017,2 hPa 0,0 l/m 2,2 km/h (1 Bft) N-NO 21 2 min 0,000 mm 2,0 UV-I 570 W/m 11,2 C 12,5 C 4,8 km/h (1 Bft) 95,74 %
04.09.2017 10:16 12,5 C 17,8 C 92 % 1017,2 hPa 0,0 l/m 2,7 km/h (1 Bft) W-NW 295 2 min 0,000 mm 2,1 UV-I 594 W/m 11,2 C 12,5 C 6,4 km/h (2 Bft) 97,87 %
04.09.2017 10:18 12,6 C 17,8 C 91 % 1017,2 hPa 0,0 l/m 1,9 km/h (1 Bft) NW 317 2 min 0,000 mm 2,1 UV-I 630 W/m 11,2 C 12,6 C 4,8 km/h (1 Bft) 100,00 %
04.09.2017 10:20 12,6 C 17,8 C 92 % 1017,1 hPa 0,0 l/m 2,6 km/h (1 Bft) N-NO 15 2 min 0,000 mm 2,1 UV-I 633 W/m 11,3 C 12,6 C 6,4 km/h (2 Bft) 100,00 %
04.09.2017 10:22 12,8 C 17,8 C 92 % 1017,1 hPa 0,0 l/m 4,6 km/h (1 Bft) N-NW 332 2 min 0,000 mm 2,2 UV-I 653 W/m 11,5 C 12,8 C 8,0 km/h (2 Bft) 100,00 %
04.09.2017 10:24 12,9 C 17,8 C 91 % 1017,2 hPa 0,0 l/m 3,4 km/h (1 Bft) N-NO 17 2 min 0,000 mm 1,9 UV-I 500 W/m 11,5 C 12,9 C 6,4 km/h (2 Bft) 100,00 %
04.09.2017 10:26 12,8 C 17,8 C 91 % 1017,2 hPa 0,0 l/m 4,3 km/h (1 Bft) NW 309 2 min 0,000 mm 2,0 UV-I 403 W/m 11,4 C 12,8 C 11,3 km/h (2 Bft) 100,00 %
04.09.2017 10:28 12,8 C 17,8 C 92 % 1017,2 hPa 0,0 l/m 2,7 km/h (1 Bft) N-NW 340 2 min 0,000 mm 2,0 UV-I 463 W/m 11,5 C 12,8 C 6,4 km/h (2 Bft) 97,87 %
04.09.2017 10:30 12,6 C 17,8 C 90 % 1017,1 hPa 0,0 l/m 2,4 km/h (1 Bft) N-NO 18 2 min 0,000 mm 2,2 UV-I 561 W/m 11,0 C 12,6 C 4,8 km/h (1 Bft) 100,00 %
04.09.2017 10:32 12,7 C 17,8 C 91 % 1017,2 hPa 0,0 l/m 1,6 km/h (1 Bft) N 5 2 min 0,000 mm 2,3 UV-I 695 W/m 11,3 C 12,7 C 3,2 km/h (1 Bft) 100,00 %
04.09.2017 10:34 12,7 C 17,8 C 90 % 1017,2 hPa 0,0 l/m 1,1 km/h (1 Bft) NW 306 2 min 0,000 mm 2,4 UV-I 688 W/m 11,1 C 12,7 C 3,2 km/h (1 Bft) 100,00 %
04.09.2017 10:36 12,8 C 17,8 C 90 % 1017,3 hPa 0,0 l/m 2,2 km/h (1 Bft) N 355 2 min 0,000 mm 2,1 UV-I 556 W/m 11,2 C 12,8 C 4,8 km/h (1 Bft) 100,00 %
04.09.2017 10:38 12,6 C 17,8 C 90 % 1017,3 hPa 0,0 l/m 3,1 km/h (1 Bft) W-NW 299 2 min 0,000 mm 2,0 UV-I 372 W/m 11,0 C 12,6 C 9,7 km/h (2 Bft) 100,00 %
04.09.2017 10:40 12,3 C 17,8 C 89 % 1017,3 hPa 0,0 l/m 3,8 km/h (1 Bft) NW 317 0 min 0,000 mm 1,9 UV-I 312 W/m 10,5 C 12,3 C 6,4 km/h (2 Bft) 100,00 %
04.09.2017 10:42 12,2 C 17,8 C 90 % 1017,3 hPa 0,0 l/m 3,7 km/h (1 Bft) NW 310 2 min 0,000 mm 2,3 UV-I 357 W/m 10,6 C 12,2 C 6,4 km/h (2 Bft) 100,00 %
04.09.2017 10:44 12,2 C 17,8 C 91 % 1017,4 hPa 0,0 l/m 2,3 km/h (1 Bft) NW 321 2 min 0,000 mm 2,1 UV-I 348 W/m 10,8 C 12,2 C 6,4 km/h (2 Bft) 97,87 %
04.09.2017 10:46 12,1 C 17,8 C 90 % 1017,4 hPa 0,0 l/m 1,1 km/h (1 Bft) NW 324 2 min 0,000 mm 2,3 UV-I 430 W/m 10,5 C 12,1 C 3,2 km/h (1 Bft) 100,00 %
04.09.2017 10:48 12,4 C 17,8 C 92 % 1017,3 hPa 0,0 l/m 2,7 km/h (1 Bft) N-NO 27 2 min 0,000 mm 2,5 UV-I 638 W/m 11,1 C 12,4 C 6,4 km/h (2 Bft) 97,87 %
04.09.2017 10:50 12,6 C 17,8 C 91 % 1017,3 hPa 0,0 l/m 1,5 km/h (1 Bft) N-NW 344 2 min 0,000 mm 2,6 UV-I 700 W/m 11,2 C 12,6 C 4,8 km/h (1 Bft) 100,00 %
04.09.2017 10:52 12,8 C 17,8 C 91 % 1017,4 hPa 0,0 l/m 5,0 km/h (1 Bft) N-NO 19 2 min 0,000 mm 2,7 UV-I 721 W/m 11,4 C 12,8 C 8,0 km/h (2 Bft) 100,00 %
04.09.2017 10:54 13,3 C 17,8 C 93 % 1017,4 hPa 0,0 l/m 5,0 km/h (1 Bft) N-NO 18 2 min 0,000 mm 2,8 UV-I 792 W/m 12,2 C 13,3 C 8,0 km/h (2 Bft) 100,00 %
04.09.2017 10:56 13,5 C 18,3 C 90 % 1017,3 hPa 0,0 l/m 3,2 km/h (1 Bft) N 10 2 min 0,000 mm 2,8 UV-I 852 W/m 11,9 C 13,5 C 6,4 km/h (2 Bft) 98,00 %
04.09.2017 10:58 13,3 C 17,8 C 89 % 1017,4 hPa 0,0 l/m 4,4 km/h (1 Bft) NW 316 2 min 0,000 mm 2,5 UV-I 853 W/m 11,5 C 13,3 C 11,3 km/h (2 Bft) 100,00 %
04.09.2017 11:00 13,1 C 17,8 C 88 % 1017,4 hPa 0,0 l/m 1,5 km/h (1 Bft) N-NW 335 2 min 0,280 mm 2,8 UV-I 747 W/m 11,2 C 13,1 C 4,8 km/h (1 Bft) 98,00 %
04.09.2017 11:02 12,9 C 17,8 C 88 % 1017,4 hPa 0,0 l/m 1,3 km/h (1 Bft) N-NW 335 2 min 0,000 mm 2,8 UV-I 708 W/m 11,0 C 12,9 C 3,2 km/h (1 Bft) 100,00 %
04.09.2017 11:04 13,0 C 18,3 C 89 % 1017,4 hPa 0,0 l/m 2,4 km/h (1 Bft) N-NW 338 2 min 0,000 mm 2,9 UV-I 728 W/m 11,2 C 13,0 C 6,4 km/h (2 Bft) 100,00 %
04.09.2017 11:06 13,0 C 18,3 C 88 % 1017,4 hPa 0,0 l/m 2,8 km/h (1 Bft) N-NW 327 2 min 0,000 mm 2,9 UV-I 731 W/m 11,1 C 13,0 C 6,4 km/h (2 Bft) 97,87 %
04.09.2017 11:08 13,0 C 18,3 C 88 % 1017,4 hPa 0,0 l/m 3,7 km/h (1 Bft) W-NW 300 2 min 0,000 mm 2,9 UV-I 710 W/m 11,1 C 13,0 C 6,4 km/h (2 Bft) 97,87 %
04.09.2017 11:10 13,1 C 18,3 C 88 % 1017,4 hPa 0,0 l/m 3,1 km/h (1 Bft) NW 325 2 min 0,000 mm 3,0 UV-I 698 W/m 11,2 C 13,1 C 6,4 km/h (2 Bft) 97,87 %
04.09.2017 11:12 13,1 C 18,3 C 87 % 1017,4 hPa 0,0 l/m 2,5 km/h (1 Bft) N 5 2 min 0,000 mm 3,0 UV-I 692 W/m 11,0 C 13,1 C 4,8 km/h (1 Bft) 97,87 %
04.09.2017 11:14 13,1 C 18,3 C 86 % 1017,4 hPa 0,0 l/m 0,9 km/h (0 Bft) N 355 2 min 0,000 mm 3,0 UV-I 693 W/m 10,8 C 13,1 C 3,2 km/h (1 Bft) 100,00 %
04.09.2017 11:16 13,2 C 18,3 C 88 % 1017,3 hPa 0,0 l/m 3,6 km/h (1 Bft) N-NO 13 2 min 0,000 mm 3,1 UV-I 695 W/m 11,3 C 13,2 C 6,4 km/h (2 Bft) 100,00 %
04.09.2017 11:18 13,6 C 18,3 C 89 % 1017,3 hPa 0,0 l/m 1,8 km/h (1 Bft) N-NO 17 2 min 0,000 mm 3,1 UV-I 706 W/m 11,8 C 13,6 C 6,4 km/h (2 Bft) 100,00 %
04.09.2017 11:20 13,8 C 18,3 C 86 % 1017,3 hPa 0,0 l/m 2,5 km/h (1 Bft) N 11 2 min 0,000 mm 3,1 UV-I 716 W/m 11,5 C 13,8 C 6,4 km/h (2 Bft) 100,00 %
04.09.2017 11:22 13,7 C 18,3 C 86 % 1017,4 hPa 0,0 l/m 2,1 km/h (1 Bft) NW 325 2 min 0,000 mm 3,2 UV-I 752 W/m 11,4 C 13,7 C 4,8 km/h (1 Bft) 97,87 %
04.09.2017 11:24 13,8 C 18,3 C 86 % 1017,4 hPa 0,0 l/m 1,4 km/h (1 Bft) W-NW 301 2 min 0,000 mm 3,0 UV-I 738 W/m 11,5 C 13,8 C 4,8 km/h (1 Bft) 98,00 %
04.09.2017 11:26 13,6 C 18,3 C 85 % 1017,3 hPa 0,0 l/m 1,8 km/h (1 Bft) W-NW 301 2 min 0,000 mm 2,6 UV-I 436 W/m 11,1 C 13,6 C 4,8 km/h (1 Bft) 100,00 %
04.09.2017 11:28 13,6 C 18,3 C 85 % 1017,4 hPa 0,0 l/m 0,9 km/h (0 Bft) W-NW 301 0 min 0,000 mm 3,1 UV-I 375 W/m 11,1 C 13,6 C 1,6 km/h (1 Bft) 100,00 %
04.09.2017 11:30 13,8 C 18,3 C 87 % 1017,4 hPa 0,0 l/m 1,6 km/h (1 Bft) NW 309 2 min 0,000 mm 3,3 UV-I 716 W/m 11,7 C 13,8 C 4,8 km/h (1 Bft) 98,00 %
04.09.2017 11:32 13,8 C 18,3 C 84 % 1017,4 hPa 0,0 l/m 2,2 km/h (1 Bft) N-NO 16 2 min 0,000 mm 3,3 UV-I 717 W/m 11,1 C 13,8 C 4,8 km/h (1 Bft) 97,87 %
04.09.2017 11:34 13,9 C 18,3 C 85 % 1017,4 hPa 0,0 l/m 3,1 km/h (1 Bft) N-NO 20 2 min 0,000 mm 3,3 UV-I 714 W/m 11,4 C 13,9 C 6,4 km/h (2 Bft) 97,87 %
04.09.2017 11:36 14,0 C 18,3 C 85 % 1017,4 hPa 0,0 l/m 3,4 km/h (1 Bft) N-NO 33 2 min 0,000 mm 3,3 UV-I 713 W/m 11,5 C 14,0 C 6,4 km/h (2 Bft) 97,87 %
04.09.2017 11:38 14,3 C 18,3 C 86 % 1017,4 hPa 0,0 l/m 3,5 km/h (1 Bft) W-NW 296 2 min 0,000 mm 3,4 UV-I 718 W/m 12,0 C 14,3 C 6,4 km/h (2 Bft) 97,87 %
04.09.2017 11:40 14,3 C 18,3 C 85 % 1017,4 hPa 0,0 l/m 2,8 km/h (1 Bft) W-NW 286 2 min 0,000 mm 3,4 UV-I 721 W/m 11,8 C 14,3 C 6,4 km/h (2 Bft) 97,87 %
04.09.2017 11:42 14,4 C 18,3 C 85 % 1017,4 hPa 0,0 l/m 0,9 km/h (0 Bft) W-NW 287 2 min 0,000 mm 3,4 UV-I 724 W/m 11,9 C 14,4 C 1,6 km/h (1 Bft) 94,44 %
04.09.2017 11:44 14,6 C 18,3 C 85 % 1017,4 hPa 0,0 l/m 1,2 km/h (1 Bft) N-NW 327 2 min 0,000 mm 3,4 UV-I 716 W/m 12,1 C 14,6 C 3,2 km/h (1 Bft) 98,00 %
04.09.2017 11:46 14,4 C 18,3 C 82 % 1017,3 hPa 0,0 l/m 1,3 km/h (1 Bft) NW 319 2 min 0,000 mm 3,5 UV-I 726 W/m 11,4 C 14,4 C 3,2 km/h (1 Bft) 93,62 %
04.09.2017 11:48 14,3 C 18,3 C 82 % 1017,3 hPa 0,0 l/m 0,9 km/h (0 Bft) W-NW 288 2 min 0,000 mm 3,5 UV-I 733 W/m 11,3 C 14,3 C 4,8 km/h (1 Bft) 97,87 %
04.09.2017 11:50 14,3 C 18,3 C 82 % 1017,3 hPa 0,0 l/m 1,4 km/h (1 Bft) W-NW 288 2 min 0,000 mm 3,6 UV-I 741 W/m 11,3 C 14,3 C 4,8 km/h (1 Bft) 95,74 %
04.09.2017 11:52 14,4 C 18,3 C 85 % 1017,3 hPa 0,0 l/m 2,8 km/h (1 Bft) NW 326 2 min 0,000 mm 3,6 UV-I 739 W/m 11,9 C 14,4 C 6,4 km/h (2 Bft) 97,87 %
04.09.2017 11:54 14,6 C 18,3 C 84 % 1017,3 hPa 0,0 l/m 1,3 km/h (1 Bft) N-NW 328 2 min 0,000 mm 3,6 UV-I 731 W/m 11,9 C 14,6 C 4,8 km/h (1 Bft) 97,87 %
04.09.2017 11:56 14,4 C 18,3 C 81 % 1017,3 hPa 0,0 l/m 0,7 km/h (0 Bft) NW 326 2 min 0,000 mm 3,6 UV-I 738 W/m 11,2 C 14,4 C 1,6 km/h (1 Bft) 97,87 %
04.09.2017 11:58 14,3 C 18,3 C 82 % 1017,3 hPa 0,0 l/m 4,2 km/h (1 Bft) W-NW 287 2 min 0,000 mm 3,6 UV-I 724 W/m 11,3 C 14,3 C 6,4 km/h (2 Bft) 95,74 %
04.09.2017 12:00 14,3 C 18,3 C 82 % 1017,3 hPa 0,0 l/m 4,4 km/h (1 Bft) W-NW 288 2 min 0,355 mm 3,6 UV-I 714 W/m 11,3 C 14,3 C 6,4 km/h (2 Bft) 97,87 %
04.09.2017 12:02 14,5 C 18,3 C 84 % 1017,3 hPa 0,0 l/m 2,7 km/h (1 Bft) NW 319 2 min 0,000 mm 3,6 UV-I 734 W/m 11,8 C 14,5 C 4,8 km/h (1 Bft) 95,74 %
04.09.2017 12:04 14,6 C 18,3 C 82 % 1017,3 hPa 0,0 l/m 3,4 km/h (1 Bft) W-NW 295 2 min 0,000 mm 3,6 UV-I 737 W/m 11,6 C 14,6 C 6,4 km/h (2 Bft) 100,00 %
04.09.2017 12:06 14,4 C 18,3 C 80 % 1017,3 hPa 0,0 l/m 2,4 km/h (1 Bft) W-NW 289 2 min 0,000 mm 3,7 UV-I 752 W/m 11,0 C 14,4 C 4,8 km/h (1 Bft) 95,74 %
04.09.2017 12:08 14,4 C 18,3 C 81 % 1017,2 hPa 0,0 l/m 1,3 km/h (1 Bft) S-SO 162 2 min 0,000 mm 3,7 UV-I 756 W/m 11,2 C 14,4 C 3,2 km/h (1 Bft) 97,87 %
04.09.2017 12:10 14,4 C 18,3 C 81 % 1017,3 hPa 0,0 l/m 1,5 km/h (1 Bft) S-SO 162 2 min 0,000 mm 3,8 UV-I 754 W/m 11,2 C 14,4 C 3,2 km/h (1 Bft) 97,87 %
04.09.2017 12:12 14,6 C 18,3 C 82 % 1017,3 hPa 0,0 l/m 1,2 km/h (1 Bft) O-NO 59 2 min 0,000 mm 3,8 UV-I 752 W/m 11,6 C 14,6 C 8,0 km/h (2 Bft) 100,00 %
04.09.2017 12:14 14,9 C 18,3 C 83 % 1017,3 hPa 0,0 l/m 4,0 km/h (1 Bft) N-NO 33 2 min 0,000 mm 3,8 UV-I 758 W/m 12,0 C 14,9 C 6,4 km/h (2 Bft) 100,00 %
04.09.2017 12:16 15,3 C 18,3 C 83 % 1017,3 hPa 0,0 l/m 1,3 km/h (1 Bft) N-NO 17 2 min 0,000 mm 3,8 UV-I 758 W/m 12,4 C 15,3 C 4,8 km/h (1 Bft) 100,00 %
04.09.2017 12:18 15,4 C 18,3 C 81 % 1017,3 hPa 0,0 l/m 3,3 km/h (1 Bft) W-NW 290 2 min 0,000 mm 3,8 UV-I 757 W/m 12,2 C 15,4 C 6,4 km/h (2 Bft) 100,00 %
04.09.2017 12:20 15,3 C 18,3 C 78 % 1017,3 hPa 0,0 l/m 4,3 km/h (1 Bft) W 277 2 min 0,000 mm 3,8 UV-I 754 W/m 11,5 C 15,3 C 9,7 km/h (2 Bft) 100,00 %
04.09.2017 12:22 15,2 C 18,3 C 80 % 1017,3 hPa 0,0 l/m 5,0 km/h (1 Bft) W 271 2 min 0,000 mm 3,8 UV-I 747 W/m 11,8 C 15,2 C 9,7 km/h (2 Bft) 100,00 %
04.09.2017 12:24 15,2 C 18,3 C 80 % 1017,3 hPa 0,0 l/m 3,5 km/h (1 Bft) N-NW 342 2 min 0,000 mm 3,8 UV-I 754 W/m 11,8 C 15,2 C 6,4 km/h (2 Bft) 97,87 %
04.09.2017 12:26 15,3 C 18,3 C 83 % 1017,3 hPa 0,0 l/m 3,9 km/h (1 Bft) N-NW 332 2 min 0,000 mm 3,9 UV-I 758 W/m 12,4 C 15,3 C 11,3 km/h (2 Bft) 97,87 %
04.09.2017 12:28 15,4 C 18,3 C 79 % 1017,3 hPa 0,0 l/m 4,0 km/h (1 Bft) NW 304 2 min 0,000 mm 3,9 UV-I 754 W/m 11,8 C 15,4 C 8,0 km/h (2 Bft) 100,00 %
04.09.2017 12:30 15,4 C 18,3 C 79 % 1017,3 hPa 0,0 l/m 2,1 km/h (1 Bft) O-NO 78 2 min 0,000 mm 3,8 UV-I 749 W/m 11,8 C 15,4 C 6,4 km/h (2 Bft) 95,74 %
04.09.2017 12:32 15,4 C 18,3 C 81 % 1017,4 hPa 0,0 l/m 2,1 km/h (1 Bft) N 5 2 min 0,000 mm 3,9 UV-I 755 W/m 12,2 C 15,4 C 4,8 km/h (1 Bft) 100,00 %
04.09.2017 12:34 15,4 C 18,3 C 79 % 1017,3 hPa 0,0 l/m 2,9 km/h (1 Bft) NO 41 2 min 0,000 mm 3,9 UV-I 760 W/m 11,8 C 15,4 C 4,8 km/h (1 Bft) 100,00 %
04.09.2017 12:36 15,5 C 18,3 C 78 % 1017,4 hPa 0,0 l/m 3,3 km/h (1 Bft) SO 141 2 min 0,000 mm 3,9 UV-I 764 W/m 11,7 C 15,5 C 4,8 km/h (1 Bft) 97,87 %
04.09.2017 12:38 15,3 C 18,3 C 78 % 1017,3 hPa 0,0 l/m 2,6 km/h (1 Bft) S-SW 205 2 min 0,000 mm 3,9 UV-I 765 W/m 11,5 C 15,3 C 6,4 km/h (2 Bft) 100,00 %
04.09.2017 12:40 15,5 C 18,3 C 81 % 1017,4 hPa 0,0 l/m 3,7 km/h (1 Bft) SW 229 2 min 0,000 mm 3,9 UV-I 765 W/m 12,3 C 15,5 C 8,0 km/h (2 Bft) 97,87 %
04.09.2017 12:42 15,7 C 18,3 C 80 % 1017,3 hPa 0,0 l/m 1,0 km/h (0 Bft) N-NO 17 2 min 0,000 mm 3,9 UV-I 762 W/m 12,3 C 15,7 C 4,8 km/h (1 Bft) 100,00 %
04.09.2017 12:44 15,8 C 18,3 C 81 % 1017,3 hPa 0,0 l/m 2,6 km/h (1 Bft) N-NW 338 2 min 0,000 mm 4,0 UV-I 765 W/m 12,5 C 15,8 C 6,4 km/h (2 Bft) 100,00 %
04.09.2017 12:46 15,9 C 18,3 C 77 % 1017,3 hPa 0,0 l/m 2,9 km/h (1 Bft) N-NO 26 2 min 0,000 mm 3,9 UV-I 768 W/m 11,9 C 15,9 C 4,8 km/h (1 Bft) 100,00 %
04.09.2017 12:48 16,1 C 18,3 C 81 % 1017,3 hPa 0,0 l/m 2,8 km/h (1 Bft) N-NO 26 2 min 0,000 mm 4,0 UV-I 771 W/m 12,8 C 16,1 C 6,4 km/h (2 Bft) 97,87 %
04.09.2017 12:50 16,2 C 18,3 C 75 % 1017,3 hPa 0,0 l/m 2,6 km/h (1 Bft) W-NW 300 2 min 0,000 mm 4,0 UV-I 778 W/m 11,8 C 16,2 C 6,4 km/h (2 Bft) 100,00 %
04.09.2017 12:52 16,2 C 18,3 C 74 % 1017,3 hPa 0,0 l/m 1,7 km/h (1 Bft) W-NW 300 2 min 0,000 mm 4,0 UV-I 777 W/m 11,6 C 16,2 C 4,8 km/h (1 Bft) 100,00 %
04.09.2017 12:54 16,1 C 18,3 C 73 % 1017,3 hPa 0,0 l/m 1,8 km/h (1 Bft) NO 51 2 min 0,000 mm 4,0 UV-I 774 W/m 11,3 C 16,1 C 3,2 km/h (1 Bft) 97,22 %
04.09.2017 12:56 16,2 C 18,3 C 77 % 1017,3 hPa 0,0 l/m 0,9 km/h (0 Bft) NO 51 2 min 0,000 mm 4,0 UV-I 769 W/m 12,2 C 16,2 C 3,2 km/h (1 Bft) 100,00 %
04.09.2017 12:58 16,3 C 18,9 C 76 % 1017,3 hPa 0,0 l/m 2,1 km/h (1 Bft) W-NW 292 2 min 0,000 mm 4,0 UV-I 768 W/m 12,1 C 16,3 C 4,8 km/h (1 Bft) 100,00 %
04.09.2017 13:00 16,4 C 18,9 C 75 % 1017,3 hPa 0,0 l/m 2,7 km/h (1 Bft) N 11 2 min 0,407 mm 4,0 UV-I 765 W/m 12,0 C 16,4 C 6,4 km/h (2 Bft) 96,00 %
04.09.2017 13:02 16,4 C 18,9 C 77 % 1017,3 hPa 0,0 l/m 1,8 km/h (1 Bft) N 11 2 min 0,000 mm 4,0 UV-I 768 W/m 12,4 C 16,4 C 4,8 km/h (1 Bft) 100,00 %
04.09.2017 13:04 16,4 C 18,9 C 77 % 1017,3 hPa 0,0 l/m 1,3 km/h (1 Bft) N 5 2 min 0,000 mm 4,0 UV-I 763 W/m 12,4 C 16,4 C 3,2 km/h (1 Bft) 100,00 %
04.09.2017 13:06 16,5 C 18,9 C 75 % 1017,3 hPa 0,0 l/m 2,7 km/h (1 Bft) N 360 2 min 0,000 mm 4,0 UV-I 766 W/m 12,1 C 16,5 C 6,4 km/h (2 Bft) 100,00 %
04.09.2017 13:08 16,3 C 18,9 C 72 % 1017,3 hPa 0,0 l/m 4,3 km/h (1 Bft) N-NO 19 2 min 0,000 mm 4,0 UV-I 767 W/m 11,2 C 16,3 C 6,4 km/h (2 Bft) 100,00 %
04.09.2017 13:10 16,4 C 18,9 C 76 % 1017,4 hPa 0,0 l/m 4,9 km/h (1 Bft) N 9 2 min 0,000 mm 4,0 UV-I 761 W/m 12,2 C 16,4 C 8,0 km/h (2 Bft) 95,74 %
04.09.2017 13:12 16,7 C 18,9 C 79 % 1017,4 hPa 0,0 l/m 2,8 km/h (1 Bft) W-NW 284 2 min 0,000 mm 4,0 UV-I 758 W/m 13,0 C 16,7 C 6,4 km/h (2 Bft) 100,00 %
04.09.2017 13:14 16,6 C 18,9 C 71 % 1017,4 hPa 0,0 l/m 2,8 km/h (1 Bft) W-NW 287 2 min 0,000 mm 3,9 UV-I 751 W/m 11,3 C 16,6 C 4,8 km/h (1 Bft) 100,00 %
04.09.2017 13:16 16,5 C 18,9 C 71 % 1017,4 hPa 0,0 l/m 2,7 km/h (1 Bft) W-NW 288 2 min 0,000 mm 3,9 UV-I 752 W/m 11,2 C 16,5 C 4,8 km/h (1 Bft) 100,00 %
04.09.2017 13:18 16,4 C 18,9 C 70 % 1017,4 hPa 0,0 l/m 2,4 km/h (1 Bft) W-NW 296 2 min 0,000 mm 4,0 UV-I 761 W/m 10,9 C 16,4 C 4,8 km/h (1 Bft) 100,00 %
04.09.2017 13:20 16,6 C 18,9 C 74 % 1017,4 hPa 0,0 l/m 1,8 km/h (1 Bft) W-NW 296 2 min 0,000 mm 4,0 UV-I 760 W/m 11,9 C 16,6 C 4,8 km/h (1 Bft) 97,87 %
04.09.2017 13:22 16,6 C 18,9 C 71 % 1017,4 hPa 0,0 l/m 0,6 km/h (0 Bft) W-NW 297 2 min 0,000 mm 4,0 UV-I 760 W/m 11,3 C 16,6 C 3,2 km/h (1 Bft) 96,00 %
04.09.2017 13:24 16,6 C 18,9 C 72 % 1017,4 hPa 0,0 l/m 2,6 km/h (1 Bft) N-NO 18 2 min 0,000 mm 4,0 UV-I 758 W/m 11,5 C 16,6 C 6,4 km/h (2 Bft) 97,87 %
04.09.2017 13:26 16,8 C 18,9 C 71 % 1017,4 hPa 0,0 l/m 2,9 km/h (1 Bft) NW 315 2 min 0,000 mm 4,0 UV-I 761 W/m 11,5 C 16,8 C 4,8 km/h (1 Bft) 93,62 %
04.09.2017 13:28 16,9 C 18,9 C 72 % 1017,4 hPa 0,0 l/m 3,2 km/h (1 Bft) N-NO 25 2 min 0,000 mm 4,0 UV-I 766 W/m 11,8 C 16,9 C 6,4 km/h (2 Bft) 97,87 %
04.09.2017 13:30 16,9 C 18,9 C 70 % 1017,4 hPa 0,0 l/m 2,7 km/h (1 Bft) W-NW 290 2 min 0,000 mm 4,0 UV-I 762 W/m 11,4 C 16,9 C 4,8 km/h (1 Bft) 97,50 %
04.09.2017 13:32 17,1 C 18,9 C 73 % 1017,4 hPa 0,0 l/m 1,7 km/h (1 Bft) N-NW 348 2 min 0,000 mm 4,0 UV-I 761 W/m 12,2 C 17,1 C 3,2 km/h (1 Bft) 97,87 %
04.09.2017 13:34 17,1 C 18,9 C 69 % 1017,4 hPa 0,0 l/m 2,6 km/h (1 Bft) N-NW 336 2 min 0,000 mm 3,9 UV-I 754 W/m 11,4 C 17,1 C 4,8 km/h (1 Bft) 97,92 %
04.09.2017 13:36 16,9 C 18,9 C 68 % 1017,4 hPa 0,0 l/m 2,0 km/h (1 Bft) N-NW 335 2 min 0,000 mm 3,9 UV-I 752 W/m 11,0 C 16,9 C 3,2 km/h (1 Bft) 97,87 %
04.09.2017 13:38 16,8 C 18,9 C 70 % 1017,4 hPa 0,0 l/m 1,8 km/h (1 Bft) W-NW 296 2 min 0,000 mm 3,9 UV-I 755 W/m 11,3 C 16,8 C 6,4 km/h (2 Bft) 97,87 %
04.09.2017 13:40 16,8 C 18,9 C 67 % 1017,4 hPa 0,0 l/m 1,9 km/h (1 Bft) N 355 2 min 0,000 mm 3,9 UV-I 750 W/m 10,6 C 16,8 C 4,8 km/h (1 Bft) 97,87 %
04.09.2017 13:42 16,8 C 18,9 C 70 % 1017,4 hPa 0,0 l/m 4,3 km/h (1 Bft) NO 39 2 min 0,000 mm 3,9 UV-I 749 W/m 11,3 C 16,8 C 9,7 km/h (2 Bft) 97,87 %
04.09.2017 13:44 17,0 C 18,9 C 68 % 1017,3 hPa 0,0 l/m 2,7 km/h (1 Bft) N-NW 338 2 min 0,000 mm 3,9 UV-I 752 W/m 11,0 C 17,0 C 6,4 km/h (2 Bft) 95,74 %
04.09.2017 13:46 16,9 C 18,9 C 62 % 1017,3 hPa 0,0 l/m 4,0 km/h (1 Bft) W-NW 290 2 min 0,000 mm 3,9 UV-I 754 W/m 9,6 C 16,9 C 8,0 km/h (2 Bft) 93,62 %
04.09.2017 13:48 17,0 C 18,9 C 63 % 1017,3 hPa 0,0 l/m 3,8 km/h (1 Bft) W-NW 286 2 min 0,000 mm 3,9 UV-I 752 W/m 9,9 C 17,0 C 8,0 km/h (2 Bft) 97,87 %
04.09.2017 13:50 17,1 C 18,9 C 62 % 1017,3 hPa 0,0 l/m 4,9 km/h (1 Bft) NW 312 2 min 0,000 mm 3,9 UV-I 750 W/m 9,8 C 17,1 C 9,7 km/h (2 Bft) 97,87 %
04.09.2017 13:52 17,2 C 18,9 C 64 % 1017,3 hPa 0,0 l/m 3,4 km/h (1 Bft) W-NW 296 2 min 0,000 mm 3,8 UV-I 747 W/m 10,3 C 17,2 C 6,4 km/h (2 Bft) 97,87 %
04.09.2017 13:54 17,3 C 18,9 C 68 % 1017,4 hPa 0,0 l/m 1,9 km/h (1 Bft) N-NW 339 2 min 0,000 mm 3,8 UV-I 744 W/m 11,3 C 17,3 C 4,8 km/h (1 Bft) 95,74 %
04.09.2017 13:56 17,3 C 18,9 C 63 % 1017,3 hPa 0,0 l/m 1,8 km/h (1 Bft) N-NW 332 2 min 0,000 mm 3,8 UV-I 739 W/m 10,2 C 17,3 C 3,2 km/h (1 Bft) 97,87 %
04.09.2017 13:58 17,3 C 18,9 C 59 % 1017,3 hPa 0,0 l/m 1,5 km/h (1 Bft) N-NW 332 2 min 0,000 mm 3,8 UV-I 739 W/m 9,2 C 17,3 C 3,2 km/h (1 Bft) 95,92 %
04.09.2017 14:00 17,2 C 18,9 C 60 % 1017,3 hPa 0,0 l/m 1,0 km/h (0 Bft) N-NW 338 2 min 0,406 mm 3,8 UV-I 739 W/m 9,4 C 17,2 C 3,2 km/h (1 Bft) 97,87 %
04.09.2017 14:02 17,3 C 18,9 C 63 % 1017,3 hPa 0,0 l/m 3,1 km/h (1 Bft) NW 324 2 min 0,000 mm 3,8 UV-I 738 W/m 10,2 C 17,3 C 6,4 km/h (2 Bft) 97,87 %
04.09.2017 14:04 17,4 C 18,9 C 65 % 1017,3 hPa 0,0 l/m 2,0 km/h (1 Bft) N-NW 342 2 min 0,000 mm 3,7 UV-I 737 W/m 10,8 C 17,4 C 4,8 km/h (1 Bft) 100,00 %
04.09.2017 14:06 17,6 C 18,9 C 64 % 1017,3 hPa 0,0 l/m 3,2 km/h (1 Bft) NW 308 2 min 0,000 mm 3,7 UV-I 731 W/m 10,7 C 17,6 C 4,8 km/h (1 Bft) 100,00 %
04.09.2017 14:08 17,6 C 18,9 C 62 % 1017,3 hPa 0,0 l/m 2,6 km/h (1 Bft) NW 310 2 min 0,000 mm 3,7 UV-I 734 W/m 10,2 C 17,6 C 6,4 km/h (2 Bft) 98,00 %
04.09.2017 14:10 17,6 C 18,9 C 63 % 1017,2 hPa 0,0 l/m 4,0 km/h (1 Bft) N-NW 344 2 min 0,000 mm 3,7 UV-I 734 W/m 10,5 C 17,6 C 6,4 km/h (2 Bft) 100,00 %
04.09.2017 14:12 17,6 C 18,9 C 66 % 1017,2 hPa 0,0 l/m 1,5 km/h (1 Bft) N-NW 346 2 min 0,000 mm 3,7 UV-I 730 W/m 11,2 C 17,6 C 4,8 km/h (1 Bft) 95,74 %
04.09.2017 14:14 17,5 C 18,9 C 66 % 1017,2 hPa 0,0 l/m 2,2 km/h (1 Bft) N 11 2 min 0,000 mm 3,6 UV-I 729 W/m 11,1 C 17,5 C 6,4 km/h (2 Bft) 100,00 %
04.09.2017 14:16 17,8 C 18,9 C 71 % 1017,2 hPa 0,0 l/m 3,9 km/h (1 Bft) N 355 2 min 0,000 mm 3,6 UV-I 724 W/m 12,5 C 17,8 C 9,7 km/h (2 Bft) 97,87 %
04.09.2017 14:18 17,8 C 18,9 C 64 % 1017,2 hPa 0,0 l/m 1,5 km/h (1 Bft) N 355 2 min 0,000 mm 3,6 UV-I 721 W/m 10,9 C 17,8 C 3,2 km/h (1 Bft) 97,87 %
04.09.2017 14:20 17,9 C 18,9 C 66 % 1017,2 hPa 0,0 l/m 1,9 km/h (1 Bft) N-NO 24 2 min 0,000 mm 3,6 UV-I 721 W/m 11,5 C 17,9 C 4,8 km/h (1 Bft) 97,87 %
04.09.2017 14:22 18,0 C 18,9 C 67 % 1017,2 hPa 0,0 l/m 2,2 km/h (1 Bft) N-NO 15 2 min 0,000 mm 3,6 UV-I 719 W/m 11,8 C 18,0 C 8,0 km/h (2 Bft) 97,87 %
04.09.2017 14:24 18,0 C 18,9 C 65 % 1017,2 hPa 0,0 l/m 2,9 km/h (1 Bft) W 263 2 min 0,000 mm 3,5 UV-I 716 W/m 11,3 C 18,0 C 4,8 km/h (1 Bft) 100,00 %
04.09.2017 14:26 17,9 C 18,9 C 58 % 1017,1 hPa 0,0 l/m 5,6 km/h (1 Bft) W-SW 244 2 min 0,000 mm 3,5 UV-I 713 W/m 9,5 C 17,9 C 11,3 km/h (2 Bft) 97,30 %
04.09.2017 14:28 17,9 C 18,9 C 61 % 1017,2 hPa 0,0 l/m 1,3 km/h (1 Bft) W-SW 239 2 min 0,000 mm 3,4 UV-I 706 W/m 10,3 C 17,9 C 4,8 km/h (1 Bft) 100,00 %
04.09.2017 14:30 17,9 C 18,9 C 61 % 1017,1 hPa 0,0 l/m 1,9 km/h (1 Bft) NW 323 2 min 0,000 mm 3,4 UV-I 703 W/m 10,3 C 17,9 C 4,8 km/h (1 Bft) 98,00 %
04.09.2017 14:32 17,9 C 18,9 C 61 % 1017,1 hPa 0,0 l/m 0,9 km/h (0 Bft) NW 323 2 min 0,000 mm 3,3 UV-I 694 W/m 10,3 C 17,9 C 3,2 km/h (1 Bft) 100,00 %
04.09.2017 14:34 18,2 C 18,9 C 62 % 1017,1 hPa 0,0 l/m 2,6 km/h (1 Bft) N-NW 344 2 min 0,000 mm 3,3 UV-I 695 W/m 10,8 C 18,2 C 4,8 km/h (1 Bft) 100,00 %
04.09.2017 14:36 18,3 C 18,9 C 64 % 1017,1 hPa 0,0 l/m 2,8 km/h (1 Bft) W-NW 295 2 min 0,000 mm 3,3 UV-I 697 W/m 11,4 C 18,3 C 4,8 km/h (1 Bft) 98,00 %
04.09.2017 14:38 18,2 C 18,9 C 58 % 1017,1 hPa 0,0 l/m 2,2 km/h (1 Bft) W-SW 248 2 min 0,000 mm 3,3 UV-I 698 W/m 9,8 C 18,2 C 8,0 km/h (2 Bft) 100,00 %
04.09.2017 14:40 18,2 C 18,9 C 58 % 1017,1 hPa 0,0 l/m 5,6 km/h (1 Bft) W-SW 253 2 min 0,000 mm 3,3 UV-I 696 W/m 9,8 C 18,2 C 11,3 km/h (2 Bft) 97,87 %
04.09.2017 14:42 18,1 C 18,9 C 58 % 1017,1 hPa 0,0 l/m 1,2 km/h (1 Bft) W-SW 251 2 min 0,000 mm 3,3 UV-I 692 W/m 9,7 C 18,1 C 4,8 km/h (1 Bft) 95,74 %
04.09.2017 14:44 18,0 C 18,9 C 55 % 1017,1 hPa 0,0 l/m 3,8 km/h (1 Bft) O-SO 117 2 min 0,000 mm 3,3 UV-I 688 W/m 8,8 C 18,0 C 6,4 km/h (2 Bft) 100,00 %
04.09.2017 14:46 17,9 C 18,9 C 56 % 1017,1 hPa 0,0 l/m 1,1 km/h (1 Bft) O-SO 117 2 min 0,000 mm 3,2 UV-I 684 W/m 9,0 C 17,9 C 3,2 km/h (1 Bft) 100,00 %
04.09.2017 14:48 18,0 C 18,9 C 60 % 1017,1 hPa 0,0 l/m 2,3 km/h (1 Bft) N 355 2 min 0,000 mm 3,2 UV-I 678 W/m 10,1 C 18,0 C 4,8 km/h (1 Bft) 100,00 %
04.09.2017 14:50 18,2 C 18,9 C 59 % 1017,1 hPa 0,0 l/m 1,4 km/h (1 Bft) N 355 2 min 0,000 mm 3,1 UV-I 673 W/m 10,1 C 18,2 C 3,2 km/h (1 Bft) 100,00 %
04.09.2017 14:52 18,2 C 18,9 C 56 % 1017,1 hPa 0,0 l/m 3,5 km/h (1 Bft) NW 304 2 min 0,000 mm 3,1 UV-I 671 W/m 9,3 C 18,2 C 6,4 km/h (2 Bft) 100,00 %
04.09.2017 14:54 18,3 C 18,9 C 55 % 1017,1 hPa 0,0 l/m 2,0 km/h (1 Bft) NW 321 2 min 0,000 mm 3,1 UV-I 669 W/m 9,1 C 18,3 C 4,8 km/h (1 Bft) 98,00 %
04.09.2017 14:56 18,3 C 19,4 C 53 % 1017,1 hPa 0,0 l/m 1,0 km/h (0 Bft) N-NW 332 2 min 0,000 mm 3,1 UV-I 666 W/m 8,6 C 18,3 C 1,6 km/h (1 Bft) 100,00 %
04.09.2017 14:58 18,3 C 19,4 C 58 % 1017,1 hPa 0,0 l/m 1,8 km/h (1 Bft) W-NW 285 2 min 0,000 mm 3,0 UV-I 663 W/m 9,9 C 18,3 C 4,8 km/h (1 Bft) 100,00 %
04.09.2017 15:00 18,4 C 19,4 C 52 % 1017,1 hPa 0,0 l/m 5,3 km/h (1 Bft) W-NW 288 2 min 0,407 mm 3,0 UV-I 663 W/m 8,4 C 18,4 C 9,7 km/h (2 Bft) 97,87 %
04.09.2017 15:02 18,3 C 19,4 C 51 % 1017,1 hPa 0,0 l/m 3,0 km/h (1 Bft) W-NW 295 2 min 0,000 mm 3,0 UV-I 660 W/m 8,0 C 18,3 C 8,0 km/h (2 Bft) 100,00 %
04.09.2017 15:04 18,5 C 19,4 C 56 % 1017,1 hPa 0,0 l/m 3,0 km/h (1 Bft) NW 323 2 min 0,000 mm 2,9 UV-I 655 W/m 9,6 C 18,5 C 6,4 km/h (2 Bft) 97,87 %
04.09.2017 15:06 18,6 C 19,4 C 54 % 1017,1 hPa 0,0 l/m 2,5 km/h (1 Bft) NW 305 2 min 0,000 mm 2,9 UV-I 649 W/m 9,1 C 18,6 C 6,4 km/h (2 Bft) 100,00 %
04.09.2017 15:08 18,6 C 19,4 C 57 % 1017,1 hPa 0,0 l/m 2,1 km/h (1 Bft) NW 312 2 min 0,000 mm 2,9 UV-I 646 W/m 9,9 C 18,6 C 6,4 km/h (2 Bft) 100,00 %
04.09.2017 15:10 18,6 C 19,4 C 52 % 1017,0 hPa 0,0 l/m 3,2 km/h (1 Bft) NW 311 2 min 0,000 mm 2,8 UV-I 642 W/m 8,5 C 18,6 C 8,0 km/h (2 Bft) 100,00 %
04.09.2017 15:12 18,5 C 19,4 C 56 % 1017,0 hPa 0,0 l/m 1,4 km/h (1 Bft) NW 311 2 min 0,000 mm 2,8 UV-I 642 W/m 9,6 C 18,5 C 4,8 km/h (1 Bft) 95,74 %
04.09.2017 15:14 18,5 C 19,4 C 53 % 1017,0 hPa 0,0 l/m 1,8 km/h (1 Bft) W-NW 303 2 min 0,000 mm 2,8 UV-I 637 W/m 8,7 C 18,5 C 4,8 km/h (1 Bft) 100,00 %
04.09.2017 15:16 18,5 C 19,4 C 53 % 1017,0 hPa 0,0 l/m 2,4 km/h (1 Bft) N-NO 19 2 min 0,000 mm 2,7 UV-I 629 W/m 8,7 C 18,5 C 6,4 km/h (2 Bft) 100,00 %
04.09.2017 15:18 18,7 C 19,4 C 56 % 1017,0 hPa 0,0 l/m 4,0 km/h (1 Bft) N-NO 32 2 min 0,000 mm 2,7 UV-I 624 W/m 9,7 C 18,7 C 8,0 km/h (2 Bft) 100,00 %
04.09.2017 15:20 18,7 C 19,4 C 55 % 1017,0 hPa 0,0 l/m 2,3 km/h (1 Bft) N 11 2 min 0,000 mm 2,7 UV-I 620 W/m 9,5 C 18,7 C 4,8 km/h (1 Bft) 100,00 %
04.09.2017 15:22 18,7 C 19,4 C 53 % 1017,0 hPa 0,0 l/m 1,5 km/h (1 Bft) W-SW 255 2 min 0,000 mm 2,6 UV-I 618 W/m 8,9 C 18,7 C 4,8 km/h (1 Bft) 100,00 %
04.09.2017 15:24 18,8 C 19,4 C 53 % 1017,0 hPa 0,0 l/m 4,8 km/h (1 Bft) W 277 2 min 0,000 mm 2,6 UV-I 615 W/m 9,0 C 18,8 C 6,4 km/h (2 Bft) 100,00 %
04.09.2017 15:26 18,9 C 19,4 C 54 % 1017,0 hPa 0,0 l/m 8,5 km/h (2 Bft) W-NW 302 2 min 0,000 mm 2,6 UV-I 612 W/m 9,4 C 18,0 C 12,9 km/h (3 Bft) 97,87 %
04.09.2017 15:28 18,9 C 19,4 C 53 % 1017,0 hPa 0,0 l/m 3,7 km/h (1 Bft) N-NW 329 2 min 0,000 mm 2,5 UV-I 608 W/m 9,1 C 18,9 C 6,4 km/h (2 Bft) 95,83 %
04.09.2017 15:30 18,8 C 19,4 C 52 % 1016,9 hPa 0,0 l/m 1,4 km/h (1 Bft) N-NW 327 2 min 0,000 mm 2,5 UV-I 602 W/m 8,7 C 18,8 C 3,2 km/h (1 Bft) 95,74 %
04.09.2017 15:32 18,7 C 19,4 C 56 % 1017,0 hPa 0,0 l/m 0,7 km/h (0 Bft) N-NW 331 2 min 0,000 mm 2,5 UV-I 596 W/m 9,7 C 18,7 C 1,6 km/h (1 Bft) 93,62 %
04.09.2017 15:34 18,9 C 19,4 C 55 % 1017,0 hPa 0,0 l/m 2,1 km/h (1 Bft) O 84 2 min 0,000 mm 2,4 UV-I 591 W/m 9,7 C 18,9 C 4,8 km/h (1 Bft) 95,74 %
04.09.2017 15:36 18,9 C 19,4 C 54 % 1016,9 hPa 0,0 l/m 6,7 km/h (2 Bft) SW 235 2 min 0,000 mm 2,4 UV-I 587 W/m 9,4 C 18,8 C 11,3 km/h (2 Bft) 95,74 %
04.09.2017 15:38 18,9 C 19,4 C 55 % 1017,0 hPa 0,0 l/m 6,0 km/h (2 Bft) W-NW 291 2 min 0,000 mm 2,4 UV-I 586 W/m 9,7 C 18,9 C 9,7 km/h (2 Bft) 97,87 %
04.09.2017 15:40 18,9 C 19,4 C 53 % 1016,9 hPa 0,0 l/m 5,9 km/h (2 Bft) W-SW 257 2 min 0,000 mm 2,3 UV-I 581 W/m 9,1 C 18,9 C 9,7 km/h (2 Bft) 97,87 %
04.09.2017 15:42 18,8 C 19,4 C 54 % 1017,0 hPa 0,0 l/m 4,5 km/h (1 Bft) SW 227 2 min 0,000 mm 2,3 UV-I 578 W/m 9,3 C 18,8 C 6,4 km/h (2 Bft) 98,00 %
04.09.2017 15:44 18,8 C 19,4 C 54 % 1016,9 hPa 0,0 l/m 2,7 km/h (1 Bft) W-SW 241 2 min 0,000 mm 2,3 UV-I 573 W/m 9,3 C 18,8 C 8,0 km/h (2 Bft) 97,87 %
04.09.2017 15:46 18,7 C 19,4 C 54 % 1016,9 hPa 0,0 l/m 5,2 km/h (1 Bft) SW 232 2 min 0,000 mm 2,2 UV-I 570 W/m 9,2 C 18,7 C 9,7 km/h (2 Bft) 94,00 %
04.09.2017 15:48 18,8 C 19,4 C 54 % 1016,9 hPa 0,0 l/m 5,1 km/h (1 Bft) SW 225 2 min 0,000 mm 2,2 UV-I 568 W/m 9,3 C 18,8 C 9,7 km/h (2 Bft) 95,74 %
04.09.2017 15:50 18,8 C 19,4 C 54 % 1016,9 hPa 0,0 l/m 2,6 km/h (1 Bft) SW 225 2 min 0,000 mm 2,2 UV-I 561 W/m 9,3 C 18,8 C 4,8 km/h (1 Bft) 95,74 %
04.09.2017 15:52 18,9 C 19,4 C 55 % 1016,9 hPa 0,0 l/m 0,8 km/h (0 Bft) SW 225 2 min 0,000 mm 2,1 UV-I 553 W/m 9,7 C 18,9 C 3,2 km/h (1 Bft) 93,62 %
04.09.2017 15:54 19,1 C 19,4 C 55 % 1016,9 hPa 0,0 l/m 2,9 km/h (1 Bft) W 265 2 min 0,000 mm 2,1 UV-I 544 W/m 9,8 C 19,1 C 6,4 km/h (2 Bft) 97,87 %
04.09.2017 15:56 19,2 C 19,4 C 55 % 1016,9 hPa 0,0 l/m 3,4 km/h (1 Bft) S-SW 204 2 min 0,000 mm 2,0 UV-I 540 W/m 9,9 C 19,2 C 6,4 km/h (2 Bft) 97,87 %
04.09.2017 15:58 19,2 C 19,4 C 57 % 1016,9 hPa 0,0 l/m 2,2 km/h (1 Bft) NW 318 2 min 0,000 mm 2,0 UV-I 534 W/m 10,5 C 19,2 C 4,8 km/h (1 Bft) 97,87 %
04.09.2017 16:00 19,2 C 19,4 C 57 % 1016,9 hPa 0,0 l/m 2,7 km/h (1 Bft) W-NW 290 2 min 0,355 mm 2,0 UV-I 529 W/m 10,5 C 19,2 C 6,4 km/h (2 Bft) 100,00 %
04.09.2017 16:02 19,1 C 19,4 C 55 % 1016,9 hPa 0,0 l/m 5,3 km/h (1 Bft) W 272 2 min 0,000 mm 1,9 UV-I 526 W/m 9,8 C 19,1 C 9,7 km/h (2 Bft) 97,87 %
04.09.2017 16:04 18,9 C 19,4 C 52 % 1016,9 hPa 0,0 l/m 2,0 km/h (1 Bft) W 272 2 min 0,000 mm 1,9 UV-I 523 W/m 8,8 C 18,9 C 6,4 km/h (2 Bft) 100,00 %
04.09.2017 16:06 18,9 C 19,4 C 55 % 1016,8 hPa 0,0 l/m 1,6 km/h (1 Bft) W-NW 294 2 min 0,000 mm 1,9 UV-I 516 W/m 9,7 C 18,9 C 3,2 km/h (1 Bft) 100,00 %
04.09.2017 16:08 18,9 C 19,4 C 54 % 1016,8 hPa 0,0 l/m 2,2 km/h (1 Bft) N-NW 337 2 min 0,000 mm 1,8 UV-I 511 W/m 9,4 C 18,9 C 4,8 km/h (1 Bft) 100,00 %
04.09.2017 16:10 18,9 C 19,4 C 56 % 1016,7 hPa 0,0 l/m 1,3 km/h (1 Bft) N-NW 338 2 min 0,000 mm 1,8 UV-I 509 W/m 9,9 C 18,9 C 3,2 km/h (1 Bft) 97,87 %
04.09.2017 16:12 18,9 C 19,4 C 55 % 1016,7 hPa 0,0 l/m 0,6 km/h (0 Bft) N-NW 338 2 min 0,000 mm 1,8 UV-I 506 W/m 9,7 C 18,9 C 3,2 km/h (1 Bft) 100,00 %
04.09.2017 16:14 19,1 C 19,4 C 55 % 1016,7 hPa 0,0 l/m 3,5 km/h (1 Bft) W 277 2 min 0,000 mm 1,7 UV-I 501 W/m 9,8 C 19,1 C 9,7 km/h (2 Bft) 98,00 %
04.09.2017 16:16 19,0 C 19,4 C 54 % 1016,7 hPa 0,0 l/m 3,4 km/h (1 Bft) W 278 2 min 0,000 mm 1,7 UV-I 496 W/m 9,5 C 19,0 C 4,8 km/h (1 Bft) 97,87 %
04.09.2017 16:18 19,0 C 19,4 C 54 % 1016,7 hPa 0,0 l/m 2,6 km/h (1 Bft) NW 311 2 min 0,000 mm 1,7 UV-I 492 W/m 9,5 C 19,0 C 4,8 km/h (1 Bft) 97,87 %
04.09.2017 16:20 19,0 C 19,4 C 57 % 1016,7 hPa 0,0 l/m 3,0 km/h (1 Bft) W-SW 250 2 min 0,000 mm 1,6 UV-I 489 W/m 10,3 C 19,0 C 6,4 km/h (2 Bft) 97,87 %
04.09.2017 16:22 19,1 C 19,4 C 55 % 1016,7 hPa 0,0 l/m 5,4 km/h (1 Bft) W 274 2 min 0,000 mm 1,6 UV-I 485 W/m 9,8 C 19,1 C 9,7 km/h (2 Bft) 97,87 %
04.09.2017 16:24 19,1 C 19,4 C 56 % 1016,6 hPa 0,0 l/m 4,6 km/h (1 Bft) W-NW 292 2 min 0,000 mm 1,6 UV-I 480 W/m 10,1 C 19,1 C 9,7 km/h (2 Bft) 100,00 %
04.09.2017 16:26 19,2 C 19,4 C 58 % 1016,6 hPa 0,0 l/m 0,9 km/h (0 Bft) W-NW 292 2 min 0,000 mm 1,6 UV-I 475 W/m 10,7 C 19,2 C 1,6 km/h (1 Bft) 97,87 %
04.09.2017 16:28 19,1 C 19,4 C 55 % 1016,5 hPa 0,0 l/m 1,7 km/h (1 Bft) W-NW 292 2 min 0,000 mm 1,5 UV-I 470 W/m 9,8 C 19,1 C 4,8 km/h (1 Bft) 100,00 %
04.09.2017 16:30 19,2 C 19,4 C 55 % 1016,6 hPa 0,0 l/m 3,9 km/h (1 Bft) W-SW 248 2 min 0,000 mm 1,5 UV-I 462 W/m 9,9 C 19,2 C 6,4 km/h (2 Bft) 100,00 %
04.09.2017 16:32 19,2 C 19,4 C 57 % 1016,5 hPa 0,0 l/m 2,4 km/h (1 Bft) NW 315 2 min 0,000 mm 1,4 UV-I 456 W/m 10,5 C 19,2 C 6,4 km/h (2 Bft) 100,00 %
04.09.2017 16:34 19,2 C 19,4 C 55 % 1016,5 hPa 0,0 l/m 1,1 km/h (1 Bft) NW 314 2 min 0,000 mm 1,4 UV-I 454 W/m 9,9 C 19,2 C 4,8 km/h (1 Bft) 98,00 %
04.09.2017 16:36 19,1 C 19,4 C 58 % 1016,6 hPa 0,0 l/m 1,3 km/h (1 Bft) W-NW 302 2 min 0,000 mm 1,3 UV-I 438 W/m 10,6 C 19,1 C 4,8 km/h (1 Bft) 100,00 %
04.09.2017 16:38 19,0 C 19,4 C 56 % 1016,5 hPa 0,0 l/m 2,1 km/h (1 Bft) NW 316 2 min 0,000 mm 1,3 UV-I 376 W/m 10,0 C 19,0 C 4,8 km/h (1 Bft) 100,00 %
04.09.2017 16:40 19,0 C 19,4 C 63 % 1016,5 hPa 0,0 l/m 1,8 km/h (1 Bft) N-NW 346 2 min 0,000 mm 1,3 UV-I 380 W/m 11,8 C 19,0 C 4,8 km/h (1 Bft) 97,87 %
04.09.2017 16:42 19,1 C 19,4 C 62 % 1016,6 hPa 0,0 l/m 1,1 km/h (1 Bft) N-NW 346 2 min 0,000 mm 1,3 UV-I 416 W/m 11,6 C 19,1 C 3,2 km/h (1 Bft) 97,87 %
04.09.2017 16:44 19,1 C 19,4 C 58 % 1016,5 hPa 0,0 l/m 1,9 km/h (1 Bft) NW 314 2 min 0,000 mm 1,3 UV-I 416 W/m 10,6 C 19,1 C 4,8 km/h (1 Bft) 100,00 %
04.09.2017 16:46 19,1 C 19,4 C 57 % 1016,6 hPa 0,0 l/m 0,7 km/h (0 Bft) NW 314 2 min 0,000 mm 1,2 UV-I 414 W/m 10,4 C 19,1 C 1,6 km/h (1 Bft) 97,87 %
04.09.2017 16:48 19,1 C 19,4 C 58 % 1016,5 hPa 0,0 l/m 1,1 km/h (1 Bft) NW 314 2 min 0,000 mm 1,2 UV-I 411 W/m 10,6 C 19,1 C 3,2 km/h (1 Bft) 97,87 %
04.09.2017 16:50 19,1 C 19,4 C 58 % 1016,6 hPa 0,0 l/m 2,5 km/h (1 Bft) W 277 2 min 0,000 mm 1,2 UV-I 404 W/m 10,6 C 19,1 C 4,8 km/h (1 Bft) 100,00 %
04.09.2017 16:52 19,2 C 19,4 C 57 % 1016,5 hPa 0,0 l/m 7,8 km/h (2 Bft) W 275 2 min 0,000 mm 1,1 UV-I 399 W/m 10,5 C 18,6 C 12,9 km/h (3 Bft) 100,00 %
04.09.2017 16:54 19,2 C 19,4 C 56 % 1016,6 hPa 0,0 l/m 5,9 km/h (2 Bft) W 260 2 min 0,000 mm 1,1 UV-I 392 W/m 10,2 C 19,2 C 11,3 km/h (2 Bft) 100,00 %
04.09.2017 16:56 19,2 C 19,4 C 57 % 1016,6 hPa 0,0 l/m 2,7 km/h (1 Bft) W 259 2 min 0,000 mm 1,1 UV-I 388 W/m 10,5 C 19,2 C 4,8 km/h (1 Bft) 100,00 %
04.09.2017 16:58 19,2 C 19,4 C 57 % 1016,6 hPa 0,0 l/m 0,6 km/h (0 Bft) W 259 2 min 0,000 mm 1,1 UV-I 378 W/m 10,5 C 19,2 C 3,2 km/h (1 Bft) 100,00 %
04.09.2017 17:00 19,3 C 19,4 C 60 % 1016,6 hPa 0,0 l/m 2,3 km/h (1 Bft) W-NW 300 2 min 0,280 mm 1,0 UV-I 372 W/m 11,3 C 19,3 C 8,0 km/h (2 Bft) 97,87 %
04.09.2017 17:02 19,2 C 19,4 C 57 % 1016,6 hPa 0,0 l/m 3,5 km/h (1 Bft) N-NO 13 2 min 0,000 mm 1,0 UV-I 361 W/m 10,5 C 19,2 C 8,0 km/h (2 Bft) 97,87 %
04.09.2017 17:04 19,1 C 19,4 C 57 % 1016,6 hPa 0,0 l/m 1,8 km/h (1 Bft) SW 234 2 min 0,000 mm 1,0 UV-I 355 W/m 10,4 C 19,1 C 4,8 km/h (1 Bft) 100,00 %
04.09.2017 17:06 19,1 C 19,4 C 58 % 1016,6 hPa 0,0 l/m 2,1 km/h (1 Bft) W 264 2 min 0,000 mm 0,9 UV-I 353 W/m 10,6 C 19,1 C 4,8 km/h (1 Bft) 100,00 %
04.09.2017 17:08 19,1 C 19,4 C 58 % 1016,6 hPa 0,0 l/m 2,4 km/h (1 Bft) W-NW 286 2 min 0,000 mm 0,9 UV-I 346 W/m 10,6 C 19,1 C 6,4 km/h (2 Bft) 97,87 %
04.09.2017 17:10 19,0 C 19,4 C 61 % 1016,6 hPa 0,0 l/m 1,8 km/h (1 Bft) N 351 2 min 0,000 mm 0,9 UV-I 336 W/m 11,3 C 19,0 C 4,8 km/h (1 Bft) 100,00 %
04.09.2017 17:12 19,0 C 19,4 C 57 % 1016,6 hPa 0,0 l/m 2,0 km/h (1 Bft) NW 306 2 min 0,000 mm 0,8 UV-I 324 W/m 10,3 C 19,0 C 3,2 km/h (1 Bft) 96,00 %
04.09.2017 17:14 18,9 C 19,4 C 55 % 1016,6 hPa 0,0 l/m 2,4 km/h (1 Bft) N 355 2 min 0,000 mm 0,8 UV-I 324 W/m 9,7 C 18,9 C 4,8 km/h (1 Bft) 100,00 %
04.09.2017 17:16 18,9 C 19,4 C 55 % 1016,6 hPa 0,0 l/m 1,1 km/h (1 Bft) N-NW 338 2 min 0,000 mm 0,8 UV-I 322 W/m 9,7 C 18,9 C 3,2 km/h (1 Bft) 98,00 %
04.09.2017 17:18 19,0 C 19,4 C 58 % 1016,6 hPa 0,0 l/m 0,9 km/h (0 Bft) N-NW 344 2 min 0,000 mm 0,8 UV-I 321 W/m 10,5 C 19,0 C 1,6 km/h (1 Bft) 97,37 %
04.09.2017 17:20 18,9 C 19,4 C 58 % 1016,6 hPa 0,0 l/m 1,0 km/h (0 Bft) NW 313 2 min 0,000 mm 0,8 UV-I 317 W/m 10,5 C 18,9 C 4,8 km/h (1 Bft) 96,00 %
04.09.2017 17:22 18,9 C 19,4 C 60 % 1016,5 hPa 0,0 l/m 1,0 km/h (0 Bft) N-NW 342 2 min 0,000 mm 0,8 UV-I 310 W/m 11,0 C 18,9 C 3,2 km/h (1 Bft) 100,00 %
04.09.2017 17:24 18,8 C 19,4 C 59 % 1016,5 hPa 0,0 l/m 1,3 km/h (1 Bft) N 349 2 min 0,000 mm 0,7 UV-I 303 W/m 10,6 C 18,8 C 3,2 km/h (1 Bft) 97,87 %
04.09.2017 17:26 18,8 C 19,4 C 60 % 1016,6 hPa 0,0 l/m 1,7 km/h (1 Bft) N-NO 13 2 min 0,000 mm 0,7 UV-I 299 W/m 10,9 C 18,8 C 4,8 km/h (1 Bft) 95,74 %
04.09.2017 17:28 18,8 C 19,4 C 60 % 1016,6 hPa 0,0 l/m 2,6 km/h (1 Bft) N-NW 330 2 min 0,000 mm 0,7 UV-I 293 W/m 10,9 C 18,8 C 4,8 km/h (1 Bft) 96,00 %
04.09.2017 17:30 18,8 C 19,4 C 57 % 1016,6 hPa 0,0 l/m 3,3 km/h (1 Bft) NW 311 2 min 0,000 mm 0,7 UV-I 290 W/m 10,1 C 18,8 C 6,4 km/h (2 Bft) 95,74 %
04.09.2017 17:32 18,8 C 19,4 C 57 % 1016,6 hPa 0,0 l/m 1,2 km/h (1 Bft) NW 311 2 min 0,000 mm 0,6 UV-I 285 W/m 10,1 C 18,8 C 3,2 km/h (1 Bft) 97,92 %
04.09.2017 17:34 18,8 C 19,4 C 57 % 1016,6 hPa 0,0 l/m 1,3 km/h (1 Bft) NW 323 2 min 0,000 mm 0,6 UV-I 277 W/m 10,1 C 18,8 C 3,2 km/h (1 Bft) 95,74 %
04.09.2017 17:36 18,9 C 19,4 C 57 % 1016,6 hPa 0,0 l/m 2,0 km/h (1 Bft) NO 54 2 min 0,000 mm 0,6 UV-I 271 W/m 10,2 C 18,9 C 6,4 km/h (2 Bft) 95,74 %
04.09.2017 17:38 19,0 C 19,4 C 57 % 1016,6 hPa 0,0 l/m 2,7 km/h (1 Bft) N-NW 340 2 min 0,000 mm 0,6 UV-I 264 W/m 10,3 C 19,0 C 6,4 km/h (2 Bft) 95,74 %
04.09.2017 17:40 18,9 C 19,4 C 57 % 1016,6 hPa 0,0 l/m 3,4 km/h (1 Bft) NW 326 2 min 0,000 mm 0,6 UV-I 258 W/m 10,2 C 18,9 C 8,0 km/h (2 Bft) 93,62 %
04.09.2017 17:42 18,8 C 19,4 C 57 % 1016,6 hPa 0,0 l/m 1,6 km/h (1 Bft) N 11 2 min 0,000 mm 0,5 UV-I 252 W/m 10,1 C 18,8 C 3,2 km/h (1 Bft) 93,62 %
04.09.2017 17:44 18,8 C 19,4 C 59 % 1016,6 hPa 0,0 l/m 2,0 km/h (1 Bft) NW 324 2 min 0,000 mm 0,5 UV-I 248 W/m 10,6 C 18,8 C 4,8 km/h (1 Bft) 91,89 %
04.09.2017 17:46 18,7 C 19,4 C 58 % 1016,6 hPa 0,0 l/m 1,7 km/h (1 Bft) NW 323 2 min 0,000 mm 0,5 UV-I 239 W/m 10,3 C 18,7 C 4,8 km/h (1 Bft) 96,00 %
04.09.2017 17:48 18,7 C 19,4 C 55 % 1016,6 hPa 0,0 l/m 2,3 km/h (1 Bft) N-NW 347 2 min 0,000 mm 0,5 UV-I 233 W/m 9,5 C 18,7 C 4,8 km/h (1 Bft) 95,74 %
04.09.2017 17:50 18,7 C 19,4 C 57 % 1016,6 hPa 0,0 l/m 0,8 km/h (0 Bft) N 350 2 min 0,000 mm 0,5 UV-I 226 W/m 10,0 C 18,7 C 1,6 km/h (1 Bft) 92,00 %
04.09.2017 17:52 18,7 C 19,4 C 57 % 1016,6 hPa 0,0 l/m 1,8 km/h (1 Bft) N-NW 344 2 min 0,000 mm 0,1 UV-I 221 W/m 10,0 C 18,7 C 4,8 km/h (1 Bft) 93,62 %
04.09.2017 17:54 18,8 C 19,4 C 56 % 1016,6 hPa 0,0 l/m 1,9 km/h (1 Bft) N 355 2 min 0,000 mm 0,0 UV-I 214 W/m 9,8 C 18,8 C 3,2 km/h (1 Bft) 93,62 %
04.09.2017 17:56 18,8 C 19,4 C 56 % 1016,6 hPa 0,0 l/m 2,7 km/h (1 Bft) SW 229 2 min 0,000 mm 0,0 UV-I 210 W/m 9,8 C 18,8 C 6,4 km/h (2 Bft) 93,62 %
04.09.2017 17:58 18,7 C 19,4 C 58 % 1016,6 hPa 0,0 l/m 1,6 km/h (1 Bft) SW 236 2 min 0,000 mm 0,0 UV-I 203 W/m 10,3 C 18,7 C 3,2 km/h (1 Bft) 97,37 %
04.09.2017 18:00 18,7 C 19,4 C 56 % 1016,7 hPa 0,0 l/m 0,4 km/h (0 Bft) SW 236 2 min 0,000 mm 0,0 UV-I 197 W/m 9,7 C 18,7 C 1,6 km/h (1 Bft) 97,87 %
04.09.2017 18:02 18,8 C 19,4 C 59 % 1016,7 hPa 0,0 l/m 0,8 km/h (0 Bft) SW 236 2 min 0,177 mm 0,0 UV-I 192 W/m 10,6 C 18,8 C 3,2 km/h (1 Bft) 98,00 %
04.09.2017 18:04 18,8 C 19,4 C 57 % 1016,7 hPa 0,0 l/m 1,4 km/h (1 Bft) SW 236 2 min 0,000 mm 0,0 UV-I 187 W/m 10,1 C 18,8 C 3,2 km/h (1 Bft) 97,87 %
04.09.2017 18:06 18,8 C 19,4 C 61 % 1016,7 hPa 0,0 l/m 1,5 km/h (1 Bft) W-SW 238 2 min 0,000 mm 0,0 UV-I 182 W/m 11,1 C 18,8 C 3,2 km/h (1 Bft) 97,92 %
04.09.2017 18:08 18,7 C 19,4 C 56 % 1016,7 hPa 0,0 l/m 1,5 km/h (1 Bft) N-NW 332 2 min 0,000 mm 0,0 UV-I 178 W/m 9,7 C 18,7 C 4,8 km/h (1 Bft) 97,87 %
04.09.2017 18:10 18,6 C 19,4 C 56 % 1016,7 hPa 0,0 l/m 1,3 km/h (1 Bft) N-NW 332 2 min 0,000 mm 0,0 UV-I 172 W/m 9,6 C 18,6 C 3,2 km/h (1 Bft) 96,00 %
04.09.2017 18:12 18,6 C 19,4 C 57 % 1016,7 hPa 0,0 l/m 1,6 km/h (1 Bft) NW 308 2 min 0,000 mm 0,0 UV-I 165 W/m 9,9 C 18,6 C 6,4 km/h (2 Bft) 96,00 %
04.09.2017 18:14 18,5 C 19,4 C 57 % 1016,8 hPa 0,0 l/m 1,4 km/h (1 Bft) W 268 2 min 0,000 mm 0,0 UV-I 159 W/m 9,8 C 18,5 C 4,8 km/h (1 Bft) 95,74 %
04.09.2017 18:16 18,4 C 19,4 C 58 % 1016,8 hPa 0,0 l/m 1,2 km/h (1 Bft) W 281 2 min 0,000 mm 0,0 UV-I 154 W/m 10,0 C 18,4 C 3,2 km/h (1 Bft) 97,87 %
04.09.2017 18:18 18,4 C 19,4 C 56 % 1016,8 hPa 0,0 l/m 2,2 km/h (1 Bft) W-SW 244 2 min 0,000 mm 0,0 UV-I 146 W/m 9,5 C 18,4 C 6,4 km/h (2 Bft) 100,00 %
04.09.2017 18:20 18,3 C 19,4 C 56 % 1016,8 hPa 0,0 l/m 1,3 km/h (1 Bft) W-SW 244 2 min 0,000 mm 0,0 UV-I 140 W/m 9,4 C 18,3 C 3,2 km/h (1 Bft) 96,15 %
04.09.2017 18:22 18,3 C 19,4 C 58 % 1016,8 hPa 0,0 l/m 1,1 km/h (1 Bft) W-SW 245 2 min 0,000 mm 0,0 UV-I 136 W/m 9,9 C 18,3 C 3,2 km/h (1 Bft) 93,62 %
04.09.2017 18:24 18,3 C 19,4 C 61 % 1016,8 hPa 0,0 l/m 2,1 km/h (1 Bft) N-NW 329 2 min 0,000 mm 0,0 UV-I 134 W/m 10,6 C 18,3 C 4,8 km/h (1 Bft) 98,00 %
04.09.2017 18:26 18,2 C 19,4 C 60 % 1016,8 hPa 0,0 l/m 1,2 km/h (1 Bft) N-NW 331 2 min 0,000 mm 0,0 UV-I 129 W/m 10,3 C 18,2 C 3,2 km/h (1 Bft) 97,87 %
04.09.2017 18:28 18,2 C 19,4 C 59 % 1016,8 hPa 0,0 l/m 0,6 km/h (0 Bft) N-NW 331 2 min 0,000 mm 0,0 UV-I 127 W/m 10,1 C 18,2 C 3,2 km/h (1 Bft) 97,87 %
04.09.2017 18:30 18,2 C 19,4 C 61 % 1016,8 hPa 0,0 l/m 0,3 km/h (0 Bft) N-NW 331 2 min 0,000 mm 0,0 UV-I 123 W/m 10,6 C 18,2 C 1,6 km/h (1 Bft) 97,96 %
04.09.2017 18:32 18,1 C 19,4 C 59 % 1016,9 hPa 0,0 l/m 2,1 km/h (1 Bft) N-NW 342 2 min 0,000 mm 0,0 UV-I 118 W/m 10,0 C 18,1 C 6,4 km/h (2 Bft) 95,74 %
04.09.2017 18:34 18,1 C 19,4 C 61 % 1016,9 hPa 0,0 l/m 0,7 km/h (0 Bft) N-NW 341 2 min 0,000 mm 0,0 UV-I 113 W/m 10,5 C 18,1 C 3,2 km/h (1 Bft) 97,87 %
04.09.2017 18:36 18,0 C 19,4 C 59 % 1016,9 hPa 0,0 l/m 2,4 km/h (1 Bft) NW 323 2 min 0,000 mm 0,0 UV-I 109 W/m 9,9 C 18,0 C 6,4 km/h (2 Bft) 91,43 %
04.09.2017 18:38 17,9 C 19,4 C 59 % 1016,9 hPa 0,0 l/m 1,6 km/h (1 Bft) NW 315 2 min 0,000 mm 0,0 UV-I 104 W/m 9,8 C 17,9 C 3,2 km/h (1 Bft) 97,87 %
04.09.2017 18:40 17,9 C 19,4 C 59 % 1016,9 hPa 0,0 l/m 2,8 km/h (1 Bft) N 9 2 min 0,000 mm 0,0 UV-I 99 W/m 9,8 C 17,9 C 6,4 km/h (2 Bft) 97,87 %
04.09.2017 18:42 17,8 C 19,4 C 60 % 1016,9 hPa 0,0 l/m 1,7 km/h (1 Bft) N 5 2 min 0,000 mm 0,0 UV-I 95 W/m 9,9 C 17,8 C 4,8 km/h (1 Bft) 97,22 %
04.09.2017 18:44 17,6 C 19,4 C 60 % 1016,9 hPa 0,0 l/m 1,7 km/h (1 Bft) N 355 2 min 0,000 mm 0,0 UV-I 91 W/m 9,7 C 17,6 C 3,2 km/h (1 Bft) 96,72 %
04.09.2017 18:46 17,6 C 19,4 C 61 % 1017,0 hPa 0,0 l/m 1,6 km/h (1 Bft) N 349 2 min 0,000 mm 0,0 UV-I 85 W/m 10,0 C 17,6 C 4,8 km/h (1 Bft) 95,83 %
04.09.2017 18:48 17,5 C 19,4 C 61 % 1017,0 hPa 0,0 l/m 2,0 km/h (1 Bft) N-NW 344 2 min 0,000 mm 0,0 UV-I 81 W/m 9,9 C 17,5 C 3,2 km/h (1 Bft) 98,00 %
04.09.2017 18:50 17,4 C 19,4 C 63 % 1017,0 hPa 0,0 l/m 0,7 km/h (0 Bft) N-NW 344 2 min 0,000 mm 0,0 UV-I 76 W/m 10,3 C 17,4 C 3,2 km/h (1 Bft) 95,74 %
04.09.2017 18:52 17,3 C 19,4 C 62 % 1017,1 hPa 0,0 l/m 0,8 km/h (0 Bft) N-NW 344 2 min 0,000 mm 0,0 UV-I 74 W/m 9,9 C 17,3 C 4,8 km/h (1 Bft) 95,74 %
04.09.2017 18:54 17,3 C 19,4 C 63 % 1017,1 hPa 0,0 l/m 0,9 km/h (0 Bft) N-NW 344 2 min 0,000 mm 0,0 UV-I 69 W/m 10,2 C 17,3 C 3,2 km/h (1 Bft) 98,00 %
04.09.2017 18:56 17,3 C 19,4 C 63 % 1017,1 hPa 0,0 l/m 0,1 km/h (0 Bft) N-NW 344 2 min 0,000 mm 0,0 UV-I 66 W/m 10,2 C 17,3 C 1,6 km/h (1 Bft) 93,62 %
04.09.2017 18:58 17,2 C 19,4 C 62 % 1017,2 hPa 0,0 l/m 0,3 km/h (0 Bft) N-NW 344 2 min 0,000 mm 0,0 UV-I 62 W/m 9,9 C 17,2 C 3,2 km/h (1 Bft) 94,29 %
04.09.2017 19:00 17,2 C 19,4 C 64 % 1017,2 hPa 0,0 l/m 0,6 km/h (0 Bft) N-NW 344 2 min 0,077 mm 0,0 UV-I 59 W/m 10,3 C 17,2 C 3,2 km/h (1 Bft) 98,00 %
04.09.2017 19:02 17,1 C 19,4 C 65 % 1017,1 hPa 0,0 l/m 0,4 km/h (0 Bft) N-NW 344 2 min 0,000 mm 0,0 UV-I 55 W/m 10,5 C 17,1 C 3,2 km/h (1 Bft) 97,87 %
04.09.2017 19:04 17,0 C 19,4 C 67 % 1017,1 hPa 0,0 l/m 0,0 km/h (0 Bft) N-NW 344 2 min 0,000 mm 0,0 UV-I 53 W/m 10,8 C 17,0 C 0,0 km/h (0 Bft) 93,62 %
04.09.2017 19:06 16,8 C 19,4 C 67 % 1017,2 hPa 0,0 l/m 0,0 km/h (0 Bft) N-NW 344 2 min 0,000 mm 0,0 UV-I 49 W/m 10,6 C 16,8 C 0,0 km/h (0 Bft) 97,87 %
04.09.2017 19:08 16,8 C 19,4 C 68 % 1017,1 hPa 0,0 l/m 0,0 km/h (0 Bft) N-NW 344 2 min 0,000 mm 0,0 UV-I 45 W/m 10,9 C 16,8 C 0,0 km/h (0 Bft) 95,74 %
04.09.2017 19:10 16,7 C 19,4 C 66 % 1017,1 hPa 0,0 l/m 0,0 km/h (0 Bft) N-NW 344 2 min 0,000 mm 0,0 UV-I 41 W/m 10,3 C 16,7 C 0,0 km/h (0 Bft) 97,87 %
04.09.2017 19:12 16,6 C 19,4 C 68 % 1017,1 hPa 0,0 l/m 0,0 km/h (0 Bft) N-NW 344 2 min 0,000 mm 0,0 UV-I 38 W/m 10,7 C 16,6 C 0,0 km/h (0 Bft) 97,92 %
04.09.2017 19:14 16,6 C 19,4 C 67 % 1017,1 hPa 0,0 l/m 0,0 km/h (0 Bft) N-NW 344 2 min 0,000 mm 0,0 UV-I 35 W/m 10,4 C 16,6 C 0,0 km/h (0 Bft) 93,62 %
04.09.2017 19:16 16,5 C 19,4 C 68 % 1017,1 hPa 0,0 l/m 0,2 km/h (0 Bft) N-NW 344 2 min 0,000 mm 0,0 UV-I 32 W/m 10,6 C 16,5 C 1,6 km/h (1 Bft) 96,00 %
04.09.2017 19:18 16,4 C 19,4 C 67 % 1017,1 hPa 0,0 l/m 0,0 km/h (0 Bft) N-NW 344 2 min 0,000 mm 0,0 UV-I 30 W/m 10,3 C 16,4 C 0,0 km/h (0 Bft) 95,74 %
04.09.2017 19:20 16,4 C 19,4 C 66 % 1017,1 hPa 0,0 l/m 0,0 km/h (0 Bft) N-NW 344 2 min 0,000 mm 0,0 UV-I 26 W/m 10,0 C 16,4 C 0,0 km/h (0 Bft) 97,22 %
04.09.2017 19:22 16,3 C 19,4 C 66 % 1017,1 hPa 0,0 l/m 0,7 km/h (0 Bft) N-NW 344 2 min 0,000 mm 0,0 UV-I 24 W/m 9,9 C 16,3 C 1,6 km/h (1 Bft) 96,23 %
04.09.2017 19:24 16,3 C 19,4 C 67 % 1017,1 hPa 0,0 l/m 1,4 km/h (1 Bft) N-NW 344 2 min 0,000 mm 0,0 UV-I 21 W/m 10,2 C 16,3 C 3,2 km/h (1 Bft) 95,92 %
04.09.2017 19:26 16,3 C 19,4 C 66 % 1017,1 hPa 0,0 l/m 0,1 km/h (0 Bft) N-NW 344 2 min 0,000 mm 0,0 UV-I 19 W/m 9,9 C 16,3 C 1,6 km/h (1 Bft) 93,75 %
04.09.2017 19:28 16,2 C 19,4 C 68 % 1017,2 hPa 0,0 l/m 1,0 km/h (0 Bft) N-NW 344 2 min 0,000 mm 0,0 UV-I 18 W/m 10,3 C 16,2 C 3,2 km/h (1 Bft) 97,87 %
04.09.2017 19:30 16,2 C 19,4 C 68 % 1017,2 hPa 0,0 l/m 0,4 km/h (0 Bft) N-NW 344 0 min 0,000 mm 0,0 UV-I 16 W/m 10,3 C 16,2 C 1,6 km/h (1 Bft) 96,00 %
04.09.2017 19:32 16,1 C 19,4 C 69 % 1017,3 hPa 0,0 l/m 1,5 km/h (1 Bft) N-NW 344 0 min 0,000 mm 0,0 UV-I 13 W/m 10,4 C 16,1 C 3,2 km/h (1 Bft) 97,30 %
04.09.2017 19:34 16,0 C 19,4 C 72 % 1017,3 hPa 0,0 l/m 1,3 km/h (1 Bft) N-NW 344 0 min 0,000 mm 0,0 UV-I 11 W/m 11,0 C 16,0 C 3,2 km/h (1 Bft) 94,00 %
04.09.2017 19:36 15,8 C 19,4 C 71 % 1017,3 hPa 0,0 l/m 0,8 km/h (0 Bft) N-NW 344 0 min 0,000 mm 0,0 UV-I 10 W/m 10,6 C 15,8 C 3,2 km/h (1 Bft) 98,00 %
04.09.2017 19:38 15,6 C 19,4 C 73 % 1017,4 hPa 0,0 l/m 0,3 km/h (0 Bft) N-NW 344 0 min 0,000 mm 0,0 UV-I 9 W/m 10,8 C 15,6 C 1,6 km/h (1 Bft) 97,87 %
04.09.2017 19:40 15,4 C 19,4 C 75 % 1017,3 hPa 0,0 l/m 0,0 km/h (0 Bft) N-NW 344 0 min 0,000 mm 0,0 UV-I 8 W/m 11,0 C 15,4 C 0,0 km/h (0 Bft) 97,87 %
04.09.2017 19:42 15,2 C 19,4 C 75 % 1017,4 hPa 0,0 l/m 0,0 km/h (0 Bft) N-NW 344 0 min 0,000 mm 0,0 UV-I 7 W/m 10,8 C 15,2 C 0,0 km/h (0 Bft) 98,00 %
04.09.2017 19:44 15,1 C 19,4 C 75 % 1017,4 hPa 0,0 l/m 0,0 km/h (0 Bft) N-NW 344 0 min 0,000 mm 0,0 UV-I 7 W/m 10,7 C 15,1 C 0,0 km/h (0 Bft) 97,87 %
04.09.2017 19:46 15,1 C 19,4 C 76 % 1017,4 hPa 0,0 l/m 0,1 km/h (0 Bft) N-NW 344 0 min 0,000 mm 0,0 UV-I 6 W/m 10,9 C 15,1 C 1,6 km/h (1 Bft) 95,74 %
04.09.2017 19:48 14,9 C 19,4 C 77 % 1017,5 hPa 0,0 l/m 0,4 km/h (0 Bft) N-NW 344 0 min 0,000 mm 0,0 UV-I 5 W/m 10,9 C 14,9 C 3,2 km/h (1 Bft) 93,62 %
04.09.2017 19:50 14,8 C 19,4 C 76 % 1017,5 hPa 0,0 l/m 0,8 km/h (0 Bft) N-NW 344 0 min 0,000 mm 0,0 UV-I 5 W/m 10,6 C 14,8 C 3,2 km/h (1 Bft) 95,74 %
04.09.2017 19:52 14,6 C 19,4 C 78 % 1017,5 hPa 0,0 l/m 0,0 km/h (0 Bft) N-NW 344 0 min 0,000 mm 0,0 UV-I 3 W/m 10,8 C 14,6 C 0,0 km/h (0 Bft) 93,62 %
04.09.2017 19:54 14,4 C 19,4 C 79 % 1017,5 hPa 0,0 l/m 0,0 km/h (0 Bft) N-NW 344 0 min 0,000 mm 0,0 UV-I 0 W/m 10,8 C 14,4 C 0,0 km/h (0 Bft) 97,87 %
04.09.2017 19:56 14,2 C 19,4 C 80 % 1017,6 hPa 0,0 l/m 0,3 km/h (0 Bft) N-NW 344 0 min 0,000 mm 0,0 UV-I 0 W/m 10,8 C 14,2 C 1,6 km/h (1 Bft) 97,14 %
04.09.2017 19:58 13,9 C 19,4 C 81 % 1017,6 hPa 0,0 l/m 0,6 km/h (0 Bft) N-NW 344 0 min 0,000 mm 0,0 UV-I 0 W/m 10,7 C 13,9 C 3,2 km/h (1 Bft) 97,87 %
04.09.2017 20:00 13,7 C 19,4 C 81 % 1017,6 hPa 0,0 l/m 0,5 km/h (0 Bft) N-NW 344 0 min 0,025 mm 0,0 UV-I 0 W/m 10,5 C 13,7 C 3,2 km/h (1 Bft) 95,83 %
04.09.2017 20:02 13,5 C 19,4 C 82 % 1017,6 hPa 0,0 l/m 0,1 km/h (0 Bft) N-NW 344 0 min 0,000 mm 0,0 UV-I 0 W/m 10,5 C 13,5 C 1,6 km/h (1 Bft) 97,87 %
04.09.2017 20:04 13,3 C 19,4 C 83 % 1017,7 hPa 0,0 l/m 1,7 km/h (1 Bft) N-NW 344 0 min 0,000 mm 0,0 UV-I 0 W/m 10,5 C 13,3 C 3,2 km/h (1 Bft) 97,87 %
04.09.2017 20:06 13,2 C 19,4 C 83 % 1017,7 hPa 0,0 l/m 2,7 km/h (1 Bft) N-NW 344 0 min 0,000 mm 0,0 UV-I 0 W/m 10,4 C 13,2 C 4,8 km/h (1 Bft) 94,00 %
04.09.2017 20:08 13,1 C 19,4 C 83 % 1017,7 hPa 0,0 l/m 2,2 km/h (1 Bft) N-NW 344 0 min 0,000 mm 0,0 UV-I 0 W/m 10,3 C 13,1 C 4,8 km/h (1 Bft) 96,00 %
04.09.2017 20:10 13,1 C 19,4 C 84 % 1017,7 hPa 0,0 l/m 2,5 km/h (1 Bft) N-NW 344 0 min 0,000 mm 0,0 UV-I 0 W/m 10,5 C 13,1 C 3,2 km/h (1 Bft) 95,74 %
04.09.2017 20:12 13,0 C 19,4 C 83 % 1017,8 hPa 0,0 l/m 1,7 km/h (1 Bft) N-NW 344 0 min 0,000 mm 0,0 UV-I 0 W/m 10,2 C 13,0 C 3,2 km/h (1 Bft) 97,87 %
04.09.2017 20:14 12,9 C 19,4 C 84 % 1017,8 hPa 0,0 l/m 2,4 km/h (1 Bft) N-NW 344 0 min 0,000 mm 0,0 UV-I 0 W/m 10,3 C 12,9 C 3,2 km/h (1 Bft) 97,87 %
04.09.2017 20:16 12,9 C 19,4 C 83 % 1017,8 hPa 0,0 l/m 1,7 km/h (1 Bft) N-NW 344 0 min 0,000 mm 0,0 UV-I 0 W/m 10,1 C 12,9 C 3,2 km/h (1 Bft) 100,00 %
04.09.2017 20:18 12,9 C 19,4 C 83 % 1017,8 hPa 0,0 l/m 2,2 km/h (1 Bft) N-NW 344 0 min 0,000 mm 0,0 UV-I 0 W/m 10,1 C 12,9 C 4,8 km/h (1 Bft) 100,00 %
04.09.2017 20:20 12,9 C 19,4 C 83 % 1017,9 hPa 0,0 l/m 2,5 km/h (1 Bft) N-NW 344 0 min 0,000 mm 0,0 UV-I 0 W/m 10,1 C 12,9 C 4,8 km/h (1 Bft) 98,00 %
04.09.2017 20:22 12,9 C 19,4 C 82 % 1017,9 hPa 0,0 l/m 2,3 km/h (1 Bft) N-NW 344 0 min 0,000 mm 0,0 UV-I 0 W/m 9,9 C 12,9 C 3,2 km/h (1 Bft) 97,50 %
04.09.2017 20:24 12,9 C 19,4 C 83 % 1017,9 hPa 0,0 l/m 1,8 km/h (1 Bft) N-NW 344 0 min 0,000 mm 0,0 UV-I 0 W/m 10,1 C 12,9 C 3,2 km/h (1 Bft) 100,00 %
04.09.2017 20:26 12,8 C 19,4 C 83 % 1017,9 hPa 0,0 l/m 1,6 km/h (1 Bft) N-NW 344 0 min 0,000 mm 0,0 UV-I 0 W/m 10,0 C 12,8 C 3,2 km/h (1 Bft) 100,00 %
04.09.2017 20:28 12,8 C 19,4 C 83 % 1017,9 hPa 0,0 l/m 2,7 km/h (1 Bft) N-NW 344 0 min 0,000 mm 0,0 UV-I 0 W/m 10,0 C 12,8 C 4,8 km/h (1 Bft) 95,74 %
04.09.2017 20:30 12,7 C 19,4 C 83 % 1018,0 hPa 0,0 l/m 1,9 km/h (1 Bft) N-NW 344 0 min 0,000 mm 0,0 UV-I 0 W/m 9,9 C 12,7 C 3,2 km/h (1 Bft) 97,87 %
04.09.2017 20:32 12,7 C 19,4 C 84 % 1018,1 hPa 0,0 l/m 0,2 km/h (0 Bft) N-NW 344 0 min 0,000 mm 0,0 UV-I 0 W/m 10,1 C 12,7 C 1,6 km/h (1 Bft) 100,00 %
04.09.2017 20:34 12,6 C 19,4 C 84 % 1018,1 hPa 0,0 l/m 2,5 km/h (1 Bft) N-NW 344 0 min 0,000 mm 0,0 UV-I 0 W/m 10,0 C 12,6 C 4,8 km/h (1 Bft) 95,74 %
04.09.2017 20:36 12,6 C 19,4 C 84 % 1018,1 hPa 0,0 l/m 3,0 km/h (1 Bft) N-NW 344 0 min 0,000 mm 0,0 UV-I 0 W/m 10,0 C 12,6 C 4,8 km/h (1 Bft) 97,87 %
04.09.2017 20:38 12,5 C 19,4 C 85 % 1018,2 hPa 0,0 l/m 3,0 km/h (1 Bft) N-NW 344 0 min 0,000 mm 0,0 UV-I 0 W/m 10,0 C 12,5 C 4,8 km/h (1 Bft) 100,00 %
04.09.2017 20:40 12,4 C 19,4 C 85 % 1018,2 hPa 0,0 l/m 3,6 km/h (1 Bft) N-NW 344 0 min 0,000 mm 0,0 UV-I 0 W/m 9,9 C 12,4 C 4,8 km/h (1 Bft) 100,00 %
04.09.2017 20:42 12,4 C 19,4 C 85 % 1018,2 hPa 0,0 l/m 2,6 km/h (1 Bft) N-NW 344 0 min 0,000 mm 0,0 UV-I 0 W/m 9,9 C 12,4 C 3,2 km/h (1 Bft) 97,87 %
04.09.2017 20:44 12,4 C 19,4 C 85 % 1018,2 hPa 0,0 l/m 2,4 km/h (1 Bft) N-NW 344 0 min 0,000 mm 0,0 UV-I 0 W/m 9,9 C 12,4 C 3,2 km/h (1 Bft) 97,87 %
04.09.2017 20:46 12,3 C 19,4 C 85 % 1018,3 hPa 0,0 l/m 1,7 km/h (1 Bft) N-NW 344 0 min 0,000 mm 0,0 UV-I 0 W/m 9,9 C 12,3 C 3,2 km/h (1 Bft) 100,00 %
04.09.2017 20:48 12,4 C 19,4 C 84 % 1018,3 hPa 0,0 l/m 2,5 km/h (1 Bft) N-NW 344 0 min 0,000 mm 0,0 UV-I 0 W/m 9,8 C 12,4 C 3,2 km/h (1 Bft) 100,00 %
04.09.2017 20:50 12,5 C 19,4 C 84 % 1018,3 hPa 0,0 l/m 2,0 km/h (1 Bft) N-NW 344 0 min 0,000 mm 0,0 UV-I 0 W/m 9,9 C 12,5 C 4,8 km/h (1 Bft) 100,00 %
04.09.2017 20:52 12,6 C 19,4 C 84 % 1018,3 hPa 0,0 l/m 2,1 km/h (1 Bft) N-NW 344 0 min 0,000 mm 0,0 UV-I 0 W/m 10,0 C 12,6 C 4,8 km/h (1 Bft) 100,00 %
04.09.2017 20:54 12,5 C 19,4 C 84 % 1018,3 hPa 0,0 l/m 2,1 km/h (1 Bft) N-NW 344 0 min 0,000 mm 0,0 UV-I 0 W/m 9,9 C 12,5 C 4,8 km/h (1 Bft) 97,87 %
04.09.2017 20:56 12,4 C 19,4 C 85 % 1018,3 hPa 0,0 l/m 3,1 km/h (1 Bft) N-NW 344 0 min 0,000 mm 0,0 UV-I 0 W/m 9,9 C 12,4 C 4,8 km/h (1 Bft) 97,14 %
04.09.2017 20:58 12,4 C 19,4 C 84 % 1018,3 hPa 0,0 l/m 1,7 km/h (1 Bft) N-NW 344 0 min 0,000 mm 0,0 UV-I 0 W/m 9,8 C 12,4 C 3,2 km/h (1 Bft) 100,00 %
04.09.2017 21:00 12,3 C 19,4 C 85 % 1018,3 hPa 0,0 l/m 1,0 km/h (0 Bft) N-NW 344 0 min 0,000 mm 0,0 UV-I 0 W/m 9,9 C 12,3 C 3,2 km/h (1 Bft) 100,00 %
04.09.2017 21:02 12,2 C 19,4 C 85 % 1018,4 hPa 0,0 l/m 1,0 km/h (0 Bft) N-NW 344 0 min 0,000 mm 0,0 UV-I 0 W/m 9,8 C 12,2 C 3,2 km/h (1 Bft) 95,74 %
04.09.2017 21:04 12,1 C 19,4 C 85 % 1018,4 hPa 0,0 l/m 1,4 km/h (1 Bft) N-NW 344 0 min 0,000 mm 0,0 UV-I 0 W/m 9,7 C 12,1 C 3,2 km/h (1 Bft) 100,00 %
04.09.2017 21:06 12,1 C 19,4 C 85 % 1018,4 hPa 0,0 l/m 1,2 km/h (1 Bft) N-NW 344 0 min 0,000 mm 0,0 UV-I 0 W/m 9,7 C 12,1 C 4,8 km/h (1 Bft) 98,00 %
04.09.2017 21:08 12,1 C 19,4 C 85 % 1018,4 hPa 0,0 l/m 1,8 km/h (1 Bft) N-NW 344 0 min 0,000 mm 0,0 UV-I 0 W/m 9,7 C 12,1 C 4,8 km/h (1 Bft) 100,00 %
04.09.2017 21:10 12,0 C 19,4 C 85 % 1018,4 hPa 0,0 l/m 0,5 km/h (0 Bft) N-NW 344 0 min 0,000 mm 0,0 UV-I 0 W/m 9,6 C 12,0 C 1,6 km/h (1 Bft) 100,00 %
04.09.2017 21:12 11,9 C 19,4 C 85 % 1018,4 hPa 0,0 l/m 1,8 km/h (1 Bft) N-NW 344 0 min 0,000 mm 0,0 UV-I 0 W/m 9,5 C 11,9 C 3,2 km/h (1 Bft) 97,87 %
04.09.2017 21:14 11,9 C 19,4 C 85 % 1018,4 hPa 0,0 l/m 1,6 km/h (1 Bft) N-NW 344 0 min 0,000 mm 0,0 UV-I 0 W/m 9,5 C 11,9 C 3,2 km/h (1 Bft) 100,00 %
04.09.2017 21:16 11,9 C 19,4 C 85 % 1018,4 hPa 0,0 l/m 1,6 km/h (1 Bft) N-NW 344 0 min 0,000 mm 0,0 UV-I 0 W/m 9,5 C 11,9 C 3,2 km/h (1 Bft) 100,00 %
04.09.2017 21:18 11,9 C 19,4 C 86 % 1018,5 hPa 0,0 l/m 2,8 km/h (1 Bft) N-NW 344 0 min 0,000 mm 0,0 UV-I 0 W/m 9,6 C 11,9 C 4,8 km/h (1 Bft) 100,00 %
04.09.2017 21:20 11,9 C 19,4 C 86 % 1018,5 hPa 0,0 l/m 2,7 km/h (1 Bft) S 175 0 min 0,000 mm 0,0 UV-I 0 W/m 9,6 C 11,9 C 4,8 km/h (1 Bft) 100,00 %
04.09.2017 21:22 11,9 C 19,4 C 86 % 1018,5 hPa 0,0 l/m 1,3 km/h (1 Bft) S 175 0 min 0,000 mm 0,0 UV-I 0 W/m 9,6 C 11,9 C 1,6 km/h (1 Bft) 100,00 %
04.09.2017 21:24 11,9 C 19,4 C 86 % 1018,6 hPa 0,0 l/m 2,2 km/h (1 Bft) S 175 0 min 0,000 mm 0,0 UV-I 0 W/m 9,6 C 11,9 C 4,8 km/h (1 Bft) 100,00 %
04.09.2017 21:26 12,0 C 19,4 C 86 % 1018,6 hPa 0,0 l/m 3,2 km/h (1 Bft) S 175 0 min 0,000 mm 0,0 UV-I 0 W/m 9,7 C 12,0 C 6,4 km/h (2 Bft) 100,00 %
04.09.2017 21:28 12,0 C 19,4 C 86 % 1018,6 hPa 0,0 l/m 2,2 km/h (1 Bft) S 175 0 min 0,000 mm 0,0 UV-I 0 W/m 9,7 C 12,0 C 3,2 km/h (1 Bft) 100,00 %
04.09.2017 21:30 12,1 C 19,4 C 86 % 1018,7 hPa 0,0 l/m 1,9 km/h (1 Bft) S 175 0 min 0,000 mm 0,0 UV-I 0 W/m 9,8 C 12,1 C 3,2 km/h (1 Bft) 100,00 %
04.09.2017 21:32 12,1 C 19,4 C 85 % 1018,6 hPa 0,0 l/m 2,4 km/h (1 Bft) S 175 0 min 0,000 mm 0,0 UV-I 0 W/m 9,7 C 12,1 C 3,2 km/h (1 Bft) 100,00 %
04.09.2017 21:34 12,1 C 19,4 C 85 % 1018,7 hPa 0,0 l/m 2,4 km/h (1 Bft) S 175 0 min 0,000 mm 0,0 UV-I 0 W/m 9,7 C 12,1 C 4,8 km/h (1 Bft) 100,00 %
04.09.2017 21:36 12,1 C 19,4 C 85 % 1018,7 hPa 0,0 l/m 3,3 km/h (1 Bft) S 175 0 min 0,000 mm 0,0 UV-I 0 W/m 9,7 C 12,1 C 4,8 km/h (1 Bft) 100,00 %
04.09.2017 21:38 12,2 C 19,4 C 85 % 1018,7 hPa 0,0 l/m 2,9 km/h (1 Bft) S 175 0 min 0,000 mm 0,0 UV-I 0 W/m 9,8 C 12,2 C 6,4 km/h (2 Bft) 100,00 %
04.09.2017 21:40 12,2 C 19,4 C 85 % 1018,7 hPa 0,0 l/m 3,4 km/h (1 Bft) S 175 0 min 0,000 mm 0,0 UV-I 0 W/m 9,8 C 12,2 C 6,4 km/h (2 Bft) 97,87 %
04.09.2017 21:42 12,3 C 19,4 C 84 % 1018,7 hPa 0,0 l/m 3,4 km/h (1 Bft) S-SO 167 0 min 0,000 mm 0,0 UV-I 0 W/m 9,7 C 12,3 C 8,0 km/h (2 Bft) 100,00 %
04.09.2017 21:44 12,3 C 19,4 C 84 % 1018,7 hPa 0,0 l/m 4,8 km/h (1 Bft) S 170 0 min 0,000 mm 0,0 UV-I 0 W/m 9,7 C 12,3 C 8,0 km/h (2 Bft) 97,87 %
04.09.2017 21:46 12,4 C 19,4 C 84 % 1018,7 hPa 0,0 l/m 4,5 km/h (1 Bft) S 177 0 min 0,000 mm 0,0 UV-I 0 W/m 9,8 C 12,4 C 8,0 km/h (2 Bft) 100,00 %
04.09.2017 21:48 12,6 C 19,4 C 84 % 1018,8 hPa 0,0 l/m 3,7 km/h (1 Bft) S 175 0 min 0,000 mm 0,0 UV-I 0 W/m 10,0 C 12,6 C 9,7 km/h (2 Bft) 95,74 %
04.09.2017 21:50 12,6 C 19,4 C 84 % 1018,8 hPa 0,0 l/m 4,3 km/h (1 Bft) S 174 0 min 0,000 mm 0,0 UV-I 0 W/m 10,0 C 12,6 C 6,4 km/h (2 Bft) 100,00 %
04.09.2017 21:52 12,6 C 19,4 C 84 % 1018,8 hPa 0,0 l/m 4,7 km/h (1 Bft) S 171 0 min 0,000 mm 0,0 UV-I 0 W/m 10,0 C 12,6 C 9,7 km/h (2 Bft) 94,34 %
04.09.2017 21:54 12,6 C 19,4 C 84 % 1018,8 hPa 0,0 l/m 5,7 km/h (1 Bft) S 169 0 min 0,000 mm 0,0 UV-I 0 W/m 10,0 C 12,6 C 8,0 km/h (2 Bft) 97,87 %
04.09.2017 21:56 12,6 C 19,4 C 84 % 1018,8 hPa 0,0 l/m 5,0 km/h (1 Bft) S 174 0 min 0,000 mm 0,0 UV-I 0 W/m 10,0 C 12,6 C 8,0 km/h (2 Bft) 97,87 %
04.09.2017 21:58 12,6 C 19,4 C 84 % 1018,8 hPa 0,0 l/m 3,5 km/h (1 Bft) S 174 0 min 0,000 mm 0,0 UV-I 0 W/m 10,0 C 12,6 C 4,8 km/h (1 Bft) 97,87 %
04.09.2017 22:00 12,6 C 19,4 C 84 % 1018,9 hPa 0,0 l/m 3,1 km/h (1 Bft) S 174 0 min 0,000 mm 0,0 UV-I 0 W/m 10,0 C 12,6 C 8,0 km/h (2 Bft) 97,87 %
04.09.2017 22:02 12,5 C 19,4 C 85 % 1018,9 hPa 0,0 l/m 3,7 km/h (1 Bft) S 175 0 min 0,000 mm 0,0 UV-I 0 W/m 10,0 C 12,5 C 8,0 km/h (2 Bft) 97,22 %
04.09.2017 22:04 12,4 C 19,4 C 85 % 1018,9 hPa 0,0 l/m 3,8 km/h (1 Bft) S 175 0 min 0,000 mm 0,0 UV-I 0 W/m 9,9 C 12,4 C 6,4 km/h (2 Bft) 93,62 %
04.09.2017 22:06 12,4 C 19,4 C 85 % 1018,9 hPa 0,0 l/m 3,0 km/h (1 Bft) S 189 0 min 0,000 mm 0,0 UV-I 0 W/m 9,9 C 12,4 C 6,4 km/h (2 Bft) 93,62 %
04.09.2017 22:08 12,3 C 19,4 C 85 % 1018,9 hPa 0,0 l/m 4,2 km/h (1 Bft) S 184 0 min 0,000 mm 0,0 UV-I 0 W/m 9,9 C 12,3 C 6,4 km/h (2 Bft) 95,74 %
04.09.2017 22:10 12,3 C 19,4 C 86 % 1018,9 hPa 0,0 l/m 4,6 km/h (1 Bft) S 184 0 min 0,000 mm 0,0 UV-I 0 W/m 10,0 C 12,3 C 6,4 km/h (2 Bft) 93,62 %
04.09.2017 22:12 12,3 C 19,4 C 86 % 1018,9 hPa 0,0 l/m 3,4 km/h (1 Bft) S 184 0 min 0,000 mm 0,0 UV-I 0 W/m 10,0 C 12,3 C 4,8 km/h (1 Bft) 93,62 %
04.09.2017 22:14 12,3 C 19,4 C 86 % 1018,9 hPa 0,0 l/m 4,5 km/h (1 Bft) S 184 0 min 0,000 mm 0,0 UV-I 0 W/m 10,0 C 12,3 C 6,4 km/h (2 Bft) 93,62 %
04.09.2017 22:16 12,3 C 19,4 C 86 % 1018,9 hPa 0,0 l/m 4,1 km/h (1 Bft) S 184 0 min 0,000 mm 0,0 UV-I 0 W/m 10,0 C 12,3 C 6,4 km/h (2 Bft) 89,36 %
04.09.2017 22:18 12,3 C 19,4 C 86 % 1018,9 hPa 0,0 l/m 4,3 km/h (1 Bft) S 184 0 min 0,000 mm 0,0 UV-I 0 W/m 10,0 C 12,3 C 8,0 km/h (2 Bft) 96,00 %
04.09.2017 22:20 12,3 C 19,4 C 86 % 1019,0 hPa 0,0 l/m 4,4 km/h (1 Bft) S 184 0 min 0,000 mm 0,0 UV-I 0 W/m 10,0 C 12,3 C 6,4 km/h (2 Bft) 95,74 %
04.09.2017 22:22 12,3 C 19,4 C 86 % 1019,0 hPa 0,0 l/m 3,7 km/h (1 Bft) S 184 0 min 0,000 mm 0,0 UV-I 0 W/m 10,0 C 12,3 C 4,8 km/h (1 Bft) 93,62 %
04.09.2017 22:24 12,3 C 19,4 C 86 % 1019,0 hPa 0,0 l/m 4,3 km/h (1 Bft) S 184 0 min 0,000 mm 0,0 UV-I 0 W/m 10,0 C 12,3 C 6,4 km/h (2 Bft) 91,49 %
04.09.2017 22:26 12,2 C 19,4 C 86 % 1019,0 hPa 0,0 l/m 3,9 km/h (1 Bft) S 184 0 min 0,000 mm 0,0 UV-I 0 W/m 9,9 C 12,2 C 6,4 km/h (2 Bft) 96,00 %
04.09.2017 22:28 12,2 C 19,4 C 87 % 1019,1 hPa 0,0 l/m 5,0 km/h (1 Bft) S 184 0 min 0,000 mm 0,0 UV-I 0 W/m 10,1 C 12,2 C 6,4 km/h (2 Bft) 97,87 %
04.09.2017 22:30 12,2 C 19,4 C 87 % 1019,0 hPa 0,0 l/m 3,2 km/h (1 Bft) S 184 0 min 0,000 mm 0,0 UV-I 0 W/m 10,1 C 12,2 C 4,8 km/h (1 Bft) 93,62 %
04.09.2017 22:32 12,1 C 19,4 C 87 % 1019,0 hPa 0,0 l/m 3,3 km/h (1 Bft) S 184 0 min 0,000 mm 0,0 UV-I 0 W/m 10,0 C 12,1 C 4,8 km/h (1 Bft) 97,22 %
04.09.2017 22:34 12,1 C 19,4 C 87 % 1019,1 hPa 0,0 l/m 3,5 km/h (1 Bft) S 184 0 min 0,000 mm 0,0 UV-I 0 W/m 10,0 C 12,1 C 4,8 km/h (1 Bft) 98,00 %
04.09.2017 22:36 12,1 C 19,4 C 87 % 1019,1 hPa 0,0 l/m 3,4 km/h (1 Bft) S 184 0 min 0,000 mm 0,0 UV-I 0 W/m 10,0 C 12,1 C 6,4 km/h (2 Bft) 96,00 %
04.09.2017 22:38 12,1 C 19,4 C 87 % 1019,1 hPa 0,0 l/m 4,4 km/h (1 Bft) S 184 0 min 0,000 mm 0,0 UV-I 0 W/m 10,0 C 12,1 C 6,4 km/h (2 Bft) 95,74 %
04.09.2017 22:40 12,0 C 19,4 C 88 % 1019,2 hPa 0,0 l/m 4,5 km/h (1 Bft) S 184 0 min 0,000 mm 0,0 UV-I 0 W/m 10,1 C 12,0 C 6,4 km/h (2 Bft) 97,87 %
04.09.2017 22:42 12,0 C 19,4 C 88 % 1019,2 hPa 0,0 l/m 5,8 km/h (2 Bft) S 185 0 min 0,000 mm 0,0 UV-I 0 W/m 10,1 C 12,0 C 9,7 km/h (2 Bft) 98,00 %
04.09.2017 22:44 12,0 C 19,4 C 88 % 1019,2 hPa 0,0 l/m 4,8 km/h (1 Bft) S 184 0 min 0,000 mm 0,0 UV-I 0 W/m 10,1 C 12,0 C 8,0 km/h (2 Bft) 98,00 %
04.09.2017 22:46 11,9 C 19,4 C 88 % 1019,2 hPa 0,0 l/m 3,5 km/h (1 Bft) S 180 0 min 0,000 mm 0,0 UV-I 0 W/m 10,0 C 11,9 C 6,4 km/h (2 Bft) 97,30 %
04.09.2017 22:48 11,9 C 19,4 C 88 % 1019,2 hPa 0,0 l/m 4,3 km/h (1 Bft) S-SW 193 0 min 0,000 mm 0,0 UV-I 0 W/m 10,0 C 11,9 C 8,0 km/h (2 Bft) 97,87 %
04.09.2017 22:50 11,9 C 19,4 C 88 % 1019,2 hPa 0,0 l/m 4,3 km/h (1 Bft) S-SW 193 0 min 0,000 mm 0,0 UV-I 0 W/m 10,0 C 11,9 C 6,4 km/h (2 Bft) 95,74 %
04.09.2017 22:52 11,9 C 19,4 C 88 % 1019,2 hPa 0,0 l/m 4,6 km/h (1 Bft) S-SW 193 0 min 0,000 mm 0,0 UV-I 0 W/m 10,0 C 11,9 C 8,0 km/h (2 Bft) 95,74 %
04.09.2017 22:54 11,9 C 19,4 C 88 % 1019,3 hPa 0,0 l/m 5,6 km/h (1 Bft) S-SW 201 0 min 0,000 mm 0,0 UV-I 0 W/m 10,0 C 11,9 C 8,0 km/h (2 Bft) 97,87 %
04.09.2017 22:56 11,8 C 19,4 C 88 % 1019,3 hPa 0,0 l/m 3,8 km/h (1 Bft) S-SW 201 0 min 0,000 mm 0,0 UV-I 0 W/m 9,9 C 11,8 C 6,4 km/h (2 Bft) 97,87 %
04.09.2017 22:58 11,8 C 19,4 C 88 % 1019,3 hPa 0,0 l/m 4,2 km/h (1 Bft) S-SW 201 0 min 0,000 mm 0,0 UV-I 0 W/m 9,9 C 11,8 C 6,4 km/h (2 Bft) 95,74 %
04.09.2017 23:00 11,8 C 19,4 C 89 % 1019,4 hPa 0,0 l/m 4,9 km/h (1 Bft) S-SW 201 0 min 0,000 mm 0,0 UV-I 0 W/m 10,0 C 11,8 C 8,0 km/h (2 Bft) 95,74 %
04.09.2017 23:02 11,7 C 19,4 C 89 % 1019,4 hPa 0,0 l/m 5,5 km/h (1 Bft) S-SW 201 0 min 0,000 mm 0,0 UV-I 0 W/m 9,9 C 11,7 C 8,0 km/h (2 Bft) 98,00 %
04.09.2017 23:04 11,7 C 18,9 C 89 % 1019,3 hPa 0,0 l/m 5,4 km/h (1 Bft) S-SW 211 0 min 0,000 mm 0,0 UV-I 0 W/m 9,9 C 11,7 C 8,0 km/h (2 Bft) 100,00 %
04.09.2017 23:06 11,7 C 18,9 C 89 % 1019,4 hPa 0,0 l/m 6,0 km/h (2 Bft) S-SW 211 0 min 0,000 mm 0,0 UV-I 0 W/m 9,9 C 11,7 C 8,0 km/h (2 Bft) 96,00 %
04.09.2017 23:08 11,7 C 18,9 C 89 % 1019,5 hPa 0,0 l/m 5,1 km/h (1 Bft) S-SW 209 0 min 0,000 mm 0,0 UV-I 0 W/m 9,9 C 11,7 C 8,0 km/h (2 Bft) 97,87 %
04.09.2017 23:10 11,7 C 18,9 C 89 % 1019,5 hPa 0,0 l/m 5,3 km/h (1 Bft) S-SW 209 0 min 0,000 mm 0,0 UV-I 0 W/m 9,9 C 11,7 C 6,4 km/h (2 Bft) 100,00 %
04.09.2017 23:12 11,7 C 18,9 C 89 % 1019,5 hPa 0,0 l/m 5,1 km/h (1 Bft) S-SW 209 0 min 0,000 mm 0,0 UV-I 0 W/m 9,9 C 11,7 C 6,4 km/h (2 Bft) 100,00 %
04.09.2017 23:14 11,6 C 18,9 C 89 % 1019,5 hPa 0,0 l/m 4,6 km/h (1 Bft) S-SW 209 0 min 0,000 mm 0,0 UV-I 0 W/m 9,8 C 11,6 C 6,4 km/h (2 Bft) 100,00 %
04.09.2017 23:16 11,6 C 18,9 C 89 % 1019,5 hPa 0,0 l/m 5,2 km/h (1 Bft) S-SW 209 0 min 0,000 mm 0,0 UV-I 0 W/m 9,8 C 11,6 C 6,4 km/h (2 Bft) 100,00 %
04.09.2017 23:18 11,6 C 18,9 C 89 % 1019,5 hPa 0,0 l/m 5,2 km/h (1 Bft) S-SW 209 0 min 0,000 mm 0,0 UV-I 0 W/m 9,8 C 11,6 C 8,0 km/h (2 Bft) 100,00 %
04.09.2017 23:20 11,5 C 18,9 C 89 % 1019,5 hPa 0,0 l/m 6,9 km/h (2 Bft) S-SW 208 0 min 0,000 mm 0,0 UV-I 0 W/m 9,8 C 11,2 C 9,7 km/h (2 Bft) 100,00 %
04.09.2017 23:22 11,5 C 18,9 C 89 % 1019,5 hPa 0,0 l/m 6,9 km/h (2 Bft) S-SW 204 0 min 0,000 mm 0,0 UV-I 0 W/m 9,8 C 11,2 C 9,7 km/h (2 Bft) 100,00 %
04.09.2017 23:24 11,5 C 18,9 C 90 % 1019,5 hPa 0,0 l/m 5,6 km/h (1 Bft) SW 220 0 min 0,000 mm 0,0 UV-I 0 W/m 9,9 C 11,5 C 9,7 km/h (2 Bft) 100,00 %
04.09.2017 23:26 11,5 C 18,9 C 90 % 1019,5 hPa 0,0 l/m 5,0 km/h (1 Bft) S-SW 199 0 min 0,000 mm 0,0 UV-I 0 W/m 9,9 C 11,5 C 8,0 km/h (2 Bft) 100,00 %
04.09.2017 23:28 11,5 C 18,9 C 90 % 1019,5 hPa 0,0 l/m 5,6 km/h (1 Bft) S 190 0 min 0,000 mm 0,0 UV-I 0 W/m 9,9 C 11,5 C 9,7 km/h (2 Bft) 100,00 %
04.09.2017 23:30 11,4 C 18,9 C 90 % 1019,5 hPa 0,0 l/m 4,5 km/h (1 Bft) S-SW 205 0 min 0,000 mm 0,0 UV-I 0 W/m 9,8 C 11,4 C 6,4 km/h (2 Bft) 100,00 %
04.09.2017 23:32 11,4 C 18,9 C 89 % 1019,5 hPa 0,0 l/m 5,1 km/h (1 Bft) S-SW 203 0 min 0,000 mm 0,0 UV-I 0 W/m 9,7 C 11,4 C 8,0 km/h (2 Bft) 100,00 %
04.09.2017 23:34 11,4 C 18,9 C 89 % 1019,5 hPa 0,0 l/m 6,3 km/h (2 Bft) S 171 0 min 0,000 mm 0,0 UV-I 0 W/m 9,7 C 11,4 C 9,7 km/h (2 Bft) 97,96 %
04.09.2017 23:36 11,4 C 18,9 C 90 % 1019,5 hPa 0,0 l/m 5,3 km/h (1 Bft) S-SW 192 0 min 0,000 mm 0,0 UV-I 0 W/m 9,8 C 11,4 C 8,0 km/h (2 Bft) 100,00 %
04.09.2017 23:38 11,4 C 18,9 C 90 % 1019,5 hPa 0,0 l/m 4,4 km/h (1 Bft) S-SW 193 0 min 0,000 mm 0,0 UV-I 0 W/m 9,8 C 11,4 C 6,4 km/h (2 Bft) 95,74 %
04.09.2017 23:40 11,3 C 18,9 C 90 % 1019,4 hPa 0,0 l/m 4,6 km/h (1 Bft) S-SW 207 0 min 0,000 mm 0,0 UV-I 0 W/m 9,7 C 11,3 C 8,0 km/h (2 Bft) 98,00 %
04.09.2017 23:42 11,3 C 18,9 C 90 % 1019,5 hPa 0,0 l/m 4,0 km/h (1 Bft) S 175 0 min 0,000 mm 0,0 UV-I 0 W/m 9,7 C 11,3 C 6,4 km/h (2 Bft) 97,87 %
04.09.2017 23:44 11,3 C 18,9 C 90 % 1019,5 hPa 0,0 l/m 4,4 km/h (1 Bft) S-SW 192 0 min 0,000 mm 0,0 UV-I 0 W/m 9,7 C 11,3 C 6,4 km/h (2 Bft) 100,00 %
04.09.2017 23:46 11,3 C 18,9 C 90 % 1019,5 hPa 0,0 l/m 4,1 km/h (1 Bft) S-SW 192 0 min 0,000 mm 0,0 UV-I 0 W/m 9,7 C 11,3 C 8,0 km/h (2 Bft) 97,87 %
04.09.2017 23:48 11,3 C 18,9 C 90 % 1019,5 hPa 0,0 l/m 5,0 km/h (1 Bft) S 191 0 min 0,000 mm 0,0 UV-I 0 W/m 9,7 C 11,3 C 8,0 km/h (2 Bft) 100,00 %
04.09.2017 23:50 11,3 C 18,9 C 90 % 1019,5 hPa 0,0 l/m 4,5 km/h (1 Bft) S 190 0 min 0,000 mm 0,0 UV-I 0 W/m 9,7 C 11,3 C 6,4 km/h (2 Bft) 100,00 %
04.09.2017 23:52 11,3 C 18,9 C 90 % 1019,5 hPa 0,0 l/m 4,9 km/h (1 Bft) S-SW 197 0 min 0,000 mm 0,0 UV-I 0 W/m 9,7 C 11,3 C 8,0 km/h (2 Bft) 100,00 %
04.09.2017 23:54 11,3 C 18,9 C 90 % 1019,5 hPa 0,0 l/m 4,0 km/h (1 Bft) S 188 0 min 0,000 mm 0,0 UV-I 0 W/m 9,7 C 11,3 C 8,0 km/h (2 Bft) 100,00 %
04.09.2017 23:56 11,3 C 18,9 C 90 % 1019,5 hPa 0,0 l/m 3,9 km/h (1 Bft) S 186 0 min 0,000 mm 0,0 UV-I 0 W/m 9,7 C 11,3 C 6,4 km/h (2 Bft) 97,92 %
04.09.2017 23:58 11,3 C 18,9 C 90 % 1019,5 hPa 0,0 l/m 4,0 km/h (1 Bft) S 186 0 min 0,000 mm 0,0 UV-I 0 W/m 9,7 C 11,3 C 6,4 km/h (2 Bft) 97,87 %
_ Min-Zeit 06:48 03:58 15:02 00:52 - 00:30 - - - - - - 06:48 06:48 00:32 09:40
Minimum _ 6,8 C 17,8 C 51 % 1015,5 hPa - 0,0 km/h (0 Bft) - - - - - - 6,2 C 6,8 C 0,0 km/h (0 Bft) 89,36 %
_ Max-Zeit 17:00 14:56 07:24 23:08 02:50 15:26 - - 06:36 13:00 12:44 10:58 13:12 17:00 15:26 00:00
Maximum _ 19,3 C 19,4 C 97 % 1019,5 hPa 0,2 l/m 8,5 km/h
W-NW (2 Bft)
- - 2 min 0,407 mm 4,0 UV-I 853 W/m 13,0 C 19,3 C 12,9 km/h
W-SW (3 Bft)
100,00 %
Durchschnitt _ 12,6 C 18,6 C 82 % 1016,9 hPa #0,2 l/m 2,1 km/h (1 Bft) S-SW - #12:44 h #3,175 mm 2,4 UV-I 429 W/m 9,4 C 12,6 C 4,3 km/h (1 Bft) 97,80 %